<?xml version='1.0' encoding='UTF-8'?><gpx version="1.1" creator="JPX - https://github.com/jenetics/jpx" xmlns="http://www.topografix.com/GPX/1/1"><trk><trkseg><trkpt lat="43.5048218" lon="10.6202435"><ele>309.0</ele><time>2026-04-18T06:51:03.002Z</time></trkpt><trkpt lat="43.5047611" lon="10.6202711"><ele>309.0</ele><time>2026-04-18T06:51:11.002Z</time></trkpt><trkpt lat="43.5046985" lon="10.6202807"><ele>309.0</ele><time>2026-04-18T06:51:20.003Z</time></trkpt><trkpt lat="43.5046946" lon="10.6201932"><ele>309.0</ele><time>2026-04-18T06:51:40.003Z</time></trkpt><trkpt lat="43.5047572" lon="10.6201202"><ele>309.0</ele><time>2026-04-18T06:52:12.003Z</time></trkpt><trkpt lat="43.50482" lon="10.6200247"><ele>309.0</ele><time>2026-04-18T06:52:13.003Z</time></trkpt><trkpt lat="43.5049025" lon="10.6199281"><ele>309.0</ele><time>2026-04-18T06:52:14.002Z</time></trkpt><trkpt lat="43.5049883" lon="10.6198582"><ele>309.0</ele><time>2026-04-18T06:52:15.003Z</time></trkpt><trkpt lat="43.5050524" lon="10.6197625"><ele>309.0</ele><time>2026-04-18T06:52:16.002Z</time></trkpt><trkpt lat="43.5050885" lon="10.6196478"><ele>309.0</ele><time>2026-04-18T06:52:17.003Z</time></trkpt><trkpt lat="43.5051192" lon="10.619535"><ele>309.0</ele><time>2026-04-18T06:52:18.002Z</time></trkpt><trkpt lat="43.505157" lon="10.6194501"><ele>309.0</ele><time>2026-04-18T06:52:19.003Z</time></trkpt><trkpt lat="43.5052034" lon="10.619384"><ele>309.59999999999997</ele><time>2026-04-18T06:52:20.003Z</time></trkpt><trkpt lat="43.5053368" lon="10.6193809"><ele>310.2</ele><time>2026-04-18T06:52:22.002Z</time></trkpt><trkpt lat="43.5054389" lon="10.6193997"><ele>310.79999999999995</ele><time>2026-04-18T06:52:23.003Z</time></trkpt><trkpt lat="43.5055295" lon="10.619433"><ele>311.4</ele><time>2026-04-18T06:52:24.003Z</time></trkpt><trkpt lat="43.5056276" lon="10.6194612"><ele>312.0</ele><time>2026-04-18T06:52:25.003Z</time></trkpt><trkpt lat="43.5057092" lon="10.6194885"><ele>310.0</ele><time>2026-04-18T06:52:26.002Z</time></trkpt><trkpt lat="43.5057875" lon="10.619499"><ele>308.0</ele><time>2026-04-18T06:52:27.003Z</time></trkpt><trkpt lat="43.505863" lon="10.6194795"><ele>306.0</ele><time>2026-04-18T06:52:28.003Z</time></trkpt><trkpt lat="43.5059527" lon="10.6194358"><ele>304.0</ele><time>2026-04-18T06:52:29.003Z</time></trkpt><trkpt lat="43.506039" lon="10.6194014"><ele>302.0</ele><time>2026-04-18T06:52:30.003Z</time></trkpt><trkpt lat="43.5061231" lon="10.6193738"><ele>300.0</ele><time>2026-04-18T06:52:31.003Z</time></trkpt><trkpt lat="43.5062088" lon="10.6193497"><ele>298.1666666666667</ele><time>2026-04-18T06:52:32.003Z</time></trkpt><trkpt lat="43.5062986" lon="10.6193303"><ele>296.3333333333333</ele><time>2026-04-18T06:52:33.002Z</time></trkpt><trkpt lat="43.5063863" lon="10.619319"><ele>294.5</ele><time>2026-04-18T06:52:34.003Z</time></trkpt><trkpt lat="43.5064762" lon="10.6193283"><ele>292.66666666666663</ele><time>2026-04-18T06:52:35.003Z</time></trkpt><trkpt lat="43.5065629" lon="10.6193357"><ele>290.8333333333333</ele><time>2026-04-18T06:52:36.002Z</time></trkpt><trkpt lat="43.5066479" lon="10.6193205"><ele>289.0</ele><time>2026-04-18T06:52:37.003Z</time></trkpt><trkpt lat="43.5067258" lon="10.6192899"><ele>289.0</ele><time>2026-04-18T06:52:38.003Z</time></trkpt><trkpt lat="43.5068028" lon="10.619253"><ele>289.0</ele><time>2026-04-18T06:52:39.003Z</time></trkpt><trkpt lat="43.5068691" lon="10.6192161"><ele>289.0</ele><time>2026-04-18T06:52:40.003Z</time></trkpt><trkpt lat="43.5069636" lon="10.6191041"><ele>289.0</ele><time>2026-04-18T06:52:42.003Z</time></trkpt><trkpt lat="43.507017" lon="10.6190341"><ele>289.0</ele><time>2026-04-18T06:52:43.003Z</time></trkpt><trkpt lat="43.5070681" lon="10.6189683"><ele>289.0</ele><time>2026-04-18T06:52:44.003Z</time></trkpt><trkpt lat="43.5071258" lon="10.618903"><ele>288.3333333333333</ele><time>2026-04-18T06:52:45.003Z</time></trkpt><trkpt lat="43.5071947" lon="10.6188382"><ele>287.66666666666663</ele><time>2026-04-18T06:52:46.003Z</time></trkpt><trkpt lat="43.5072679" lon="10.6187803"><ele>287.0</ele><time>2026-04-18T06:52:47.003Z</time></trkpt><trkpt lat="43.5073483" lon="10.6187317"><ele>286.3333333333333</ele><time>2026-04-18T06:52:48.003Z</time></trkpt><trkpt lat="43.5074249" lon="10.6187145"><ele>285.6666666666667</ele><time>2026-04-18T06:52:49.002Z</time></trkpt><trkpt lat="43.5075033" lon="10.6186873"><ele>285.0</ele><time>2026-04-18T06:52:50.003Z</time></trkpt><trkpt lat="43.5075845" lon="10.618647"><ele>285.0</ele><time>2026-04-18T06:52:51.003Z</time></trkpt><trkpt lat="43.5076595" lon="10.618571"><ele>285.0</ele><time>2026-04-18T06:52:52.003Z</time></trkpt><trkpt lat="43.5077386" lon="10.6184962"><ele>285.0</ele><time>2026-04-18T06:52:53.003Z</time></trkpt><trkpt lat="43.5077974" lon="10.6184146"><ele>285.0</ele><time>2026-04-18T06:52:54.003Z</time></trkpt><trkpt lat="43.5078613" lon="10.6183069"><ele>285.0</ele><time>2026-04-18T06:52:55.002Z</time></trkpt><trkpt lat="43.5079201" lon="10.6181954"><ele>285.6666666666667</ele><time>2026-04-18T06:52:56.003Z</time></trkpt><trkpt lat="43.5079766" lon="10.6180924"><ele>286.3333333333333</ele><time>2026-04-18T06:52:57.002Z</time></trkpt><trkpt lat="43.508016" lon="10.6179824"><ele>287.0</ele><time>2026-04-18T06:52:58.003Z</time></trkpt><trkpt lat="43.5080635" lon="10.617881"><ele>287.66666666666663</ele><time>2026-04-18T06:52:59.003Z</time></trkpt><trkpt lat="43.5081051" lon="10.6177813"><ele>288.3333333333333</ele><time>2026-04-18T06:53:00.003Z</time></trkpt><trkpt lat="43.5081373" lon="10.6176701"><ele>289.0</ele><time>2026-04-18T06:53:01.003Z</time></trkpt><trkpt lat="43.5081775" lon="10.6175572"><ele>289.0</ele><time>2026-04-18T06:53:02.003Z</time></trkpt><trkpt lat="43.5082121" lon="10.6174458"><ele>289.0</ele><time>2026-04-18T06:53:03.003Z</time></trkpt><trkpt lat="43.5082527" lon="10.6173416"><ele>289.0</ele><time>2026-04-18T06:53:04.002Z</time></trkpt><trkpt lat="43.5082929" lon="10.6172405"><ele>289.0</ele><time>2026-04-18T06:53:05.003Z</time></trkpt><trkpt lat="43.508333" lon="10.6171445"><ele>289.0</ele><time>2026-04-18T06:53:06.003Z</time></trkpt><trkpt lat="43.5084441" lon="10.6169591"><ele>289.59999999999997</ele><time>2026-04-18T06:53:08.002Z</time></trkpt><trkpt lat="43.5085169" lon="10.6168704"><ele>290.2</ele><time>2026-04-18T06:53:09.002Z</time></trkpt><trkpt lat="43.5085879" lon="10.6167857"><ele>290.79999999999995</ele><time>2026-04-18T06:53:10.003Z</time></trkpt><trkpt lat="43.5086576" lon="10.616699"><ele>291.4</ele><time>2026-04-18T06:53:11.003Z</time></trkpt><trkpt lat="43.5087233" lon="10.6166189"><ele>292.0</ele><time>2026-04-18T06:53:12.003Z</time></trkpt><trkpt lat="43.5088029" lon="10.6164735"><ele>292.0</ele><time>2026-04-18T06:53:14.003Z</time></trkpt><trkpt lat="43.5088759" lon="10.6164029"><ele>292.0</ele><time>2026-04-18T06:53:16.003Z</time></trkpt><trkpt lat="43.508926" lon="10.6163412"><ele>292.0</ele><time>2026-04-18T06:53:19.003Z</time></trkpt><trkpt lat="43.5089901" lon="10.6163412"><ele>292.0</ele><time>2026-04-18T06:53:23.003Z</time></trkpt><trkpt lat="43.5090546" lon="10.6164041"><ele>292.0</ele><time>2026-04-18T06:53:25.003Z</time></trkpt><trkpt lat="43.5090914" lon="10.6164822"><ele>292.0</ele><time>2026-04-18T06:53:26.002Z</time></trkpt><trkpt lat="43.5091348" lon="10.6165707"><ele>292.0</ele><time>2026-04-18T06:53:27.003Z</time></trkpt><trkpt lat="43.5091859" lon="10.6166742"><ele>292.0</ele><time>2026-04-18T06:53:28.003Z</time></trkpt><trkpt lat="43.5092426" lon="10.6167861"><ele>292.0</ele><time>2026-04-18T06:53:29.002Z</time></trkpt><trkpt lat="43.5092999" lon="10.6168991"><ele>292.0</ele><time>2026-04-18T06:53:30.002Z</time></trkpt><trkpt lat="43.509363" lon="10.6170138"><ele>292.0</ele><time>2026-04-18T06:53:31.003Z</time></trkpt><trkpt lat="43.5094262" lon="10.6171377"><ele>292.0</ele><time>2026-04-18T06:53:32.003Z</time></trkpt><trkpt lat="43.5094905" lon="10.6172657"><ele>291.0</ele><time>2026-04-18T06:53:33.003Z</time></trkpt><trkpt lat="43.5095586" lon="10.6174051"><ele>290.0</ele><time>2026-04-18T06:53:34.002Z</time></trkpt><trkpt lat="43.5096243" lon="10.6175387"><ele>289.0</ele><time>2026-04-18T06:53:35.003Z</time></trkpt><trkpt lat="43.5096921" lon="10.6176525"><ele>288.0</ele><time>2026-04-18T06:53:36.003Z</time></trkpt><trkpt lat="43.5097561" lon="10.6177546"><ele>287.0</ele><time>2026-04-18T06:53:37.003Z</time></trkpt><trkpt lat="43.5098081" lon="10.6178514"><ele>286.33333333333337</ele><time>2026-04-18T06:53:38.002Z</time></trkpt><trkpt lat="43.5098607" lon="10.6179524"><ele>285.6666666666667</ele><time>2026-04-18T06:53:39.003Z</time></trkpt><trkpt lat="43.5099013" lon="10.6180595"><ele>285.0</ele><time>2026-04-18T06:53:40.003Z</time></trkpt><trkpt lat="43.5099543" lon="10.6181521"><ele>284.3333333333333</ele><time>2026-04-18T06:53:41.003Z</time></trkpt><trkpt lat="43.5099806" lon="10.6182508"><ele>283.66666666666663</ele><time>2026-04-18T06:53:42.003Z</time></trkpt><trkpt lat="43.5100111" lon="10.6183561"><ele>283.0</ele><time>2026-04-18T06:53:43.003Z</time></trkpt><trkpt lat="43.5100323" lon="10.6184591"><ele>283.0</ele><time>2026-04-18T06:53:44.003Z</time></trkpt><trkpt lat="43.5100667" lon="10.6185644"><ele>283.0</ele><time>2026-04-18T06:53:45.003Z</time></trkpt><trkpt lat="43.5101245" lon="10.6186108"><ele>283.0</ele><time>2026-04-18T06:53:46.003Z</time></trkpt><trkpt lat="43.5101984" lon="10.6186108"><ele>283.0</ele><time>2026-04-18T06:53:47.002Z</time></trkpt><trkpt lat="43.5102801" lon="10.618558"><ele>283.0</ele><time>2026-04-18T06:53:48.003Z</time></trkpt><trkpt lat="43.5103753" lon="10.6184622"><ele>283.0</ele><time>2026-04-18T06:53:49.003Z</time></trkpt><trkpt lat="43.5104767" lon="10.618357"><ele>280.5</ele><time>2026-04-18T06:53:50.003Z</time></trkpt><trkpt lat="43.5105874" lon="10.6182798"><ele>278.0</ele><time>2026-04-18T06:53:51.003Z</time></trkpt><trkpt lat="43.5106952" lon="10.6182182"><ele>275.5</ele><time>2026-04-18T06:53:52.003Z</time></trkpt><trkpt lat="43.5108202" lon="10.6181964"><ele>273.0</ele><time>2026-04-18T06:53:53.002Z</time></trkpt><trkpt lat="43.5109551" lon="10.6181925"><ele>273.0</ele><time>2026-04-18T06:53:54.003Z</time></trkpt><trkpt lat="43.5111109" lon="10.6182234"><ele>273.0</ele><time>2026-04-18T06:53:55.003Z</time></trkpt><trkpt lat="43.5112682" lon="10.618261"><ele>273.0</ele><time>2026-04-18T06:53:56.003Z</time></trkpt><trkpt lat="43.5114064" lon="10.6183005"><ele>270.75</ele><time>2026-04-18T06:53:57.003Z</time></trkpt><trkpt lat="43.5115307" lon="10.6183303"><ele>268.5</ele><time>2026-04-18T06:53:58.002Z</time></trkpt><trkpt lat="43.5116475" lon="10.6183662"><ele>266.25</ele><time>2026-04-18T06:53:59.003Z</time></trkpt><trkpt lat="43.5117598" lon="10.618414"><ele>264.0</ele><time>2026-04-18T06:54:00.002Z</time></trkpt><trkpt lat="43.5118725" lon="10.6184855"><ele>264.0</ele><time>2026-04-18T06:54:01.002Z</time></trkpt><trkpt lat="43.5119767" lon="10.6185928"><ele>264.0</ele><time>2026-04-18T06:54:02.003Z</time></trkpt><trkpt lat="43.5120796" lon="10.6186999"><ele>264.0</ele><time>2026-04-18T06:54:03.002Z</time></trkpt><trkpt lat="43.5121883" lon="10.6187905"><ele>264.0</ele><time>2026-04-18T06:54:04.003Z</time></trkpt><trkpt lat="43.5123188" lon="10.6188755"><ele>261.0</ele><time>2026-04-18T06:54:05.002Z</time></trkpt><trkpt lat="43.5124828" lon="10.6189641"><ele>258.0</ele><time>2026-04-18T06:54:06.003Z</time></trkpt><trkpt lat="43.5126699" lon="10.6190512"><ele>255.0</ele><time>2026-04-18T06:54:07.002Z</time></trkpt><trkpt lat="43.5128576" lon="10.6191414"><ele>252.0</ele><time>2026-04-18T06:54:08.003Z</time></trkpt><trkpt lat="43.5130344" lon="10.6192298"><ele>249.0</ele><time>2026-04-18T06:54:09.003Z</time></trkpt><trkpt lat="43.5132072" lon="10.6193167"><ele>246.0</ele><time>2026-04-18T06:54:10.003Z</time></trkpt><trkpt lat="43.5133798" lon="10.6193978"><ele>246.0</ele><time>2026-04-18T06:54:11.003Z</time></trkpt><trkpt lat="43.5135487" lon="10.6194819"><ele>246.0</ele><time>2026-04-18T06:54:12.003Z</time></trkpt><trkpt lat="43.5137123" lon="10.6195527"><ele>246.0</ele><time>2026-04-18T06:54:13.002Z</time></trkpt><trkpt lat="43.5138396" lon="10.6196153"><ele>244.0</ele><time>2026-04-18T06:54:14.003Z</time></trkpt><trkpt lat="43.5139424" lon="10.6196733"><ele>242.00000000000003</ele><time>2026-04-18T06:54:15.003Z</time></trkpt><trkpt lat="43.5140145" lon="10.619751"><ele>240.00000000000003</ele><time>2026-04-18T06:54:16.003Z</time></trkpt><trkpt lat="43.5140704" lon="10.6198577"><ele>238.0</ele><time>2026-04-18T06:54:17.003Z</time></trkpt><trkpt lat="43.5140893" lon="10.6199761"><ele>236.0</ele><time>2026-04-18T06:54:18.002Z</time></trkpt><trkpt lat="43.5140674" lon="10.6200986"><ele>236.0</ele><time>2026-04-18T06:54:19.003Z</time></trkpt><trkpt lat="43.5140197" lon="10.6202467"><ele>236.0</ele><time>2026-04-18T06:54:20.002Z</time></trkpt><trkpt lat="43.5139449" lon="10.6204027"><ele>236.0</ele><time>2026-04-18T06:54:21.003Z</time></trkpt><trkpt lat="43.513841" lon="10.6205606"><ele>236.0</ele><time>2026-04-18T06:54:22.003Z</time></trkpt><trkpt lat="43.5137097" lon="10.620714"><ele>235.5</ele><time>2026-04-18T06:54:23.003Z</time></trkpt><trkpt lat="43.5135996" lon="10.6208585"><ele>235.0</ele><time>2026-04-18T06:54:24.003Z</time></trkpt><trkpt lat="43.5135063" lon="10.6209835"><ele>234.5</ele><time>2026-04-18T06:54:25.003Z</time></trkpt><trkpt lat="43.5134482" lon="10.621102"><ele>234.0</ele><time>2026-04-18T06:54:26.003Z</time></trkpt><trkpt lat="43.5134371" lon="10.6212163"><ele>232.39999999999998</ele><time>2026-04-18T06:54:27.002Z</time></trkpt><trkpt lat="43.5134477" lon="10.6213348"><ele>230.79999999999998</ele><time>2026-04-18T06:54:28.002Z</time></trkpt><trkpt lat="43.5134824" lon="10.6214577"><ele>229.20000000000002</ele><time>2026-04-18T06:54:29.002Z</time></trkpt><trkpt lat="43.5135644" lon="10.6215573"><ele>227.60000000000002</ele><time>2026-04-18T06:54:30.003Z</time></trkpt><trkpt lat="43.5136695" lon="10.6216003"><ele>226.0</ele><time>2026-04-18T06:54:31.003Z</time></trkpt><trkpt lat="43.5137933" lon="10.6216319"><ele>225.25</ele><time>2026-04-18T06:54:32.003Z</time></trkpt><trkpt lat="43.5139181" lon="10.6216693"><ele>224.5</ele><time>2026-04-18T06:54:33.003Z</time></trkpt><trkpt lat="43.5140438" lon="10.6217306"><ele>223.75</ele><time>2026-04-18T06:54:34.003Z</time></trkpt><trkpt lat="43.5141767" lon="10.6218236"><ele>223.0</ele><time>2026-04-18T06:54:35.003Z</time></trkpt><trkpt lat="43.5143243" lon="10.6219333"><ele>220.66666666666666</ele><time>2026-04-18T06:54:36.003Z</time></trkpt><trkpt lat="43.5145066" lon="10.622029"><ele>218.33333333333331</ele><time>2026-04-18T06:54:37.003Z</time></trkpt><trkpt lat="43.5146882" lon="10.6220983"><ele>216.0</ele><time>2026-04-18T06:54:38.002Z</time></trkpt><trkpt lat="43.5148526" lon="10.6221571"><ele>215.33333333333331</ele><time>2026-04-18T06:54:39.003Z</time></trkpt><trkpt lat="43.5150125" lon="10.6221873"><ele>214.66666666666666</ele><time>2026-04-18T06:54:40.003Z</time></trkpt><trkpt lat="43.5151609" lon="10.622212"><ele>214.0</ele><time>2026-04-18T06:54:41.002Z</time></trkpt><trkpt lat="43.5153106" lon="10.6222168"><ele>212.5</ele><time>2026-04-18T06:54:42.003Z</time></trkpt><trkpt lat="43.5154636" lon="10.6222254"><ele>211.0</ele><time>2026-04-18T06:54:43.003Z</time></trkpt><trkpt lat="43.5156126" lon="10.6222237"><ele>209.5</ele><time>2026-04-18T06:54:44.003Z</time></trkpt><trkpt lat="43.5157514" lon="10.6222217"><ele>208.0</ele><time>2026-04-18T06:54:45.003Z</time></trkpt><trkpt lat="43.5158924" lon="10.6222288"><ele>208.0</ele><time>2026-04-18T06:54:46.003Z</time></trkpt><trkpt lat="43.5160399" lon="10.6222576"><ele>208.0</ele><time>2026-04-18T06:54:47.002Z</time></trkpt><trkpt lat="43.5161897" lon="10.6223082"><ele>208.0</ele><time>2026-04-18T06:54:48.003Z</time></trkpt><trkpt lat="43.516322" lon="10.6223773"><ele>208.0</ele><time>2026-04-18T06:54:49.003Z</time></trkpt><trkpt lat="43.5164392" lon="10.6224787"><ele>206.33333333333331</ele><time>2026-04-18T06:54:50.003Z</time></trkpt><trkpt lat="43.5165504" lon="10.622598"><ele>204.66666666666669</ele><time>2026-04-18T06:54:51.002Z</time></trkpt><trkpt lat="43.5166505" lon="10.6227558"><ele>203.0</ele><time>2026-04-18T06:54:52.003Z</time></trkpt><trkpt lat="43.5167371" lon="10.6229434"><ele>202.66666666666669</ele><time>2026-04-18T06:54:53.003Z</time></trkpt><trkpt lat="43.5168043" lon="10.6231419"><ele>202.33333333333331</ele><time>2026-04-18T06:54:54.003Z</time></trkpt><trkpt lat="43.5168654" lon="10.6233484"><ele>202.0</ele><time>2026-04-18T06:54:55.002Z</time></trkpt><trkpt lat="43.5169191" lon="10.6235516"><ele>201.75</ele><time>2026-04-18T06:54:56.003Z</time></trkpt><trkpt lat="43.5169713" lon="10.6237437"><ele>201.5</ele><time>2026-04-18T06:54:57.003Z</time></trkpt><trkpt lat="43.5170382" lon="10.623901"><ele>201.25</ele><time>2026-04-18T06:54:58.003Z</time></trkpt><trkpt lat="43.5171312" lon="10.6240194"><ele>201.0</ele><time>2026-04-18T06:54:59.003Z</time></trkpt><trkpt lat="43.5172645" lon="10.6241057"><ele>198.0</ele><time>2026-04-18T06:55:00.003Z</time></trkpt><trkpt lat="43.5174002" lon="10.6241654"><ele>195.0</ele><time>2026-04-18T06:55:01.003Z</time></trkpt><trkpt lat="43.5175584" lon="10.6242046"><ele>192.0</ele><time>2026-04-18T06:55:02.003Z</time></trkpt><trkpt lat="43.5177258" lon="10.6242396"><ele>192.0</ele><time>2026-04-18T06:55:03.002Z</time></trkpt><trkpt lat="43.5178972" lon="10.6242839"><ele>192.0</ele><time>2026-04-18T06:55:04.003Z</time></trkpt><trkpt lat="43.5180649" lon="10.62432"><ele>192.0</ele><time>2026-04-18T06:55:05.003Z</time></trkpt><trkpt lat="43.5182293" lon="10.6243639"><ele>188.0</ele><time>2026-04-18T06:55:06.003Z</time></trkpt><trkpt lat="43.5183914" lon="10.6244131"><ele>184.0</ele><time>2026-04-18T06:55:07.003Z</time></trkpt><trkpt lat="43.5185504" lon="10.6244557"><ele>180.0</ele><time>2026-04-18T06:55:08.003Z</time></trkpt><trkpt lat="43.5187011" lon="10.6244992"><ele>178.0</ele><time>2026-04-18T06:55:09.002Z</time></trkpt><trkpt lat="43.5188391" lon="10.6245366"><ele>176.0</ele><time>2026-04-18T06:55:10.002Z</time></trkpt><trkpt lat="43.5189653" lon="10.6245686"><ele>174.0</ele><time>2026-04-18T06:55:11.003Z</time></trkpt><trkpt lat="43.5190725" lon="10.6245985"><ele>172.0</ele><time>2026-04-18T06:55:12.003Z</time></trkpt><trkpt lat="43.519175" lon="10.6246265"><ele>172.0</ele><time>2026-04-18T06:55:13.002Z</time></trkpt><trkpt lat="43.5192643" lon="10.6246542"><ele>172.0</ele><time>2026-04-18T06:55:14.003Z</time></trkpt><trkpt lat="43.5193379" lon="10.6246819"><ele>172.0</ele><time>2026-04-18T06:55:15.003Z</time></trkpt><trkpt lat="43.5193989" lon="10.6247195"><ele>172.0</ele><time>2026-04-18T06:55:16.003Z</time></trkpt><trkpt lat="43.5194721" lon="10.6247663"><ele>172.0</ele><time>2026-04-18T06:55:18.003Z</time></trkpt><trkpt lat="43.5195412" lon="10.6247769"><ele>172.0</ele><time>2026-04-18T06:55:20.002Z</time></trkpt><trkpt lat="43.5196628" lon="10.6248373"><ele>170.25</ele><time>2026-04-18T06:55:22.003Z</time></trkpt><trkpt lat="43.5197299" lon="10.624909"><ele>168.5</ele><time>2026-04-18T06:55:23.003Z</time></trkpt><trkpt lat="43.519821" lon="10.6250031"><ele>166.75</ele><time>2026-04-18T06:55:24.003Z</time></trkpt><trkpt lat="43.5199324" lon="10.6251076"><ele>165.0</ele><time>2026-04-18T06:55:25.003Z</time></trkpt><trkpt lat="43.5200596" lon="10.6252224"><ele>164.75</ele><time>2026-04-18T06:55:26.003Z</time></trkpt><trkpt lat="43.5201979" lon="10.6253341"><ele>164.5</ele><time>2026-04-18T06:55:27.003Z</time></trkpt><trkpt lat="43.520325" lon="10.6254328"><ele>164.25</ele><time>2026-04-18T06:55:28.003Z</time></trkpt><trkpt lat="43.5204259" lon="10.6255032"><ele>164.0</ele><time>2026-04-18T06:55:29.003Z</time></trkpt><trkpt lat="43.5205071" lon="10.6255866"><ele>164.0</ele><time>2026-04-18T06:55:30.003Z</time></trkpt><trkpt lat="43.5205657" lon="10.6256834"><ele>164.0</ele><time>2026-04-18T06:55:31.003Z</time></trkpt><trkpt lat="43.5206194" lon="10.6258081"><ele>164.0</ele><time>2026-04-18T06:55:32.003Z</time></trkpt><trkpt lat="43.5206681" lon="10.6259787"><ele>164.0</ele><time>2026-04-18T06:55:33.003Z</time></trkpt><trkpt lat="43.5207196" lon="10.6261166"><ele>164.0</ele><time>2026-04-18T06:55:34.003Z</time></trkpt><trkpt lat="43.5207639" lon="10.6262057"><ele>164.0</ele><time>2026-04-18T06:55:35.003Z</time></trkpt><trkpt lat="43.5208242" lon="10.6262718"><ele>164.0</ele><time>2026-04-18T06:55:36.003Z</time></trkpt><trkpt lat="43.5208947" lon="10.6263281"><ele>164.0</ele><time>2026-04-18T06:55:37.003Z</time></trkpt><trkpt lat="43.5209902" lon="10.6263799"><ele>164.0</ele><time>2026-04-18T06:55:38.002Z</time></trkpt><trkpt lat="43.5211106" lon="10.6264483"><ele>164.0</ele><time>2026-04-18T06:55:39.003Z</time></trkpt><trkpt lat="43.5212393" lon="10.6265287"><ele>163.25</ele><time>2026-04-18T06:55:40.003Z</time></trkpt><trkpt lat="43.5213669" lon="10.6266037"><ele>162.5</ele><time>2026-04-18T06:55:41.003Z</time></trkpt><trkpt lat="43.5214936" lon="10.6266937"><ele>161.75</ele><time>2026-04-18T06:55:42.003Z</time></trkpt><trkpt lat="43.5216196" lon="10.6267782"><ele>161.0</ele><time>2026-04-18T06:55:43.003Z</time></trkpt><trkpt lat="43.5217367" lon="10.6268494"><ele>161.0</ele><time>2026-04-18T06:55:44.003Z</time></trkpt><trkpt lat="43.5218521" lon="10.6269025"><ele>161.0</ele><time>2026-04-18T06:55:45.003Z</time></trkpt><trkpt lat="43.5219765" lon="10.626956"><ele>161.0</ele><time>2026-04-18T06:55:46.003Z</time></trkpt><trkpt lat="43.5221302" lon="10.627005"><ele>161.0</ele><time>2026-04-18T06:55:47.003Z</time></trkpt><trkpt lat="43.5222991" lon="10.6270557"><ele>159.66666666666666</ele><time>2026-04-18T06:55:48.003Z</time></trkpt><trkpt lat="43.5224866" lon="10.6271122"><ele>158.33333333333334</ele><time>2026-04-18T06:55:49.003Z</time></trkpt><trkpt lat="43.5226522" lon="10.6271552"><ele>157.0</ele><time>2026-04-18T06:55:50.003Z</time></trkpt><trkpt lat="43.5227879" lon="10.6271969"><ele>155.6</ele><time>2026-04-18T06:55:51.003Z</time></trkpt><trkpt lat="43.5229039" lon="10.627234"><ele>154.2</ele><time>2026-04-18T06:55:52.002Z</time></trkpt><trkpt lat="43.5230085" lon="10.6272686"><ele>152.8</ele><time>2026-04-18T06:55:53.003Z</time></trkpt><trkpt lat="43.5230951" lon="10.6273057"><ele>151.4</ele><time>2026-04-18T06:55:54.002Z</time></trkpt><trkpt lat="43.5231784" lon="10.6273419"><ele>150.0</ele><time>2026-04-18T06:55:55.003Z</time></trkpt><trkpt lat="43.523257" lon="10.627414"><ele>150.0</ele><time>2026-04-18T06:55:56.003Z</time></trkpt><trkpt lat="43.5233215" lon="10.6274968"><ele>150.0</ele><time>2026-04-18T06:55:57.003Z</time></trkpt><trkpt lat="43.5233849" lon="10.6275999"><ele>150.0</ele><time>2026-04-18T06:55:58.003Z</time></trkpt><trkpt lat="43.5234456" lon="10.627704"><ele>150.0</ele><time>2026-04-18T06:55:59.002Z</time></trkpt><trkpt lat="43.5235208" lon="10.6277703"><ele>150.0</ele><time>2026-04-18T06:56:00.002Z</time></trkpt><trkpt lat="43.5236145" lon="10.6277936"><ele>150.0</ele><time>2026-04-18T06:56:01.003Z</time></trkpt><trkpt lat="43.5237051" lon="10.627792"><ele>150.0</ele><time>2026-04-18T06:56:02.003Z</time></trkpt><trkpt lat="43.5237893" lon="10.627786"><ele>150.0</ele><time>2026-04-18T06:56:03.003Z</time></trkpt><trkpt lat="43.5238842" lon="10.6277803"><ele>150.0</ele><time>2026-04-18T06:56:04.003Z</time></trkpt><trkpt lat="43.5239769" lon="10.6277936"><ele>150.0</ele><time>2026-04-18T06:56:05.003Z</time></trkpt><trkpt lat="43.5240566" lon="10.6278047"><ele>150.0</ele><time>2026-04-18T06:56:06.003Z</time></trkpt><trkpt lat="43.5241191" lon="10.6278164"><ele>149.0</ele><time>2026-04-18T06:56:07.003Z</time></trkpt><trkpt lat="43.5242091" lon="10.62782"><ele>148.0</ele><time>2026-04-18T06:56:09.003Z</time></trkpt><trkpt lat="43.5242854" lon="10.6277154"><ele>147.0</ele><time>2026-04-18T06:56:11.003Z</time></trkpt><trkpt lat="43.5243377" lon="10.6276539"><ele>146.0</ele><time>2026-04-18T06:56:12.003Z</time></trkpt><trkpt lat="43.5243967" lon="10.6275985"><ele>145.0</ele><time>2026-04-18T06:56:13.003Z</time></trkpt><trkpt lat="43.5244784" lon="10.6275768"><ele>144.0</ele><time>2026-04-18T06:56:14.003Z</time></trkpt><trkpt lat="43.5245755" lon="10.6275678"><ele>143.2</ele><time>2026-04-18T06:56:15.003Z</time></trkpt><trkpt lat="43.5246818" lon="10.6275578"><ele>142.4</ele><time>2026-04-18T06:56:16.003Z</time></trkpt><trkpt lat="43.5247795" lon="10.6275446"><ele>141.6</ele><time>2026-04-18T06:56:17.003Z</time></trkpt><trkpt lat="43.524873" lon="10.6275377"><ele>140.8</ele><time>2026-04-18T06:56:18.002Z</time></trkpt><trkpt lat="43.5249575" lon="10.6275154"><ele>140.0</ele><time>2026-04-18T06:56:19.002Z</time></trkpt><trkpt lat="43.5250491" lon="10.6274854"><ele>140.0</ele><time>2026-04-18T06:56:20.003Z</time></trkpt><trkpt lat="43.5251521" lon="10.627451"><ele>140.0</ele><time>2026-04-18T06:56:21.002Z</time></trkpt><trkpt lat="43.5252411" lon="10.6274217"><ele>140.0</ele><time>2026-04-18T06:56:22.003Z</time></trkpt><trkpt lat="43.5253445" lon="10.627372"><ele>140.0</ele><time>2026-04-18T06:56:23.003Z</time></trkpt><trkpt lat="43.5254498" lon="10.6273023"><ele>140.0</ele><time>2026-04-18T06:56:24.003Z</time></trkpt><trkpt lat="43.5255408" lon="10.6272404"><ele>140.0</ele><time>2026-04-18T06:56:25.003Z</time></trkpt><trkpt lat="43.5256311" lon="10.6271849"><ele>140.0</ele><time>2026-04-18T06:56:26.003Z</time></trkpt><trkpt lat="43.5257215" lon="10.6271198"><ele>140.0</ele><time>2026-04-18T06:56:27.003Z</time></trkpt><trkpt lat="43.5258161" lon="10.6270582"><ele>140.0</ele><time>2026-04-18T06:56:28.003Z</time></trkpt><trkpt lat="43.5259149" lon="10.6270052"><ele>140.0</ele><time>2026-04-18T06:56:29.002Z</time></trkpt><trkpt lat="43.5260199" lon="10.6269689"><ele>139.6</ele><time>2026-04-18T06:56:30.002Z</time></trkpt><trkpt lat="43.5261267" lon="10.6269394"><ele>139.2</ele><time>2026-04-18T06:56:31.003Z</time></trkpt><trkpt lat="43.5262371" lon="10.6269115"><ele>138.8</ele><time>2026-04-18T06:56:32.003Z</time></trkpt><trkpt lat="43.5263287" lon="10.6268844"><ele>138.4</ele><time>2026-04-18T06:56:33.003Z</time></trkpt><trkpt lat="43.526413" lon="10.6268553"><ele>138.0</ele><time>2026-04-18T06:56:34.003Z</time></trkpt><trkpt lat="43.5264973" lon="10.6268265"><ele>137.6</ele><time>2026-04-18T06:56:35.003Z</time></trkpt><trkpt lat="43.5265858" lon="10.6268028"><ele>137.20000000000002</ele><time>2026-04-18T06:56:36.002Z</time></trkpt><trkpt lat="43.5266742" lon="10.6267975"><ele>136.8</ele><time>2026-04-18T06:56:37.003Z</time></trkpt><trkpt lat="43.5267633" lon="10.6267851"><ele>136.4</ele><time>2026-04-18T06:56:38.003Z</time></trkpt><trkpt lat="43.52685" lon="10.6267636"><ele>136.0</ele><time>2026-04-18T06:56:39.003Z</time></trkpt><trkpt lat="43.5269495" lon="10.6267234"><ele>136.0</ele><time>2026-04-18T06:56:40.003Z</time></trkpt><trkpt lat="43.5270243" lon="10.6266877"><ele>136.0</ele><time>2026-04-18T06:56:41.002Z</time></trkpt><trkpt lat="43.5270934" lon="10.6266298"><ele>136.0</ele><time>2026-04-18T06:56:42.003Z</time></trkpt><trkpt lat="43.527158" lon="10.6265625"><ele>136.0</ele><time>2026-04-18T06:56:43.003Z</time></trkpt><trkpt lat="43.527225" lon="10.6264725"><ele>136.0</ele><time>2026-04-18T06:56:44.003Z</time></trkpt><trkpt lat="43.5272847" lon="10.6263952"><ele>136.0</ele><time>2026-04-18T06:56:45.003Z</time></trkpt><trkpt lat="43.5273769" lon="10.6263121"><ele>134.83333333333334</ele><time>2026-04-18T06:56:47.003Z</time></trkpt><trkpt lat="43.5274594" lon="10.6262784"><ele>133.66666666666669</ele><time>2026-04-18T06:56:49.003Z</time></trkpt><trkpt lat="43.5275493" lon="10.6262904"><ele>132.5</ele><time>2026-04-18T06:56:52.003Z</time></trkpt><trkpt lat="43.5276412" lon="10.6262992"><ele>131.33333333333334</ele><time>2026-04-18T06:56:54.003Z</time></trkpt><trkpt lat="43.527752" lon="10.6263033"><ele>130.16666666666666</ele><time>2026-04-18T06:56:56.003Z</time></trkpt><trkpt lat="43.5278194" lon="10.6263054"><ele>129.0</ele><time>2026-04-18T06:56:58.003Z</time></trkpt><trkpt lat="43.5278919" lon="10.626317"><ele>128.0</ele><time>2026-04-18T06:57:01.002Z</time></trkpt><trkpt lat="43.5279574" lon="10.626316"><ele>127.0</ele><time>2026-04-18T06:57:02.002Z</time></trkpt><trkpt lat="43.5280275" lon="10.6263145"><ele>126.0</ele><time>2026-04-18T06:57:03.003Z</time></trkpt><trkpt lat="43.5281053" lon="10.6263048"><ele>125.0</ele><time>2026-04-18T06:57:04.003Z</time></trkpt><trkpt lat="43.5281878" lon="10.6262816"><ele>124.0</ele><time>2026-04-18T06:57:05.002Z</time></trkpt><trkpt lat="43.5282766" lon="10.6262612"><ele>123.0</ele><time>2026-04-18T06:57:07.003Z</time></trkpt><trkpt lat="43.5284051" lon="10.6262791"><ele>123.0</ele><time>2026-04-18T06:57:09.003Z</time></trkpt><trkpt lat="43.5284771" lon="10.6263101"><ele>123.0</ele><time>2026-04-18T06:57:10.002Z</time></trkpt><trkpt lat="43.5285514" lon="10.6263409"><ele>123.0</ele><time>2026-04-18T06:57:11.003Z</time></trkpt><trkpt lat="43.5286294" lon="10.6263698"><ele>123.0</ele><time>2026-04-18T06:57:12.003Z</time></trkpt><trkpt lat="43.5287124" lon="10.6263944"><ele>123.0</ele><time>2026-04-18T06:57:13.003Z</time></trkpt><trkpt lat="43.5288025" lon="10.6264181"><ele>123.0</ele><time>2026-04-18T06:57:14.003Z</time></trkpt><trkpt lat="43.5288895" lon="10.6264239"><ele>123.16666666666667</ele><time>2026-04-18T06:57:15.003Z</time></trkpt><trkpt lat="43.5289718" lon="10.6264117"><ele>123.33333333333334</ele><time>2026-04-18T06:57:16.003Z</time></trkpt><trkpt lat="43.5290579" lon="10.6263768"><ele>123.5</ele><time>2026-04-18T06:57:17.002Z</time></trkpt><trkpt lat="43.5291439" lon="10.6263302"><ele>123.66666666666667</ele><time>2026-04-18T06:57:18.003Z</time></trkpt><trkpt lat="43.5292161" lon="10.6262867"><ele>123.83333333333334</ele><time>2026-04-18T06:57:19.003Z</time></trkpt><trkpt lat="43.5292759" lon="10.6262576"><ele>124.0</ele><time>2026-04-18T06:57:20.003Z</time></trkpt><trkpt lat="43.529344" lon="10.626247"><ele>124.0</ele><time>2026-04-18T06:57:21.003Z</time></trkpt><trkpt lat="43.5294336" lon="10.6262561"><ele>124.0</ele><time>2026-04-18T06:57:22.003Z</time></trkpt><trkpt lat="43.529547" lon="10.6262479"><ele>124.0</ele><time>2026-04-18T06:57:23.002Z</time></trkpt><trkpt lat="43.5296597" lon="10.6262114"><ele>124.0</ele><time>2026-04-18T06:57:24.002Z</time></trkpt><trkpt lat="43.5297932" lon="10.6261618"><ele>122.6</ele><time>2026-04-18T06:57:25.002Z</time></trkpt><trkpt lat="43.5299378" lon="10.6261244"><ele>121.2</ele><time>2026-04-18T06:57:26.003Z</time></trkpt><trkpt lat="43.5300466" lon="10.6260984"><ele>119.79999999999998</ele><time>2026-04-18T06:57:27.003Z</time></trkpt><trkpt lat="43.5301107" lon="10.6260903"><ele>118.39999999999999</ele><time>2026-04-18T06:57:28.002Z</time></trkpt><trkpt lat="43.5302343" lon="10.6261051"><ele>117.0</ele><time>2026-04-18T06:57:30.002Z</time></trkpt><trkpt lat="43.5303285" lon="10.6261069"><ele>117.0</ele><time>2026-04-18T06:57:31.003Z</time></trkpt><trkpt lat="43.5304455" lon="10.6261204"><ele>117.0</ele><time>2026-04-18T06:57:32.003Z</time></trkpt><trkpt lat="43.530573" lon="10.6261374"><ele>117.0</ele><time>2026-04-18T06:57:33.003Z</time></trkpt><trkpt lat="43.5306962" lon="10.6261571"><ele>117.0</ele><time>2026-04-18T06:57:34.003Z</time></trkpt><trkpt lat="43.5308243" lon="10.6261777"><ele>117.0</ele><time>2026-04-18T06:57:35.003Z</time></trkpt><trkpt lat="43.5309387" lon="10.6261888"><ele>116.99999999999999</ele><time>2026-04-18T06:57:36.002Z</time></trkpt><trkpt lat="43.531046" lon="10.6261956"><ele>116.99999999999999</ele><time>2026-04-18T06:57:37.003Z</time></trkpt><trkpt lat="43.5311484" lon="10.6262234"><ele>117.0</ele><time>2026-04-18T06:57:38.003Z</time></trkpt><trkpt lat="43.5312376" lon="10.6262504"><ele>117.0</ele><time>2026-04-18T06:57:39.002Z</time></trkpt><trkpt lat="43.5313181" lon="10.6262702"><ele>118.6</ele><time>2026-04-18T06:57:40.003Z</time></trkpt><trkpt lat="43.5314002" lon="10.6262939"><ele>120.19999999999999</ele><time>2026-04-18T06:57:41.002Z</time></trkpt><trkpt lat="43.5314935" lon="10.6263126"><ele>121.8</ele><time>2026-04-18T06:57:42.003Z</time></trkpt><trkpt lat="43.5315936" lon="10.626329"><ele>123.4</ele><time>2026-04-18T06:57:43.003Z</time></trkpt><trkpt lat="43.5317034" lon="10.6263385"><ele>125.0</ele><time>2026-04-18T06:57:44.003Z</time></trkpt><trkpt lat="43.5317992" lon="10.6263513"><ele>124.99999999999999</ele><time>2026-04-18T06:57:45.002Z</time></trkpt><trkpt lat="43.5318904" lon="10.6263773"><ele>125.0</ele><time>2026-04-18T06:57:46.003Z</time></trkpt><trkpt lat="43.5319642" lon="10.6264083"><ele>125.0</ele><time>2026-04-18T06:57:47.002Z</time></trkpt><trkpt lat="43.5320777" lon="10.6264659"><ele>125.0</ele><time>2026-04-18T06:57:49.002Z</time></trkpt><trkpt lat="43.5321433" lon="10.6264915"><ele>124.99999999999999</ele><time>2026-04-18T06:57:50.003Z</time></trkpt><trkpt lat="43.5322194" lon="10.6265214"><ele>125.0</ele><time>2026-04-18T06:57:51.003Z</time></trkpt><trkpt lat="43.532286" lon="10.6265452"><ele>124.99999999999999</ele><time>2026-04-18T06:57:52.003Z</time></trkpt><trkpt lat="43.5323904" lon="10.6265798"><ele>125.0</ele><time>2026-04-18T06:57:54.003Z</time></trkpt><trkpt lat="43.532442" lon="10.6266488"><ele>125.0</ele><time>2026-04-18T06:57:56.003Z</time></trkpt><trkpt lat="43.5324825" lon="10.6267365"><ele>125.0</ele><time>2026-04-18T06:57:58.003Z</time></trkpt><trkpt lat="43.5325469" lon="10.6267892"><ele>124.99999999999999</ele><time>2026-04-18T06:58:01.003Z</time></trkpt><trkpt lat="43.5326114" lon="10.62684"><ele>125.0</ele><time>2026-04-18T06:58:03.003Z</time></trkpt><trkpt lat="43.5327158" lon="10.6268621"><ele>124.99999999999999</ele><time>2026-04-18T06:58:05.003Z</time></trkpt><trkpt lat="43.532812" lon="10.6268812"><ele>125.0</ele><time>2026-04-18T06:58:07.003Z</time></trkpt><trkpt lat="43.5328982" lon="10.6269176"><ele>125.0</ele><time>2026-04-18T06:58:09.003Z</time></trkpt><trkpt lat="43.5329619" lon="10.6269494"><ele>125.0</ele><time>2026-04-18T06:58:10.003Z</time></trkpt><trkpt lat="43.5330391" lon="10.6269649"><ele>124.99999999999999</ele><time>2026-04-18T06:58:11.003Z</time></trkpt><trkpt lat="43.5331239" lon="10.6269727"><ele>125.0</ele><time>2026-04-18T06:58:12.003Z</time></trkpt><trkpt lat="43.5332086" lon="10.6269696"><ele>124.2</ele><time>2026-04-18T06:58:13.002Z</time></trkpt><trkpt lat="43.5332924" lon="10.6269698"><ele>123.4</ele><time>2026-04-18T06:58:14.003Z</time></trkpt><trkpt lat="43.5333653" lon="10.6269722"><ele>122.6</ele><time>2026-04-18T06:58:15.002Z</time></trkpt><trkpt lat="43.5334959" lon="10.6269368"><ele>121.8</ele><time>2026-04-18T06:58:17.003Z</time></trkpt><trkpt lat="43.5335773" lon="10.6268857"><ele>121.0</ele><time>2026-04-18T06:58:18.002Z</time></trkpt><trkpt lat="43.5336579" lon="10.6268208"><ele>121.33333333333334</ele><time>2026-04-18T06:58:19.003Z</time></trkpt><trkpt lat="43.5337365" lon="10.6267599"><ele>121.66666666666667</ele><time>2026-04-18T06:58:20.003Z</time></trkpt><trkpt lat="43.5338161" lon="10.626707"><ele>122.0</ele><time>2026-04-18T06:58:21.003Z</time></trkpt><trkpt lat="43.5338919" lon="10.626665"><ele>122.33333333333334</ele><time>2026-04-18T06:58:22.002Z</time></trkpt><trkpt lat="43.5339599" lon="10.6266139"><ele>122.66666666666667</ele><time>2026-04-18T06:58:23.003Z</time></trkpt><trkpt lat="43.5340292" lon="10.6265333"><ele>123.0</ele><time>2026-04-18T06:58:24.003Z</time></trkpt><trkpt lat="43.5340932" lon="10.6264418"><ele>123.0</ele><time>2026-04-18T06:58:25.003Z</time></trkpt><trkpt lat="43.534149" lon="10.6263567"><ele>123.00000000000001</ele><time>2026-04-18T06:58:26.003Z</time></trkpt><trkpt lat="43.5342079" lon="10.6262479"><ele>123.00000000000001</ele><time>2026-04-18T06:58:27.003Z</time></trkpt><trkpt lat="43.5342705" lon="10.6261321"><ele>123.0</ele><time>2026-04-18T06:58:28.003Z</time></trkpt><trkpt lat="43.5343192" lon="10.6260255"><ele>123.0</ele><time>2026-04-18T06:58:29.003Z</time></trkpt><trkpt lat="43.5343604" lon="10.625939"><ele>122.5</ele><time>2026-04-18T06:58:30.003Z</time></trkpt><trkpt lat="43.5344029" lon="10.625858"><ele>122.0</ele><time>2026-04-18T06:58:31.003Z</time></trkpt><trkpt lat="43.5344528" lon="10.6257822"><ele>121.5</ele><time>2026-04-18T06:58:32.003Z</time></trkpt><trkpt lat="43.5344989" lon="10.6257174"><ele>121.0</ele><time>2026-04-18T06:58:33.003Z</time></trkpt><trkpt lat="43.534562" lon="10.6256412"><ele>120.5</ele><time>2026-04-18T06:58:34.003Z</time></trkpt><trkpt lat="43.5346425" lon="10.6255717"><ele>120.0</ele><time>2026-04-18T06:58:35.003Z</time></trkpt><trkpt lat="43.5347264" lon="10.6255178"><ele>119.16666666666667</ele><time>2026-04-18T06:58:36.003Z</time></trkpt><trkpt lat="43.5348113" lon="10.6254619"><ele>118.33333333333334</ele><time>2026-04-18T06:58:37.003Z</time></trkpt><trkpt lat="43.534873" lon="10.6254098"><ele>117.5</ele><time>2026-04-18T06:58:38.003Z</time></trkpt><trkpt lat="43.5349369" lon="10.625367"><ele>116.66666666666667</ele><time>2026-04-18T06:58:39.003Z</time></trkpt><trkpt lat="43.535003" lon="10.6253216"><ele>115.83333333333334</ele><time>2026-04-18T06:58:40.002Z</time></trkpt><trkpt lat="43.5350757" lon="10.625273"><ele>115.0</ele><time>2026-04-18T06:58:41.003Z</time></trkpt><trkpt lat="43.5351486" lon="10.6252307"><ele>114.83333333333334</ele><time>2026-04-18T06:58:42.002Z</time></trkpt><trkpt lat="43.5352181" lon="10.6251828"><ele>114.66666666666667</ele><time>2026-04-18T06:58:43.003Z</time></trkpt><trkpt lat="43.5352975" lon="10.6251281"><ele>114.5</ele><time>2026-04-18T06:58:44.003Z</time></trkpt><trkpt lat="43.5353779" lon="10.6250781"><ele>114.33333333333334</ele><time>2026-04-18T06:58:45.003Z</time></trkpt><trkpt lat="43.5354598" lon="10.625028"><ele>114.16666666666667</ele><time>2026-04-18T06:58:46.003Z</time></trkpt><trkpt lat="43.5355304" lon="10.6249793"><ele>114.0</ele><time>2026-04-18T06:58:47.003Z</time></trkpt><trkpt lat="43.5356228" lon="10.6249344"><ele>113.28571428571428</ele><time>2026-04-18T06:58:49.003Z</time></trkpt><trkpt lat="43.5357146" lon="10.6249171"><ele>112.57142857142856</ele><time>2026-04-18T06:58:51.003Z</time></trkpt><trkpt lat="43.5357802" lon="10.6249001"><ele>111.85714285714286</ele><time>2026-04-18T06:58:52.003Z</time></trkpt><trkpt lat="43.5358636" lon="10.6248807"><ele>111.14285714285714</ele><time>2026-04-18T06:58:53.003Z</time></trkpt><trkpt lat="43.5359368" lon="10.6248753"><ele>110.42857142857143</ele><time>2026-04-18T06:58:54.002Z</time></trkpt><trkpt lat="43.5359994" lon="10.6248876"><ele>109.71428571428572</ele><time>2026-04-18T06:58:55.003Z</time></trkpt><trkpt lat="43.5360608" lon="10.624916"><ele>109.0</ele><time>2026-04-18T06:58:56.003Z</time></trkpt><trkpt lat="43.5361221" lon="10.6249437"><ele>108.0</ele><time>2026-04-18T06:58:57.002Z</time></trkpt><trkpt lat="43.5362264" lon="10.6249798"><ele>107.0</ele><time>2026-04-18T06:58:59.003Z</time></trkpt><trkpt lat="43.5362911" lon="10.6249929"><ele>106.0</ele><time>2026-04-18T06:59:00.003Z</time></trkpt><trkpt lat="43.5363624" lon="10.6250022"><ele>105.0</ele><time>2026-04-18T06:59:01.003Z</time></trkpt><trkpt lat="43.5364626" lon="10.6250075"><ele>104.0</ele><time>2026-04-18T06:59:02.003Z</time></trkpt><trkpt lat="43.5365751" lon="10.6250159"><ele>103.99999999999999</ele><time>2026-04-18T06:59:03.003Z</time></trkpt><trkpt lat="43.5366549" lon="10.6250398"><ele>104.0</ele><time>2026-04-18T06:59:04.002Z</time></trkpt><trkpt lat="43.5367799" lon="10.6250755"><ele>104.0</ele><time>2026-04-18T06:59:06.003Z</time></trkpt><trkpt lat="43.5368451" lon="10.6250946"><ele>104.0</ele><time>2026-04-18T06:59:07.003Z</time></trkpt><trkpt lat="43.5369122" lon="10.625116"><ele>103.99999999999999</ele><time>2026-04-18T06:59:08.003Z</time></trkpt><trkpt lat="43.5369843" lon="10.6251362"><ele>104.0</ele><time>2026-04-18T06:59:09.003Z</time></trkpt><trkpt lat="43.5370742" lon="10.6251647"><ele>103.0</ele><time>2026-04-18T06:59:10.003Z</time></trkpt><trkpt lat="43.5371692" lon="10.6251922"><ele>102.0</ele><time>2026-04-18T06:59:11.003Z</time></trkpt><trkpt lat="43.5372771" lon="10.6252201"><ele>101.0</ele><time>2026-04-18T06:59:12.003Z</time></trkpt><trkpt lat="43.5373879" lon="10.6252546"><ele>100.0</ele><time>2026-04-18T06:59:13.002Z</time></trkpt><trkpt lat="43.5374872" lon="10.6252927"><ele>99.0</ele><time>2026-04-18T06:59:14.003Z</time></trkpt><trkpt lat="43.537556" lon="10.6253191"><ele>99.33333333333333</ele><time>2026-04-18T06:59:15.003Z</time></trkpt><trkpt lat="43.5376298" lon="10.6253669"><ele>99.66666666666666</ele><time>2026-04-18T06:59:17.003Z</time></trkpt><trkpt lat="43.5377002" lon="10.6253984"><ele>100.0</ele><time>2026-04-18T06:59:20.003Z</time></trkpt><trkpt lat="43.537777" lon="10.6254104"><ele>100.33333333333333</ele><time>2026-04-18T06:59:22.002Z</time></trkpt><trkpt lat="43.5378482" lon="10.6254277"><ele>100.66666666666666</ele><time>2026-04-18T06:59:24.003Z</time></trkpt><trkpt lat="43.537922" lon="10.6254349"><ele>101.0</ele><time>2026-04-18T06:59:27.003Z</time></trkpt><trkpt lat="43.5380125" lon="10.6254543"><ele>101.0</ele><time>2026-04-18T06:59:29.003Z</time></trkpt><trkpt lat="43.5380881" lon="10.6254534"><ele>101.0</ele><time>2026-04-18T06:59:30.003Z</time></trkpt><trkpt lat="43.5381736" lon="10.6254398"><ele>101.0</ele><time>2026-04-18T06:59:31.003Z</time></trkpt><trkpt lat="43.5382716" lon="10.6254051"><ele>101.0</ele><time>2026-04-18T06:59:32.003Z</time></trkpt><trkpt lat="43.5383644" lon="10.6253222"><ele>101.0</ele><time>2026-04-18T06:59:33.002Z</time></trkpt><trkpt lat="43.5384509" lon="10.6252402"><ele>101.19999999999999</ele><time>2026-04-18T06:59:34.003Z</time></trkpt><trkpt lat="43.5385257" lon="10.6251502"><ele>101.39999999999999</ele><time>2026-04-18T06:59:35.003Z</time></trkpt><trkpt lat="43.5385884" lon="10.6250618"><ele>101.6</ele><time>2026-04-18T06:59:36.002Z</time></trkpt><trkpt lat="43.5386638" lon="10.6249743"><ele>101.8</ele><time>2026-04-18T06:59:37.003Z</time></trkpt><trkpt lat="43.5387353" lon="10.6248738"><ele>102.0</ele><time>2026-04-18T06:59:38.003Z</time></trkpt><trkpt lat="43.5387946" lon="10.6247746"><ele>103.14285714285714</ele><time>2026-04-18T06:59:39.003Z</time></trkpt><trkpt lat="43.538843" lon="10.6247003"><ele>104.28571428571429</ele><time>2026-04-18T06:59:40.003Z</time></trkpt><trkpt lat="43.5388977" lon="10.6246265"><ele>105.42857142857142</ele><time>2026-04-18T06:59:41.003Z</time></trkpt><trkpt lat="43.5389518" lon="10.6245415"><ele>106.57142857142857</ele><time>2026-04-18T06:59:42.003Z</time></trkpt><trkpt lat="43.5390006" lon="10.6244695"><ele>107.71428571428571</ele><time>2026-04-18T06:59:43.003Z</time></trkpt><trkpt lat="43.5390522" lon="10.6243981"><ele>108.85714285714285</ele><time>2026-04-18T06:59:44.003Z</time></trkpt><trkpt lat="43.5391039" lon="10.6243288"><ele>110.0</ele><time>2026-04-18T06:59:45.003Z</time></trkpt><trkpt lat="43.539147" lon="10.6242636"><ele>109.99999999999999</ele><time>2026-04-18T06:59:46.002Z</time></trkpt><trkpt lat="43.5391796" lon="10.6241818"><ele>110.0</ele><time>2026-04-18T06:59:48.002Z</time></trkpt><trkpt lat="43.5392178" lon="10.624097"><ele>110.0</ele><time>2026-04-18T06:59:51.002Z</time></trkpt><trkpt lat="43.5392577" lon="10.6240043"><ele>110.0</ele><time>2026-04-18T06:59:55.003Z</time></trkpt><trkpt lat="43.5392587" lon="10.623905"><ele>110.0</ele><time>2026-04-18T07:00:06.003Z</time></trkpt><trkpt lat="43.5392353" lon="10.6238236"><ele>109.99999999999999</ele><time>2026-04-18T07:00:11.003Z</time></trkpt><trkpt lat="43.539267" lon="10.6237402"><ele>110.0</ele><time>2026-04-18T07:00:20.003Z</time></trkpt><trkpt lat="43.5393309" lon="10.6237232"><ele>109.99999999999999</ele><time>2026-04-18T07:00:25.002Z</time></trkpt><trkpt lat="43.5394028" lon="10.6237303"><ele>110.0</ele><time>2026-04-18T07:00:30.003Z</time></trkpt><trkpt lat="43.5394738" lon="10.6237692"><ele>110.0</ele><time>2026-04-18T07:00:37.003Z</time></trkpt><trkpt lat="43.539538" lon="10.6238406"><ele>110.0</ele><time>2026-04-18T07:00:40.003Z</time></trkpt><trkpt lat="43.5395844" lon="10.6239081"><ele>109.99999999999999</ele><time>2026-04-18T07:00:42.003Z</time></trkpt><trkpt lat="43.5396584" lon="10.6240056"><ele>110.0</ele><time>2026-04-18T07:00:44.002Z</time></trkpt><trkpt lat="43.5397169" lon="10.6240649"><ele>110.4</ele><time>2026-04-18T07:00:45.003Z</time></trkpt><trkpt lat="43.5397699" lon="10.6241279"><ele>110.8</ele><time>2026-04-18T07:00:46.003Z</time></trkpt><trkpt lat="43.5398243" lon="10.6241987"><ele>111.19999999999999</ele><time>2026-04-18T07:00:47.003Z</time></trkpt><trkpt lat="43.539892" lon="10.6243103"><ele>111.6</ele><time>2026-04-18T07:00:48.003Z</time></trkpt><trkpt lat="43.5399798" lon="10.6244384"><ele>112.0</ele><time>2026-04-18T07:00:49.003Z</time></trkpt><trkpt lat="43.5400817" lon="10.6245549"><ele>112.0</ele><time>2026-04-18T07:00:50.003Z</time></trkpt><trkpt lat="43.5401808" lon="10.6246477"><ele>111.99999999999999</ele><time>2026-04-18T07:00:51.003Z</time></trkpt><trkpt lat="43.5402587" lon="10.6247336"><ele>111.99999999999999</ele><time>2026-04-18T07:00:52.003Z</time></trkpt><trkpt lat="43.5403171" lon="10.6248244"><ele>112.0</ele><time>2026-04-18T07:00:53.002Z</time></trkpt><trkpt lat="43.5403468" lon="10.6249249"><ele>112.0</ele><time>2026-04-18T07:00:54.003Z</time></trkpt><trkpt lat="43.5403536" lon="10.6250352"><ele>112.00000000000001</ele><time>2026-04-18T07:00:55.002Z</time></trkpt><trkpt lat="43.5403486" lon="10.6251667"><ele>112.0</ele><time>2026-04-18T07:00:56.003Z</time></trkpt><trkpt lat="43.5403659" lon="10.6252828"><ele>112.0</ele><time>2026-04-18T07:00:57.003Z</time></trkpt><trkpt lat="43.5404097" lon="10.6254016"><ele>112.0</ele><time>2026-04-18T07:00:58.003Z</time></trkpt><trkpt lat="43.5404639" lon="10.6255162"><ele>112.00000000000001</ele><time>2026-04-18T07:00:59.003Z</time></trkpt><trkpt lat="43.5404988" lon="10.6255988"><ele>112.0</ele><time>2026-04-18T07:01:00.003Z</time></trkpt><trkpt lat="43.5405084" lon="10.6257377"><ele>111.00000000000001</ele><time>2026-04-18T07:01:02.003Z</time></trkpt><trkpt lat="43.5404307" lon="10.6258609"><ele>110.0</ele><time>2026-04-18T07:01:04.003Z</time></trkpt><trkpt lat="43.5403633" lon="10.6259001"><ele>109.0</ele><time>2026-04-18T07:01:05.003Z</time></trkpt><trkpt lat="43.5403" lon="10.6259401"><ele>108.0</ele><time>2026-04-18T07:01:06.003Z</time></trkpt><trkpt lat="43.5402085" lon="10.6260115"><ele>107.00000000000001</ele><time>2026-04-18T07:01:08.003Z</time></trkpt><trkpt lat="43.5401515" lon="10.6260685"><ele>106.0</ele><time>2026-04-18T07:01:11.003Z</time></trkpt><trkpt lat="43.5400898" lon="10.6261463"><ele>103.8</ele><time>2026-04-18T07:01:15.002Z</time></trkpt><trkpt lat="43.5400496" lon="10.6262428"><ele>101.6</ele><time>2026-04-18T07:01:17.002Z</time></trkpt><trkpt lat="43.5401246" lon="10.626411"><ele>99.4</ele><time>2026-04-18T07:01:19.003Z</time></trkpt><trkpt lat="43.5401798" lon="10.6265263"><ele>97.2</ele><time>2026-04-18T07:01:20.002Z</time></trkpt><trkpt lat="43.5402382" lon="10.6266552"><ele>95.0</ele><time>2026-04-18T07:01:21.002Z</time></trkpt><trkpt lat="43.540301" lon="10.6268068"><ele>95.0</ele><time>2026-04-18T07:01:22.003Z</time></trkpt><trkpt lat="43.54038" lon="10.6269737"><ele>95.0</ele><time>2026-04-18T07:01:23.003Z</time></trkpt><trkpt lat="43.5404492" lon="10.6271266"><ele>95.0</ele><time>2026-04-18T07:01:24.003Z</time></trkpt><trkpt lat="43.5405095" lon="10.6272606"><ele>95.0</ele><time>2026-04-18T07:01:25.003Z</time></trkpt><trkpt lat="43.5405712" lon="10.6273952"><ele>92.75</ele><time>2026-04-18T07:01:26.002Z</time></trkpt><trkpt lat="43.5406425" lon="10.6275364"><ele>90.5</ele><time>2026-04-18T07:01:27.003Z</time></trkpt><trkpt lat="43.5407188" lon="10.6276871"><ele>88.25</ele><time>2026-04-18T07:01:28.003Z</time></trkpt><trkpt lat="43.5407956" lon="10.6278562"><ele>86.0</ele><time>2026-04-18T07:01:29.003Z</time></trkpt><trkpt lat="43.5408649" lon="10.6280106"><ele>84.39999999999999</ele><time>2026-04-18T07:01:30.003Z</time></trkpt><trkpt lat="43.540928" lon="10.6281453"><ele>82.8</ele><time>2026-04-18T07:01:31.003Z</time></trkpt><trkpt lat="43.5409796" lon="10.6282546"><ele>81.19999999999999</ele><time>2026-04-18T07:01:32.003Z</time></trkpt><trkpt lat="43.5410186" lon="10.6283616"><ele>79.6</ele><time>2026-04-18T07:01:33.002Z</time></trkpt><trkpt lat="43.5410536" lon="10.6284753"><ele>78.0</ele><time>2026-04-18T07:01:34.003Z</time></trkpt><trkpt lat="43.5411021" lon="10.628581"><ele>75.0</ele><time>2026-04-18T07:01:35.003Z</time></trkpt><trkpt lat="43.5411768" lon="10.6286979"><ele>72.0</ele><time>2026-04-18T07:01:36.003Z</time></trkpt><trkpt lat="43.5412559" lon="10.6288552"><ele>69.0</ele><time>2026-04-18T07:01:37.002Z</time></trkpt><trkpt lat="43.5413349" lon="10.629028"><ele>66.0</ele><time>2026-04-18T07:01:38.003Z</time></trkpt><trkpt lat="43.5414034" lon="10.6291793"><ele>65.8</ele><time>2026-04-18T07:01:39.003Z</time></trkpt><trkpt lat="43.5414699" lon="10.6293274"><ele>65.6</ele><time>2026-04-18T07:01:40.003Z</time></trkpt><trkpt lat="43.5415319" lon="10.6294747"><ele>65.4</ele><time>2026-04-18T07:01:41.003Z</time></trkpt><trkpt lat="43.5415859" lon="10.6295931"><ele>65.2</ele><time>2026-04-18T07:01:42.003Z</time></trkpt><trkpt lat="43.5416333" lon="10.629689"><ele>65.0</ele><time>2026-04-18T07:01:43.003Z</time></trkpt><trkpt lat="43.5416777" lon="10.6297893"><ele>63.6</ele><time>2026-04-18T07:01:44.003Z</time></trkpt><trkpt lat="43.5417694" lon="10.6298556"><ele>62.2</ele><time>2026-04-18T07:01:46.003Z</time></trkpt><trkpt lat="43.5418294" lon="10.6298243"><ele>60.8</ele><time>2026-04-18T07:01:47.002Z</time></trkpt><trkpt lat="43.5418966" lon="10.6297453"><ele>59.4</ele><time>2026-04-18T07:01:48.002Z</time></trkpt><trkpt lat="43.541986" lon="10.6296242"><ele>58.0</ele><time>2026-04-18T07:01:49.003Z</time></trkpt><trkpt lat="43.5420896" lon="10.6294895"><ele>57.0</ele><time>2026-04-18T07:01:50.003Z</time></trkpt><trkpt lat="43.5422117" lon="10.6293314"><ele>56.0</ele><time>2026-04-18T07:01:51.003Z</time></trkpt><trkpt lat="43.5423259" lon="10.6291881"><ele>55.0</ele><time>2026-04-18T07:01:52.003Z</time></trkpt><trkpt lat="43.5424266" lon="10.6290466"><ele>55.0</ele><time>2026-04-18T07:01:53.003Z</time></trkpt><trkpt lat="43.5425186" lon="10.6289227"><ele>55.0</ele><time>2026-04-18T07:01:54.003Z</time></trkpt><trkpt lat="43.5425959" lon="10.6288214"><ele>55.0</ele><time>2026-04-18T07:01:55.003Z</time></trkpt><trkpt lat="43.5426707" lon="10.6287535"><ele>55.0</ele><time>2026-04-18T07:01:56.002Z</time></trkpt><trkpt lat="43.5427625" lon="10.6287058"><ele>55.0</ele><time>2026-04-18T07:01:58.003Z</time></trkpt><trkpt lat="43.5426974" lon="10.6287061"><ele>55.0</ele><time>2026-04-18T07:02:14.002Z</time></trkpt><trkpt lat="43.5426322" lon="10.6287684"><ele>55.0</ele><time>2026-04-18T07:02:15.003Z</time></trkpt><trkpt lat="43.5425574" lon="10.6288753"><ele>55.0</ele><time>2026-04-18T07:02:16.003Z</time></trkpt><trkpt lat="43.5424775" lon="10.6289897"><ele>55.0</ele><time>2026-04-18T07:02:17.003Z</time></trkpt><trkpt lat="43.5423844" lon="10.6291221"><ele>55.0</ele><time>2026-04-18T07:02:18.003Z</time></trkpt><trkpt lat="43.5422727" lon="10.6292724"><ele>55.0</ele><time>2026-04-18T07:02:19.003Z</time></trkpt><trkpt lat="43.5421518" lon="10.6294213"><ele>55.0</ele><time>2026-04-18T07:02:20.003Z</time></trkpt><trkpt lat="43.5420426" lon="10.6295497"><ele>55.0</ele><time>2026-04-18T07:02:21.003Z</time></trkpt><trkpt lat="43.541971" lon="10.629643"><ele>55.0</ele><time>2026-04-18T07:02:22.003Z</time></trkpt><trkpt lat="43.5419101" lon="10.6297119"><ele>55.6</ele><time>2026-04-18T07:02:23.003Z</time></trkpt><trkpt lat="43.5418622" lon="10.6297701"><ele>56.2</ele><time>2026-04-18T07:02:24.003Z</time></trkpt><trkpt lat="43.5417833" lon="10.6298415"><ele>56.8</ele><time>2026-04-18T07:02:26.003Z</time></trkpt><trkpt lat="43.5417262" lon="10.6299183"><ele>57.4</ele><time>2026-04-18T07:02:54.002Z</time></trkpt><trkpt lat="43.5416642" lon="10.6300446"><ele>58.0</ele><time>2026-04-18T07:02:56.003Z</time></trkpt><trkpt lat="43.5415987" lon="10.6301524"><ele>58.0</ele><time>2026-04-18T07:02:57.003Z</time></trkpt><trkpt lat="43.5415169" lon="10.6302809"><ele>58.0</ele><time>2026-04-18T07:02:58.003Z</time></trkpt><trkpt lat="43.5414306" lon="10.6304209"><ele>58.0</ele><time>2026-04-18T07:02:59.003Z</time></trkpt><trkpt lat="43.5413471" lon="10.630594"><ele>58.0</ele><time>2026-04-18T07:03:00.003Z</time></trkpt><trkpt lat="43.5412626" lon="10.6307968"><ele>56.33333333333333</ele><time>2026-04-18T07:03:01.002Z</time></trkpt><trkpt lat="43.5411681" lon="10.6310058"><ele>54.66666666666667</ele><time>2026-04-18T07:03:02.003Z</time></trkpt><trkpt lat="43.5410879" lon="10.6312095"><ele>53.0</ele><time>2026-04-18T07:03:03.003Z</time></trkpt><trkpt lat="43.5410098" lon="10.6314259"><ele>53.0</ele><time>2026-04-18T07:03:04.003Z</time></trkpt><trkpt lat="43.5409357" lon="10.6316484"><ele>53.0</ele><time>2026-04-18T07:03:05.003Z</time></trkpt><trkpt lat="43.5408309" lon="10.6318444"><ele>53.0</ele><time>2026-04-18T07:03:06.003Z</time></trkpt><trkpt lat="43.5407211" lon="10.6320342"><ele>53.333333333333336</ele><time>2026-04-18T07:03:07.003Z</time></trkpt><trkpt lat="43.5406297" lon="10.6322649"><ele>53.66666666666667</ele><time>2026-04-18T07:03:08.003Z</time></trkpt><trkpt lat="43.5405257" lon="10.6324988"><ele>54.0</ele><time>2026-04-18T07:03:09.002Z</time></trkpt><trkpt lat="43.5404167" lon="10.6327062"><ele>55.5</ele><time>2026-04-18T07:03:10.003Z</time></trkpt><trkpt lat="43.5403235" lon="10.632883"><ele>57.0</ele><time>2026-04-18T07:03:11.003Z</time></trkpt><trkpt lat="43.5402431" lon="10.6330304"><ele>58.5</ele><time>2026-04-18T07:03:12.002Z</time></trkpt><trkpt lat="43.5401663" lon="10.6331592"><ele>60.0</ele><time>2026-04-18T07:03:13.003Z</time></trkpt><trkpt lat="43.5401071" lon="10.6332777"><ele>60.0</ele><time>2026-04-18T07:03:14.002Z</time></trkpt><trkpt lat="43.5400567" lon="10.6334182"><ele>60.0</ele><time>2026-04-18T07:03:15.003Z</time></trkpt><trkpt lat="43.5400077" lon="10.6335839"><ele>60.0</ele><time>2026-04-18T07:03:16.002Z</time></trkpt><trkpt lat="43.5399482" lon="10.6337345"><ele>60.0</ele><time>2026-04-18T07:03:17.002Z</time></trkpt><trkpt lat="43.5398793" lon="10.6338516"><ele>59.2</ele><time>2026-04-18T07:03:18.003Z</time></trkpt><trkpt lat="43.5398128" lon="10.6339491"><ele>58.4</ele><time>2026-04-18T07:03:19.003Z</time></trkpt><trkpt lat="43.5397511" lon="10.63405"><ele>57.599999999999994</ele><time>2026-04-18T07:03:20.003Z</time></trkpt><trkpt lat="43.5396906" lon="10.6341541"><ele>56.8</ele><time>2026-04-18T07:03:21.003Z</time></trkpt><trkpt lat="43.5396302" lon="10.634262"><ele>56.0</ele><time>2026-04-18T07:03:22.003Z</time></trkpt><trkpt lat="43.5395745" lon="10.6343599"><ele>56.0</ele><time>2026-04-18T07:03:23.002Z</time></trkpt><trkpt lat="43.5395314" lon="10.6344426"><ele>56.0</ele><time>2026-04-18T07:03:24.002Z</time></trkpt><trkpt lat="43.539485" lon="10.6345166"><ele>56.0</ele><time>2026-04-18T07:03:25.003Z</time></trkpt><trkpt lat="43.5394406" lon="10.6345905"><ele>56.0</ele><time>2026-04-18T07:03:26.003Z</time></trkpt><trkpt lat="43.5393956" lon="10.6346754"><ele>56.0</ele><time>2026-04-18T07:03:27.003Z</time></trkpt><trkpt lat="43.539352" lon="10.6347586"><ele>56.0</ele><time>2026-04-18T07:03:28.003Z</time></trkpt><trkpt lat="43.5393149" lon="10.6348383"><ele>56.0</ele><time>2026-04-18T07:03:29.002Z</time></trkpt><trkpt lat="43.5392757" lon="10.6349126"><ele>56.0</ele><time>2026-04-18T07:03:30.003Z</time></trkpt><trkpt lat="43.5391955" lon="10.6350305"><ele>55.99999999999999</ele><time>2026-04-18T07:03:32.003Z</time></trkpt><trkpt lat="43.5390941" lon="10.6351291"><ele>55.99999999999999</ele><time>2026-04-18T07:03:34.003Z</time></trkpt><trkpt lat="43.5390388" lon="10.6352008"><ele>56.0</ele><time>2026-04-18T07:03:35.003Z</time></trkpt><trkpt lat="43.5389785" lon="10.6352989"><ele>56.0</ele><time>2026-04-18T07:03:36.003Z</time></trkpt><trkpt lat="43.5389216" lon="10.6354117"><ele>56.0</ele><time>2026-04-18T07:03:37.003Z</time></trkpt><trkpt lat="43.5388491" lon="10.6355279"><ele>55.99999999999999</ele><time>2026-04-18T07:03:38.003Z</time></trkpt><trkpt lat="43.5387752" lon="10.6356399"><ele>55.99999999999999</ele><time>2026-04-18T07:03:39.002Z</time></trkpt><trkpt lat="43.5387129" lon="10.6357321"><ele>56.0</ele><time>2026-04-18T07:03:40.003Z</time></trkpt><trkpt lat="43.5386584" lon="10.6358235"><ele>56.0</ele><time>2026-04-18T07:03:41.003Z</time></trkpt><trkpt lat="43.5386078" lon="10.6359491"><ele>56.75</ele><time>2026-04-18T07:03:42.003Z</time></trkpt><trkpt lat="43.5385701" lon="10.6361064"><ele>57.5</ele><time>2026-04-18T07:03:43.003Z</time></trkpt><trkpt lat="43.5385367" lon="10.6362846"><ele>58.25</ele><time>2026-04-18T07:03:44.003Z</time></trkpt><trkpt lat="43.5385111" lon="10.6364599"><ele>59.0</ele><time>2026-04-18T07:03:45.003Z</time></trkpt><trkpt lat="43.5384813" lon="10.6366057"><ele>59.00000000000001</ele><time>2026-04-18T07:03:46.003Z</time></trkpt><trkpt lat="43.5384438" lon="10.6367585"><ele>59.0</ele><time>2026-04-18T07:03:47.003Z</time></trkpt><trkpt lat="43.5384043" lon="10.6368722"><ele>59.0</ele><time>2026-04-18T07:03:48.003Z</time></trkpt><trkpt lat="43.538382" lon="10.6369537"><ele>59.0</ele><time>2026-04-18T07:03:49.002Z</time></trkpt><trkpt lat="43.5383956" lon="10.6370571"><ele>59.00000000000001</ele><time>2026-04-18T07:03:51.002Z</time></trkpt><trkpt lat="43.5384208" lon="10.637145"><ele>59.0</ele><time>2026-04-18T07:03:52.003Z</time></trkpt><trkpt lat="43.5384876" lon="10.6372294"><ele>58.0</ele><time>2026-04-18T07:03:53.003Z</time></trkpt><trkpt lat="43.5385872" lon="10.6373446"><ele>57.0</ele><time>2026-04-18T07:03:54.003Z</time></trkpt><trkpt lat="43.5386962" lon="10.6374814"><ele>56.0</ele><time>2026-04-18T07:03:55.003Z</time></trkpt><trkpt lat="43.5387999" lon="10.6376237"><ele>55.0</ele><time>2026-04-18T07:03:56.002Z</time></trkpt><trkpt lat="43.5389007" lon="10.6377583"><ele>53.666666666666664</ele><time>2026-04-18T07:03:57.003Z</time></trkpt><trkpt lat="43.5390003" lon="10.6378931"><ele>52.33333333333333</ele><time>2026-04-18T07:03:58.003Z</time></trkpt><trkpt lat="43.5391179" lon="10.6380443"><ele>51.0</ele><time>2026-04-18T07:03:59.003Z</time></trkpt><trkpt lat="43.539237" lon="10.638189"><ele>51.0</ele><time>2026-04-18T07:04:00.003Z</time></trkpt><trkpt lat="43.539343" lon="10.6383261"><ele>51.0</ele><time>2026-04-18T07:04:01.003Z</time></trkpt><trkpt lat="43.5394383" lon="10.6384154"><ele>51.0</ele><time>2026-04-18T07:04:02.002Z</time></trkpt><trkpt lat="43.5395307" lon="10.6384836"><ele>51.0</ele><time>2026-04-18T07:04:03.003Z</time></trkpt><trkpt lat="43.5396125" lon="10.6385651"><ele>51.4</ele><time>2026-04-18T07:04:04.002Z</time></trkpt><trkpt lat="43.5396948" lon="10.6386356"><ele>51.8</ele><time>2026-04-18T07:04:05.003Z</time></trkpt><trkpt lat="43.5397619" lon="10.6387139"><ele>52.199999999999996</ele><time>2026-04-18T07:04:06.003Z</time></trkpt><trkpt lat="43.5398352" lon="10.6388392"><ele>52.599999999999994</ele><time>2026-04-18T07:04:07.002Z</time></trkpt><trkpt lat="43.5399214" lon="10.6389826"><ele>53.0</ele><time>2026-04-18T07:04:08.003Z</time></trkpt><trkpt lat="43.5400251" lon="10.6391371"><ele>53.0</ele><time>2026-04-18T07:04:09.003Z</time></trkpt><trkpt lat="43.540151" lon="10.6392908"><ele>53.0</ele><time>2026-04-18T07:04:10.003Z</time></trkpt><trkpt lat="43.5402724" lon="10.6394298"><ele>53.0</ele><time>2026-04-18T07:04:11.003Z</time></trkpt><trkpt lat="43.5403856" lon="10.6395735"><ele>53.75</ele><time>2026-04-18T07:04:12.003Z</time></trkpt><trkpt lat="43.540484" lon="10.639705"><ele>54.5</ele><time>2026-04-18T07:04:13.003Z</time></trkpt><trkpt lat="43.5405698" lon="10.639819"><ele>55.25</ele><time>2026-04-18T07:04:14.003Z</time></trkpt><trkpt lat="43.5406501" lon="10.6399212"><ele>56.0</ele><time>2026-04-18T07:04:15.003Z</time></trkpt><trkpt lat="43.5407174" lon="10.6400029"><ele>56.00000000000001</ele><time>2026-04-18T07:04:16.003Z</time></trkpt><trkpt lat="43.5407604" lon="10.6400688"><ele>56.0</ele><time>2026-04-18T07:04:17.003Z</time></trkpt><trkpt lat="43.5407954" lon="10.6401418"><ele>56.0</ele><time>2026-04-18T07:04:19.003Z</time></trkpt><trkpt lat="43.5407636" lon="10.6402694"><ele>56.0</ele><time>2026-04-18T07:04:22.003Z</time></trkpt><trkpt lat="43.5407233" lon="10.6403511"><ele>56.00000000000001</ele><time>2026-04-18T07:04:23.003Z</time></trkpt><trkpt lat="43.5406719" lon="10.6404608"><ele>56.0</ele><time>2026-04-18T07:04:24.002Z</time></trkpt><trkpt lat="43.540606" lon="10.6405892"><ele>56.0</ele><time>2026-04-18T07:04:25.003Z</time></trkpt><trkpt lat="43.5405278" lon="10.6407349"><ele>56.0</ele><time>2026-04-18T07:04:26.003Z</time></trkpt><trkpt lat="43.5404454" lon="10.6409027"><ele>56.0</ele><time>2026-04-18T07:04:27.003Z</time></trkpt><trkpt lat="43.5403492" lon="10.6410804"><ele>56.0</ele><time>2026-04-18T07:04:28.002Z</time></trkpt><trkpt lat="43.540247" lon="10.6412739"><ele>56.66666666666667</ele><time>2026-04-18T07:04:29.003Z</time></trkpt><trkpt lat="43.5401223" lon="10.6414805"><ele>57.33333333333333</ele><time>2026-04-18T07:04:30.003Z</time></trkpt><trkpt lat="43.5399881" lon="10.6416869"><ele>58.0</ele><time>2026-04-18T07:04:31.003Z</time></trkpt><trkpt lat="43.5398428" lon="10.6418935"><ele>58.0</ele><time>2026-04-18T07:04:32.003Z</time></trkpt><trkpt lat="43.539687" lon="10.6421085"><ele>58.0</ele><time>2026-04-18T07:04:33.002Z</time></trkpt><trkpt lat="43.5395252" lon="10.6423283"><ele>58.0</ele><time>2026-04-18T07:04:34.003Z</time></trkpt><trkpt lat="43.5393518" lon="10.6425569"><ele>58.0</ele><time>2026-04-18T07:04:35.002Z</time></trkpt><trkpt lat="43.5391739" lon="10.6427878"><ele>58.0</ele><time>2026-04-18T07:04:36.003Z</time></trkpt><trkpt lat="43.5390059" lon="10.6430337"><ele>58.5</ele><time>2026-04-18T07:04:37.003Z</time></trkpt><trkpt lat="43.5388465" lon="10.6432945"><ele>59.0</ele><time>2026-04-18T07:04:38.003Z</time></trkpt><trkpt lat="43.5387023" lon="10.6435642"><ele>61.0</ele><time>2026-04-18T07:04:39.003Z</time></trkpt><trkpt lat="43.5385683" lon="10.6438213"><ele>63.0</ele><time>2026-04-18T07:04:40.003Z</time></trkpt><trkpt lat="43.5384422" lon="10.6440632"><ele>65.0</ele><time>2026-04-18T07:04:41.002Z</time></trkpt><trkpt lat="43.5383313" lon="10.6442961"><ele>67.33333333333334</ele><time>2026-04-18T07:04:42.003Z</time></trkpt><trkpt lat="43.5382245" lon="10.6445238"><ele>69.66666666666667</ele><time>2026-04-18T07:04:43.003Z</time></trkpt><trkpt lat="43.5381248" lon="10.6447487"><ele>72.0</ele><time>2026-04-18T07:04:44.003Z</time></trkpt><trkpt lat="43.5380396" lon="10.644954"><ele>72.0</ele><time>2026-04-18T07:04:45.003Z</time></trkpt><trkpt lat="43.5379734" lon="10.6451558"><ele>72.0</ele><time>2026-04-18T07:04:46.003Z</time></trkpt><trkpt lat="43.5379268" lon="10.6453473"><ele>72.0</ele><time>2026-04-18T07:04:47.003Z</time></trkpt><trkpt lat="43.5378837" lon="10.6455318"><ele>72.0</ele><time>2026-04-18T07:04:48.002Z</time></trkpt><trkpt lat="43.5378433" lon="10.6457073"><ele>70.75</ele><time>2026-04-18T07:04:49.003Z</time></trkpt><trkpt lat="43.5378048" lon="10.6458681"><ele>69.5</ele><time>2026-04-18T07:04:50.002Z</time></trkpt><trkpt lat="43.5377417" lon="10.6460247"><ele>68.25</ele><time>2026-04-18T07:04:51.003Z</time></trkpt><trkpt lat="43.5376553" lon="10.6461676"><ele>67.0</ele><time>2026-04-18T07:04:52.003Z</time></trkpt><trkpt lat="43.5375452" lon="10.6462894"><ele>67.0</ele><time>2026-04-18T07:04:53.003Z</time></trkpt><trkpt lat="43.5374123" lon="10.6463807"><ele>67.0</ele><time>2026-04-18T07:04:54.003Z</time></trkpt><trkpt lat="43.5372755" lon="10.6464487"><ele>67.0</ele><time>2026-04-18T07:04:55.003Z</time></trkpt><trkpt lat="43.5371281" lon="10.6464875"><ele>67.0</ele><time>2026-04-18T07:04:56.003Z</time></trkpt><trkpt lat="43.5369836" lon="10.6465031"><ele>66.66666666666666</ele><time>2026-04-18T07:04:57.002Z</time></trkpt><trkpt lat="43.5368368" lon="10.646469"><ele>66.33333333333333</ele><time>2026-04-18T07:04:58.003Z</time></trkpt><trkpt lat="43.5366592" lon="10.6464138"><ele>66.0</ele><time>2026-04-18T07:04:59.003Z</time></trkpt><trkpt lat="43.5364833" lon="10.6463361"><ele>66.0</ele><time>2026-04-18T07:05:00.003Z</time></trkpt><trkpt lat="43.5363059" lon="10.6462585"><ele>66.0</ele><time>2026-04-18T07:05:01.002Z</time></trkpt><trkpt lat="43.536149" lon="10.6462068"><ele>66.0</ele><time>2026-04-18T07:05:02.003Z</time></trkpt><trkpt lat="43.5360048" lon="10.6462008"><ele>66.33333333333333</ele><time>2026-04-18T07:05:03.002Z</time></trkpt><trkpt lat="43.5358347" lon="10.6462399"><ele>66.66666666666666</ele><time>2026-04-18T07:05:04.003Z</time></trkpt><trkpt lat="43.5356611" lon="10.6463069"><ele>67.0</ele><time>2026-04-18T07:05:05.003Z</time></trkpt><trkpt lat="43.5354727" lon="10.6463726"><ele>66.33333333333333</ele><time>2026-04-18T07:05:06.003Z</time></trkpt><trkpt lat="43.5352748" lon="10.6464385"><ele>65.66666666666667</ele><time>2026-04-18T07:05:07.003Z</time></trkpt><trkpt lat="43.5350635" lon="10.6465141"><ele>65.0</ele><time>2026-04-18T07:05:08.003Z</time></trkpt><trkpt lat="43.5348425" lon="10.6465913"><ele>65.0</ele><time>2026-04-18T07:05:09.003Z</time></trkpt><trkpt lat="43.5346168" lon="10.646672"><ele>65.0</ele><time>2026-04-18T07:05:10.002Z</time></trkpt><trkpt lat="43.5343922" lon="10.6467512"><ele>64.0</ele><time>2026-04-18T07:05:11.002Z</time></trkpt><trkpt lat="43.5341812" lon="10.6468249"><ele>63.0</ele><time>2026-04-18T07:05:12.003Z</time></trkpt><trkpt lat="43.5339877" lon="10.6468914"><ele>62.0</ele><time>2026-04-18T07:05:13.003Z</time></trkpt><trkpt lat="43.533801" lon="10.6469531"><ele>63.0</ele><time>2026-04-18T07:05:14.003Z</time></trkpt><trkpt lat="43.5336053" lon="10.6470125"><ele>64.0</ele><time>2026-04-18T07:05:15.003Z</time></trkpt><trkpt lat="43.5334044" lon="10.6470636"><ele>65.0</ele><time>2026-04-18T07:05:16.002Z</time></trkpt><trkpt lat="43.5332086" lon="10.6470933"><ele>65.0</ele><time>2026-04-18T07:05:17.003Z</time></trkpt><trkpt lat="43.5330199" lon="10.6470993"><ele>65.0</ele><time>2026-04-18T07:05:18.003Z</time></trkpt><trkpt lat="43.5328403" lon="10.6471031"><ele>65.0</ele><time>2026-04-18T07:05:19.003Z</time></trkpt><trkpt lat="43.5326779" lon="10.6471124"><ele>65.33333333333334</ele><time>2026-04-18T07:05:20.003Z</time></trkpt><trkpt lat="43.5325191" lon="10.6471319"><ele>65.66666666666667</ele><time>2026-04-18T07:05:21.003Z</time></trkpt><trkpt lat="43.5323624" lon="10.6471615"><ele>66.0</ele><time>2026-04-18T07:05:22.003Z</time></trkpt><trkpt lat="43.5322052" lon="10.647203"><ele>64.66666666666667</ele><time>2026-04-18T07:05:23.002Z</time></trkpt><trkpt lat="43.5320418" lon="10.6472683"><ele>63.333333333333336</ele><time>2026-04-18T07:05:24.003Z</time></trkpt><trkpt lat="43.5318923" lon="10.6473407"><ele>62.0</ele><time>2026-04-18T07:05:25.003Z</time></trkpt><trkpt lat="43.53176" lon="10.6474337"><ele>62.0</ele><time>2026-04-18T07:05:26.002Z</time></trkpt><trkpt lat="43.5316419" lon="10.6475495"><ele>62.0</ele><time>2026-04-18T07:05:27.003Z</time></trkpt><trkpt lat="43.5315477" lon="10.6476938"><ele>62.0</ele><time>2026-04-18T07:05:28.003Z</time></trkpt><trkpt lat="43.5314613" lon="10.647851"><ele>62.0</ele><time>2026-04-18T07:05:29.003Z</time></trkpt><trkpt lat="43.531375" lon="10.6480193"><ele>62.333333333333336</ele><time>2026-04-18T07:05:30.002Z</time></trkpt><trkpt lat="43.5312685" lon="10.6481773"><ele>62.66666666666667</ele><time>2026-04-18T07:05:31.003Z</time></trkpt><trkpt lat="43.5311474" lon="10.6483106"><ele>63.0</ele><time>2026-04-18T07:05:32.003Z</time></trkpt><trkpt lat="43.5310149" lon="10.6484354"><ele>63.0</ele><time>2026-04-18T07:05:33.003Z</time></trkpt><trkpt lat="43.53087" lon="10.6485678"><ele>63.0</ele><time>2026-04-18T07:05:34.003Z</time></trkpt><trkpt lat="43.5307178" lon="10.6487025"><ele>63.0</ele><time>2026-04-18T07:05:35.003Z</time></trkpt><trkpt lat="43.530562" lon="10.6488254"><ele>63.5</ele><time>2026-04-18T07:05:36.003Z</time></trkpt><trkpt lat="43.5304232" lon="10.648882"><ele>64.0</ele><time>2026-04-18T07:05:37.003Z</time></trkpt><trkpt lat="43.5303093" lon="10.6488951"><ele>64.5</ele><time>2026-04-18T07:05:38.003Z</time></trkpt><trkpt lat="43.5301827" lon="10.6488817"><ele>65.0</ele><time>2026-04-18T07:05:39.002Z</time></trkpt><trkpt lat="43.5300446" lon="10.648832"><ele>64.66666666666667</ele><time>2026-04-18T07:05:40.003Z</time></trkpt><trkpt lat="43.5299011" lon="10.6487556"><ele>64.33333333333333</ele><time>2026-04-18T07:05:41.003Z</time></trkpt><trkpt lat="43.5297562" lon="10.648648"><ele>64.0</ele><time>2026-04-18T07:05:42.003Z</time></trkpt><trkpt lat="43.5295988" lon="10.6485223"><ele>65.66666666666666</ele><time>2026-04-18T07:05:43.002Z</time></trkpt><trkpt lat="43.5294449" lon="10.6483755"><ele>67.33333333333333</ele><time>2026-04-18T07:05:44.003Z</time></trkpt><trkpt lat="43.5292808" lon="10.6482134"><ele>69.0</ele><time>2026-04-18T07:05:45.003Z</time></trkpt><trkpt lat="43.5291133" lon="10.6480386"><ele>69.0</ele><time>2026-04-18T07:05:46.002Z</time></trkpt><trkpt lat="43.5289619" lon="10.6478807"><ele>69.0</ele><time>2026-04-18T07:05:47.003Z</time></trkpt><trkpt lat="43.5288298" lon="10.6477548"><ele>69.0</ele><time>2026-04-18T07:05:48.002Z</time></trkpt><trkpt lat="43.5286947" lon="10.6476577"><ele>68.0</ele><time>2026-04-18T07:05:49.002Z</time></trkpt><trkpt lat="43.528566" lon="10.6475692"><ele>67.0</ele><time>2026-04-18T07:05:50.002Z</time></trkpt><trkpt lat="43.5284195" lon="10.6474847"><ele>66.0</ele><time>2026-04-18T07:05:51.003Z</time></trkpt><trkpt lat="43.5282543" lon="10.6474029"><ele>66.0</ele><time>2026-04-18T07:05:52.003Z</time></trkpt><trkpt lat="43.5280644" lon="10.6473534"><ele>66.0</ele><time>2026-04-18T07:05:53.002Z</time></trkpt><trkpt lat="43.5278684" lon="10.6473299"><ele>66.0</ele><time>2026-04-18T07:05:54.002Z</time></trkpt><trkpt lat="43.5276553" lon="10.6473285"><ele>65.66666666666667</ele><time>2026-04-18T07:05:55.003Z</time></trkpt><trkpt lat="43.5274299" lon="10.6473486"><ele>65.33333333333334</ele><time>2026-04-18T07:05:56.003Z</time></trkpt><trkpt lat="43.5272103" lon="10.6473728"><ele>65.0</ele><time>2026-04-18T07:05:57.003Z</time></trkpt><trkpt lat="43.5270225" lon="10.6474282"><ele>65.0</ele><time>2026-04-18T07:05:58.003Z</time></trkpt><trkpt lat="43.5268363" lon="10.6474943"><ele>65.0</ele><time>2026-04-18T07:05:59.003Z</time></trkpt><trkpt lat="43.5266618" lon="10.6475747"><ele>65.0</ele><time>2026-04-18T07:06:00.003Z</time></trkpt><trkpt lat="43.5265084" lon="10.6476772"><ele>65.0</ele><time>2026-04-18T07:06:01.003Z</time></trkpt><trkpt lat="43.5263691" lon="10.6477885"><ele>65.0</ele><time>2026-04-18T07:06:02.003Z</time></trkpt><trkpt lat="43.5262405" lon="10.6478969"><ele>65.0</ele><time>2026-04-18T07:06:03.002Z</time></trkpt><trkpt lat="43.5261329" lon="10.6480013"><ele>65.0</ele><time>2026-04-18T07:06:04.003Z</time></trkpt><trkpt lat="43.52605" lon="10.6480816"><ele>64.66666666666667</ele><time>2026-04-18T07:06:05.003Z</time></trkpt><trkpt lat="43.5259983" lon="10.6481484"><ele>64.33333333333334</ele><time>2026-04-18T07:06:06.002Z</time></trkpt><trkpt lat="43.5259768" lon="10.6482456"><ele>64.0</ele><time>2026-04-18T07:06:08.003Z</time></trkpt><trkpt lat="43.5259977" lon="10.6483385"><ele>63.66666666666667</ele><time>2026-04-18T07:06:38.003Z</time></trkpt><trkpt lat="43.5260162" lon="10.6484243"><ele>63.333333333333336</ele><time>2026-04-18T07:06:39.003Z</time></trkpt><trkpt lat="43.5260418" lon="10.6485397"><ele>63.0</ele><time>2026-04-18T07:06:40.003Z</time></trkpt><trkpt lat="43.5260625" lon="10.6486675"><ele>64.33333333333333</ele><time>2026-04-18T07:06:41.003Z</time></trkpt><trkpt lat="43.5260851" lon="10.6487898"><ele>65.66666666666667</ele><time>2026-04-18T07:06:42.003Z</time></trkpt><trkpt lat="43.5261027" lon="10.6488809"><ele>67.0</ele><time>2026-04-18T07:06:43.002Z</time></trkpt><trkpt lat="43.5261051" lon="10.6489807"><ele>68.33333333333334</ele><time>2026-04-18T07:06:51.003Z</time></trkpt><trkpt lat="43.5261094" lon="10.6491271"><ele>69.66666666666667</ele><time>2026-04-18T07:06:53.003Z</time></trkpt><trkpt lat="43.5260767" lon="10.649219"><ele>71.0</ele><time>2026-04-18T07:06:54.003Z</time></trkpt><trkpt lat="43.5259997" lon="10.6492606"><ele>71.0</ele><time>2026-04-18T07:06:55.003Z</time></trkpt><trkpt lat="43.5259155" lon="10.6492462"><ele>71.0</ele><time>2026-04-18T07:06:56.003Z</time></trkpt><trkpt lat="43.5258394" lon="10.6491888"><ele>71.0</ele><time>2026-04-18T07:06:57.002Z</time></trkpt><trkpt lat="43.5257511" lon="10.6491064"><ele>71.0</ele><time>2026-04-18T07:06:58.003Z</time></trkpt><trkpt lat="43.5256505" lon="10.6489877"><ele>71.0</ele><time>2026-04-18T07:06:59.003Z</time></trkpt><trkpt lat="43.5255346" lon="10.6488647"><ele>71.0</ele><time>2026-04-18T07:07:00.003Z</time></trkpt><trkpt lat="43.5254123" lon="10.6487194"><ele>71.0</ele><time>2026-04-18T07:07:01.003Z</time></trkpt><trkpt lat="43.5252963" lon="10.6485778"><ele>71.0</ele><time>2026-04-18T07:07:02.003Z</time></trkpt><trkpt lat="43.5251745" lon="10.6484857"><ele>70.8</ele><time>2026-04-18T07:07:03.002Z</time></trkpt><trkpt lat="43.5250833" lon="10.6484503"><ele>70.6</ele><time>2026-04-18T07:07:04.003Z</time></trkpt><trkpt lat="43.525006" lon="10.648476"><ele>70.4</ele><time>2026-04-18T07:07:05.003Z</time></trkpt><trkpt lat="43.5249446" lon="10.6485668"><ele>70.2</ele><time>2026-04-18T07:07:06.002Z</time></trkpt><trkpt lat="43.5249116" lon="10.648687"><ele>70.0</ele><time>2026-04-18T07:07:07.002Z</time></trkpt><trkpt lat="43.5249186" lon="10.6488431"><ele>70.0</ele><time>2026-04-18T07:07:08.002Z</time></trkpt><trkpt lat="43.5249609" lon="10.6489989"><ele>70.0</ele><time>2026-04-18T07:07:09.002Z</time></trkpt><trkpt lat="43.5250118" lon="10.6491438"><ele>70.0</ele><time>2026-04-18T07:07:10.003Z</time></trkpt><trkpt lat="43.5250501" lon="10.6492853"><ele>70.0</ele><time>2026-04-18T07:07:11.003Z</time></trkpt><trkpt lat="43.5250958" lon="10.6494159"><ele>70.16666666666666</ele><time>2026-04-18T07:07:12.003Z</time></trkpt><trkpt lat="43.5251368" lon="10.6495195"><ele>70.33333333333333</ele><time>2026-04-18T07:07:13.003Z</time></trkpt><trkpt lat="43.525177" lon="10.6496117"><ele>70.5</ele><time>2026-04-18T07:07:14.002Z</time></trkpt><trkpt lat="43.5252181" lon="10.649708"><ele>70.66666666666667</ele><time>2026-04-18T07:07:15.003Z</time></trkpt><trkpt lat="43.5252533" lon="10.649809"><ele>70.83333333333334</ele><time>2026-04-18T07:07:16.002Z</time></trkpt><trkpt lat="43.5253059" lon="10.6499224"><ele>71.0</ele><time>2026-04-18T07:07:17.003Z</time></trkpt><trkpt lat="43.525366" lon="10.6500562"><ele>72.5</ele><time>2026-04-18T07:07:18.002Z</time></trkpt><trkpt lat="43.5254539" lon="10.6501751"><ele>74.0</ele><time>2026-04-18T07:07:19.003Z</time></trkpt><trkpt lat="43.5255651" lon="10.6502616"><ele>75.5</ele><time>2026-04-18T07:07:20.003Z</time></trkpt><trkpt lat="43.5257014" lon="10.6502849"><ele>77.0</ele><time>2026-04-18T07:07:21.003Z</time></trkpt><trkpt lat="43.5258196" lon="10.6503223"><ele>78.0</ele><time>2026-04-18T07:07:22.002Z</time></trkpt><trkpt lat="43.5259447" lon="10.6504114"><ele>79.0</ele><time>2026-04-18T07:07:23.003Z</time></trkpt><trkpt lat="43.5260352" lon="10.6505227"><ele>80.0</ele><time>2026-04-18T07:07:24.003Z</time></trkpt><trkpt lat="43.526098" lon="10.6506567"><ele>81.0</ele><time>2026-04-18T07:07:25.003Z</time></trkpt><trkpt lat="43.5261468" lon="10.6508191"><ele>81.0</ele><time>2026-04-18T07:07:26.002Z</time></trkpt><trkpt lat="43.5262184" lon="10.6509818"><ele>81.0</ele><time>2026-04-18T07:07:27.003Z</time></trkpt><trkpt lat="43.5263153" lon="10.6511247"><ele>81.0</ele><time>2026-04-18T07:07:28.002Z</time></trkpt><trkpt lat="43.5264321" lon="10.6512605"><ele>81.0</ele><time>2026-04-18T07:07:29.002Z</time></trkpt><trkpt lat="43.5265334" lon="10.6514308"><ele>83.33333333333333</ele><time>2026-04-18T07:07:30.002Z</time></trkpt><trkpt lat="43.5266056" lon="10.6516495"><ele>85.66666666666666</ele><time>2026-04-18T07:07:31.003Z</time></trkpt><trkpt lat="43.5266594" lon="10.6518734"><ele>88.0</ele><time>2026-04-18T07:07:32.003Z</time></trkpt><trkpt lat="43.5266818" lon="10.6521103"><ele>88.33333333333333</ele><time>2026-04-18T07:07:33.003Z</time></trkpt><trkpt lat="43.5267183" lon="10.6523237"><ele>88.66666666666667</ele><time>2026-04-18T07:07:34.002Z</time></trkpt><trkpt lat="43.5267757" lon="10.6525189"><ele>89.0</ele><time>2026-04-18T07:07:35.003Z</time></trkpt><trkpt lat="43.5268682" lon="10.6527065"><ele>91.33333333333334</ele><time>2026-04-18T07:07:36.002Z</time></trkpt><trkpt lat="43.5269788" lon="10.652864"><ele>93.66666666666667</ele><time>2026-04-18T07:07:37.002Z</time></trkpt><trkpt lat="43.5271197" lon="10.6529808"><ele>96.0</ele><time>2026-04-18T07:07:38.003Z</time></trkpt><trkpt lat="43.5272613" lon="10.6531048"><ele>96.0</ele><time>2026-04-18T07:07:39.003Z</time></trkpt><trkpt lat="43.5274013" lon="10.653174"><ele>96.0</ele><time>2026-04-18T07:07:40.003Z</time></trkpt><trkpt lat="43.5275303" lon="10.6531923"><ele>96.0</ele><time>2026-04-18T07:07:41.003Z</time></trkpt><trkpt lat="43.5276581" lon="10.6531725"><ele>96.0</ele><time>2026-04-18T07:07:42.003Z</time></trkpt><trkpt lat="43.5278067" lon="10.6531424"><ele>98.0</ele><time>2026-04-18T07:07:43.003Z</time></trkpt><trkpt lat="43.5279609" lon="10.6531138"><ele>100.0</ele><time>2026-04-18T07:07:44.002Z</time></trkpt><trkpt lat="43.5281326" lon="10.6531466"><ele>102.0</ele><time>2026-04-18T07:07:45.002Z</time></trkpt><trkpt lat="43.5282765" lon="10.6532224"><ele>102.0</ele><time>2026-04-18T07:07:46.003Z</time></trkpt><trkpt lat="43.5284234" lon="10.6533449"><ele>102.0</ele><time>2026-04-18T07:07:47.003Z</time></trkpt><trkpt lat="43.5285836" lon="10.6534808"><ele>102.0</ele><time>2026-04-18T07:07:48.003Z</time></trkpt><trkpt lat="43.5287426" lon="10.6536316"><ele>104.0</ele><time>2026-04-18T07:07:49.002Z</time></trkpt><trkpt lat="43.5288917" lon="10.6538026"><ele>106.0</ele><time>2026-04-18T07:07:50.002Z</time></trkpt><trkpt lat="43.5290365" lon="10.653995"><ele>108.0</ele><time>2026-04-18T07:07:51.003Z</time></trkpt><trkpt lat="43.5291785" lon="10.6542157"><ele>108.0</ele><time>2026-04-18T07:07:52.003Z</time></trkpt><trkpt lat="43.5293036" lon="10.654453"><ele>108.0</ele><time>2026-04-18T07:07:53.003Z</time></trkpt><trkpt lat="43.5294128" lon="10.6546684"><ele>108.0</ele><time>2026-04-18T07:07:54.002Z</time></trkpt><trkpt lat="43.5295043" lon="10.6548415"><ele>108.0</ele><time>2026-04-18T07:07:55.003Z</time></trkpt><trkpt lat="43.5295602" lon="10.6549938"><ele>108.0</ele><time>2026-04-18T07:07:56.002Z</time></trkpt><trkpt lat="43.5295868" lon="10.6551676"><ele>108.0</ele><time>2026-04-18T07:07:57.002Z</time></trkpt><trkpt lat="43.5295811" lon="10.655364"><ele>108.0</ele><time>2026-04-18T07:07:58.002Z</time></trkpt><trkpt lat="43.5295842" lon="10.655586"><ele>109.75</ele><time>2026-04-18T07:07:59.003Z</time></trkpt><trkpt lat="43.5296248" lon="10.6557898"><ele>111.5</ele><time>2026-04-18T07:08:00.003Z</time></trkpt><trkpt lat="43.5296823" lon="10.6559548"><ele>113.25</ele><time>2026-04-18T07:08:01.002Z</time></trkpt><trkpt lat="43.5297367" lon="10.6560667"><ele>115.0</ele><time>2026-04-18T07:08:02.003Z</time></trkpt><trkpt lat="43.5297833" lon="10.656169"><ele>116.6</ele><time>2026-04-18T07:08:03.003Z</time></trkpt><trkpt lat="43.5298298" lon="10.6562765"><ele>118.2</ele><time>2026-04-18T07:08:04.003Z</time></trkpt><trkpt lat="43.52987" lon="10.6563937"><ele>119.80000000000001</ele><time>2026-04-18T07:08:05.003Z</time></trkpt><trkpt lat="43.5298948" lon="10.6565151"><ele>121.4</ele><time>2026-04-18T07:08:06.003Z</time></trkpt><trkpt lat="43.5298974" lon="10.6566503"><ele>123.0</ele><time>2026-04-18T07:08:07.003Z</time></trkpt><trkpt lat="43.5298895" lon="10.6567775"><ele>123.0</ele><time>2026-04-18T07:08:08.003Z</time></trkpt><trkpt lat="43.5298869" lon="10.6569087"><ele>123.00000000000001</ele><time>2026-04-18T07:08:09.003Z</time></trkpt><trkpt lat="43.5299107" lon="10.6570259"><ele>123.00000000000001</ele><time>2026-04-18T07:08:10.003Z</time></trkpt><trkpt lat="43.5299721" lon="10.6571328"><ele>123.0</ele><time>2026-04-18T07:08:11.002Z</time></trkpt><trkpt lat="43.5300578" lon="10.657217"><ele>123.0</ele><time>2026-04-18T07:08:12.003Z</time></trkpt><trkpt lat="43.5301695" lon="10.657279"><ele>122.5</ele><time>2026-04-18T07:08:13.003Z</time></trkpt><trkpt lat="43.5302857" lon="10.6573235"><ele>122.0</ele><time>2026-04-18T07:08:14.003Z</time></trkpt><trkpt lat="43.5304072" lon="10.6573785"><ele>121.5</ele><time>2026-04-18T07:08:15.003Z</time></trkpt><trkpt lat="43.5305345" lon="10.6574449"><ele>121.0</ele><time>2026-04-18T07:08:16.003Z</time></trkpt><trkpt lat="43.530678" lon="10.6575226"><ele>125.66666666666667</ele><time>2026-04-18T07:08:17.002Z</time></trkpt><trkpt lat="43.5308204" lon="10.6575564"><ele>130.33333333333334</ele><time>2026-04-18T07:08:18.003Z</time></trkpt><trkpt lat="43.5309688" lon="10.6575402"><ele>135.0</ele><time>2026-04-18T07:08:19.003Z</time></trkpt><trkpt lat="43.5311175" lon="10.6574657"><ele>137.75</ele><time>2026-04-18T07:08:20.003Z</time></trkpt><trkpt lat="43.5312386" lon="10.6573885"><ele>140.5</ele><time>2026-04-18T07:08:21.003Z</time></trkpt><trkpt lat="43.5313338" lon="10.6573216"><ele>143.25</ele><time>2026-04-18T07:08:22.002Z</time></trkpt><trkpt lat="43.5314318" lon="10.6572824"><ele>146.0</ele><time>2026-04-18T07:08:23.003Z</time></trkpt><trkpt lat="43.5315411" lon="10.65732"><ele>146.0</ele><time>2026-04-18T07:08:24.003Z</time></trkpt><trkpt lat="43.5316632" lon="10.6574057"><ele>146.0</ele><time>2026-04-18T07:08:25.003Z</time></trkpt><trkpt lat="43.5317859" lon="10.6575024"><ele>146.0</ele><time>2026-04-18T07:08:26.003Z</time></trkpt><trkpt lat="43.5319084" lon="10.6575797"><ele>146.0</ele><time>2026-04-18T07:08:27.003Z</time></trkpt><trkpt lat="43.5320276" lon="10.657646"><ele>144.6</ele><time>2026-04-18T07:08:28.003Z</time></trkpt><trkpt lat="43.5321472" lon="10.6577027"><ele>143.2</ele><time>2026-04-18T07:08:29.003Z</time></trkpt><trkpt lat="43.5322399" lon="10.6577466"><ele>141.8</ele><time>2026-04-18T07:08:30.003Z</time></trkpt><trkpt lat="43.5323068" lon="10.6577608"><ele>140.4</ele><time>2026-04-18T07:08:31.003Z</time></trkpt><trkpt lat="43.5324221" lon="10.6577821"><ele>139.0</ele><time>2026-04-18T07:08:33.003Z</time></trkpt><trkpt lat="43.532527" lon="10.6578659"><ele>141.8</ele><time>2026-04-18T07:08:35.002Z</time></trkpt><trkpt lat="43.5325256" lon="10.6580086"><ele>144.60000000000002</ele><time>2026-04-18T07:08:37.003Z</time></trkpt><trkpt lat="43.5324781" lon="10.6581036"><ele>147.4</ele><time>2026-04-18T07:08:38.003Z</time></trkpt><trkpt lat="43.5324093" lon="10.6581713"><ele>150.20000000000002</ele><time>2026-04-18T07:08:39.002Z</time></trkpt><trkpt lat="43.5322645" lon="10.6581697"><ele>153.0</ele><time>2026-04-18T07:08:41.002Z</time></trkpt><trkpt lat="43.5321807" lon="10.6581134"><ele>153.0</ele><time>2026-04-18T07:08:42.002Z</time></trkpt><trkpt lat="43.532098" lon="10.6580472"><ele>153.0</ele><time>2026-04-18T07:08:43.003Z</time></trkpt><trkpt lat="43.5320108" lon="10.6579702"><ele>153.0</ele><time>2026-04-18T07:08:44.002Z</time></trkpt><trkpt lat="43.5319155" lon="10.6579102"><ele>153.0</ele><time>2026-04-18T07:08:45.003Z</time></trkpt><trkpt lat="43.531832" lon="10.6578779"><ele>153.0</ele><time>2026-04-18T07:08:46.003Z</time></trkpt><trkpt lat="43.5317414" lon="10.6578718"><ele>154.0</ele><time>2026-04-18T07:08:47.003Z</time></trkpt><trkpt lat="43.5316766" lon="10.6579274"><ele>155.0</ele><time>2026-04-18T07:08:48.003Z</time></trkpt><trkpt lat="43.5316371" lon="10.658015"><ele>156.0</ele><time>2026-04-18T07:08:49.003Z</time></trkpt><trkpt lat="43.5316246" lon="10.6581095"><ele>157.0</ele><time>2026-04-18T07:08:50.003Z</time></trkpt><trkpt lat="43.5316446" lon="10.6582086"><ele>158.0</ele><time>2026-04-18T07:08:51.003Z</time></trkpt><trkpt lat="43.5316914" lon="10.6583002"><ele>159.0</ele><time>2026-04-18T07:08:52.002Z</time></trkpt><trkpt lat="43.531768" lon="10.6583679"><ele>159.0</ele><time>2026-04-18T07:08:53.003Z</time></trkpt><trkpt lat="43.5318547" lon="10.6584407"><ele>159.0</ele><time>2026-04-18T07:08:54.002Z</time></trkpt><trkpt lat="43.5319396" lon="10.6585286"><ele>159.0</ele><time>2026-04-18T07:08:55.003Z</time></trkpt><trkpt lat="43.5320136" lon="10.6586403"><ele>159.0</ele><time>2026-04-18T07:08:56.003Z</time></trkpt><trkpt lat="43.5320804" lon="10.6587969"><ele>159.0</ele><time>2026-04-18T07:08:57.002Z</time></trkpt><trkpt lat="43.5321464" lon="10.6589696"><ele>159.66666666666666</ele><time>2026-04-18T07:08:58.003Z</time></trkpt><trkpt lat="43.5322244" lon="10.6591462"><ele>160.33333333333331</ele><time>2026-04-18T07:08:59.002Z</time></trkpt><trkpt lat="43.5323264" lon="10.6593344"><ele>161.0</ele><time>2026-04-18T07:09:00.003Z</time></trkpt><trkpt lat="43.5324458" lon="10.6595137"><ele>165.0</ele><time>2026-04-18T07:09:01.002Z</time></trkpt><trkpt lat="43.5325736" lon="10.6597066"><ele>169.0</ele><time>2026-04-18T07:09:02.003Z</time></trkpt><trkpt lat="43.5326999" lon="10.6599023"><ele>173.0</ele><time>2026-04-18T07:09:03.003Z</time></trkpt><trkpt lat="43.5328321" lon="10.6601016"><ele>171.66666666666666</ele><time>2026-04-18T07:09:04.002Z</time></trkpt><trkpt lat="43.5329523" lon="10.6602852"><ele>170.33333333333334</ele><time>2026-04-18T07:09:05.003Z</time></trkpt><trkpt lat="43.5330525" lon="10.6604462"><ele>169.0</ele><time>2026-04-18T07:09:06.002Z</time></trkpt><trkpt lat="43.5331468" lon="10.6605901"><ele>169.0</ele><time>2026-04-18T07:09:07.003Z</time></trkpt><trkpt lat="43.5332407" lon="10.6607043"><ele>169.0</ele><time>2026-04-18T07:09:08.003Z</time></trkpt><trkpt lat="43.5333328" lon="10.6607889"><ele>169.0</ele><time>2026-04-18T07:09:09.003Z</time></trkpt><trkpt lat="43.5334219" lon="10.660858"><ele>169.0</ele><time>2026-04-18T07:09:10.003Z</time></trkpt><trkpt lat="43.5335012" lon="10.6609153"><ele>169.0</ele><time>2026-04-18T07:09:11.003Z</time></trkpt><trkpt lat="43.5335691" lon="10.660985"><ele>169.0</ele><time>2026-04-18T07:09:13.003Z</time></trkpt><trkpt lat="43.5336156" lon="10.66105"><ele>169.0</ele><time>2026-04-18T07:09:16.003Z</time></trkpt><trkpt lat="43.5337139" lon="10.6611116"><ele>169.0</ele><time>2026-04-18T07:09:18.003Z</time></trkpt><trkpt lat="43.5338011" lon="10.6611382"><ele>169.0</ele><time>2026-04-18T07:09:19.003Z</time></trkpt><trkpt lat="43.5338954" lon="10.6611664"><ele>169.0</ele><time>2026-04-18T07:09:20.003Z</time></trkpt><trkpt lat="43.5339936" lon="10.6611814"><ele>167.79999999999998</ele><time>2026-04-18T07:09:21.003Z</time></trkpt><trkpt lat="43.5340924" lon="10.6612025"><ele>166.6</ele><time>2026-04-18T07:09:22.003Z</time></trkpt><trkpt lat="43.5341692" lon="10.6612157"><ele>165.4</ele><time>2026-04-18T07:09:23.003Z</time></trkpt><trkpt lat="43.5342597" lon="10.6612677"><ele>164.2</ele><time>2026-04-18T07:09:25.003Z</time></trkpt><trkpt lat="43.5342567" lon="10.6614016"><ele>163.0</ele><time>2026-04-18T07:09:29.003Z</time></trkpt><trkpt lat="43.5341668" lon="10.6615774"><ele>163.0</ele><time>2026-04-18T07:09:31.002Z</time></trkpt><trkpt lat="43.5341128" lon="10.6617091"><ele>163.0</ele><time>2026-04-18T07:09:32.003Z</time></trkpt><trkpt lat="43.5340542" lon="10.6618672"><ele>163.0</ele><time>2026-04-18T07:09:33.003Z</time></trkpt><trkpt lat="43.5339927" lon="10.6620572"><ele>163.0</ele><time>2026-04-18T07:09:34.002Z</time></trkpt><trkpt lat="43.533927" lon="10.6622497"><ele>161.0</ele><time>2026-04-18T07:09:35.002Z</time></trkpt><trkpt lat="43.5338529" lon="10.6624461"><ele>159.0</ele><time>2026-04-18T07:09:36.003Z</time></trkpt><trkpt lat="43.5337715" lon="10.662652"><ele>157.0</ele><time>2026-04-18T07:09:37.003Z</time></trkpt><trkpt lat="43.5337007" lon="10.6628762"><ele>159.66666666666669</ele><time>2026-04-18T07:09:38.002Z</time></trkpt><trkpt lat="43.5336409" lon="10.6631191"><ele>162.33333333333334</ele><time>2026-04-18T07:09:39.002Z</time></trkpt><trkpt lat="43.5335831" lon="10.6633812"><ele>165.0</ele><time>2026-04-18T07:09:40.003Z</time></trkpt><trkpt lat="43.5335301" lon="10.6636184"><ele>165.0</ele><time>2026-04-18T07:09:41.003Z</time></trkpt><trkpt lat="43.5334959" lon="10.6638507"><ele>165.0</ele><time>2026-04-18T07:09:42.002Z</time></trkpt><trkpt lat="43.5334663" lon="10.6640876"><ele>165.0</ele><time>2026-04-18T07:09:43.003Z</time></trkpt><trkpt lat="43.5334442" lon="10.6642921"><ele>162.5</ele><time>2026-04-18T07:09:44.003Z</time></trkpt><trkpt lat="43.5334203" lon="10.6644542"><ele>160.0</ele><time>2026-04-18T07:09:45.003Z</time></trkpt><trkpt lat="43.5333694" lon="10.6646001"><ele>157.5</ele><time>2026-04-18T07:09:46.003Z</time></trkpt><trkpt lat="43.5332842" lon="10.6647313"><ele>155.0</ele><time>2026-04-18T07:09:47.003Z</time></trkpt><trkpt lat="43.5331808" lon="10.6648739"><ele>155.0</ele><time>2026-04-18T07:09:48.003Z</time></trkpt><trkpt lat="43.5330596" lon="10.664982"><ele>155.0</ele><time>2026-04-18T07:09:49.002Z</time></trkpt><trkpt lat="43.5329335" lon="10.665019"><ele>155.0</ele><time>2026-04-18T07:09:50.003Z</time></trkpt><trkpt lat="43.5328147" lon="10.6650309"><ele>155.0</ele><time>2026-04-18T07:09:51.003Z</time></trkpt><trkpt lat="43.5326816" lon="10.6650147"><ele>154.5</ele><time>2026-04-18T07:09:52.002Z</time></trkpt><trkpt lat="43.5325415" lon="10.6649711"><ele>154.0</ele><time>2026-04-18T07:09:53.002Z</time></trkpt><trkpt lat="43.5324163" lon="10.6649432"><ele>153.5</ele><time>2026-04-18T07:09:54.003Z</time></trkpt><trkpt lat="43.5323099" lon="10.6649577"><ele>153.0</ele><time>2026-04-18T07:09:55.002Z</time></trkpt><trkpt lat="43.5322126" lon="10.6650193"><ele>153.0</ele><time>2026-04-18T07:09:56.003Z</time></trkpt><trkpt lat="43.5321224" lon="10.6651266"><ele>153.0</ele><time>2026-04-18T07:09:57.003Z</time></trkpt><trkpt lat="43.5320366" lon="10.6652694"><ele>153.0</ele><time>2026-04-18T07:09:58.003Z</time></trkpt><trkpt lat="43.5319468" lon="10.6654462"><ele>153.0</ele><time>2026-04-18T07:09:59.002Z</time></trkpt><trkpt lat="43.5318604" lon="10.6656442"><ele>151.0</ele><time>2026-04-18T07:10:00.003Z</time></trkpt><trkpt lat="43.5317665" lon="10.6658609"><ele>149.0</ele><time>2026-04-18T07:10:01.003Z</time></trkpt><trkpt lat="43.5316717" lon="10.6660656"><ele>147.0</ele><time>2026-04-18T07:10:02.003Z</time></trkpt><trkpt lat="43.5315734" lon="10.6662671"><ele>147.0</ele><time>2026-04-18T07:10:03.003Z</time></trkpt><trkpt lat="43.5314548" lon="10.6664696"><ele>147.0</ele><time>2026-04-18T07:10:04.002Z</time></trkpt><trkpt lat="43.5313308" lon="10.6666733"><ele>147.0</ele><time>2026-04-18T07:10:05.003Z</time></trkpt><trkpt lat="43.5311912" lon="10.6668689"><ele>151.0</ele><time>2026-04-18T07:10:06.002Z</time></trkpt><trkpt lat="43.5310528" lon="10.6670722"><ele>155.0</ele><time>2026-04-18T07:10:07.003Z</time></trkpt><trkpt lat="43.5309258" lon="10.6672713"><ele>159.0</ele><time>2026-04-18T07:10:08.003Z</time></trkpt><trkpt lat="43.5307874" lon="10.6674571"><ele>159.0</ele><time>2026-04-18T07:10:09.002Z</time></trkpt><trkpt lat="43.5306365" lon="10.6676415"><ele>159.0</ele><time>2026-04-18T07:10:10.003Z</time></trkpt><trkpt lat="43.5304849" lon="10.6677732"><ele>159.0</ele><time>2026-04-18T07:10:11.002Z</time></trkpt><trkpt lat="43.5303479" lon="10.6678743"><ele>160.33333333333334</ele><time>2026-04-18T07:10:12.003Z</time></trkpt><trkpt lat="43.5302156" lon="10.6680006"><ele>161.66666666666669</ele><time>2026-04-18T07:10:13.003Z</time></trkpt><trkpt lat="43.5301141" lon="10.6681804"><ele>163.0</ele><time>2026-04-18T07:10:14.003Z</time></trkpt><trkpt lat="43.5300077" lon="10.6683731"><ele>163.0</ele><time>2026-04-18T07:10:15.003Z</time></trkpt><trkpt lat="43.5298838" lon="10.6685862"><ele>163.0</ele><time>2026-04-18T07:10:16.002Z</time></trkpt><trkpt lat="43.5297501" lon="10.6687852"><ele>163.0</ele><time>2026-04-18T07:10:17.003Z</time></trkpt><trkpt lat="43.5296327" lon="10.6689656"><ele>163.0</ele><time>2026-04-18T07:10:18.003Z</time></trkpt><trkpt lat="43.5295215" lon="10.6691039"><ele>163.0</ele><time>2026-04-18T07:10:19.003Z</time></trkpt><trkpt lat="43.5294055" lon="10.6692301"><ele>163.0</ele><time>2026-04-18T07:10:20.003Z</time></trkpt><trkpt lat="43.529294" lon="10.6693568"><ele>163.0</ele><time>2026-04-18T07:10:21.003Z</time></trkpt><trkpt lat="43.5291775" lon="10.6694939"><ele>163.0</ele><time>2026-04-18T07:10:22.003Z</time></trkpt><trkpt lat="43.5290554" lon="10.6696264"><ele>163.0</ele><time>2026-04-18T07:10:23.003Z</time></trkpt><trkpt lat="43.5289346" lon="10.6697628"><ele>163.0</ele><time>2026-04-18T07:10:24.002Z</time></trkpt><trkpt lat="43.5288175" lon="10.6699021"><ele>162.33333333333334</ele><time>2026-04-18T07:10:25.003Z</time></trkpt><trkpt lat="43.5286968" lon="10.6700341"><ele>161.66666666666666</ele><time>2026-04-18T07:10:26.003Z</time></trkpt><trkpt lat="43.5285847" lon="10.67017"><ele>161.0</ele><time>2026-04-18T07:10:27.003Z</time></trkpt><trkpt lat="43.5284713" lon="10.6703091"><ele>161.0</ele><time>2026-04-18T07:10:28.003Z</time></trkpt><trkpt lat="43.5283483" lon="10.6704646"><ele>161.0</ele><time>2026-04-18T07:10:29.003Z</time></trkpt><trkpt lat="43.5282061" lon="10.6706374"><ele>161.0</ele><time>2026-04-18T07:10:30.003Z</time></trkpt><trkpt lat="43.5280557" lon="10.6708247"><ele>161.0</ele><time>2026-04-18T07:10:31.002Z</time></trkpt><trkpt lat="43.5278982" lon="10.67102"><ele>161.0</ele><time>2026-04-18T07:10:32.003Z</time></trkpt><trkpt lat="43.5277504" lon="10.6712105"><ele>161.0</ele><time>2026-04-18T07:10:33.003Z</time></trkpt><trkpt lat="43.527619" lon="10.6713934"><ele>162.66666666666666</ele><time>2026-04-18T07:10:34.003Z</time></trkpt><trkpt lat="43.5274959" lon="10.6715909"><ele>164.33333333333334</ele><time>2026-04-18T07:10:35.003Z</time></trkpt><trkpt lat="43.5273966" lon="10.6717916"><ele>166.0</ele><time>2026-04-18T07:10:36.002Z</time></trkpt><trkpt lat="43.5273112" lon="10.6719793"><ele>167.25</ele><time>2026-04-18T07:10:37.002Z</time></trkpt><trkpt lat="43.5272334" lon="10.6721347"><ele>168.5</ele><time>2026-04-18T07:10:38.003Z</time></trkpt><trkpt lat="43.527151" lon="10.6722614"><ele>169.75</ele><time>2026-04-18T07:10:39.003Z</time></trkpt><trkpt lat="43.5270533" lon="10.6723777"><ele>171.0</ele><time>2026-04-18T07:10:40.003Z</time></trkpt><trkpt lat="43.5269428" lon="10.6724572"><ele>171.0</ele><time>2026-04-18T07:10:41.002Z</time></trkpt><trkpt lat="43.5268405" lon="10.6724927"><ele>171.0</ele><time>2026-04-18T07:10:42.003Z</time></trkpt><trkpt lat="43.5267322" lon="10.6724694"><ele>171.0</ele><time>2026-04-18T07:10:43.003Z</time></trkpt><trkpt lat="43.5266224" lon="10.6724357"><ele>171.0</ele><time>2026-04-18T07:10:44.003Z</time></trkpt><trkpt lat="43.5265112" lon="10.6724229"><ele>171.0</ele><time>2026-04-18T07:10:45.002Z</time></trkpt><trkpt lat="43.5263994" lon="10.6724275"><ele>171.0</ele><time>2026-04-18T07:10:46.003Z</time></trkpt><trkpt lat="43.5262914" lon="10.6724656"><ele>171.0</ele><time>2026-04-18T07:10:47.002Z</time></trkpt><trkpt lat="43.5261891" lon="10.6725403"><ele>171.0</ele><time>2026-04-18T07:10:48.003Z</time></trkpt><trkpt lat="43.5260946" lon="10.6726289"><ele>171.0</ele><time>2026-04-18T07:10:49.003Z</time></trkpt><trkpt lat="43.5260069" lon="10.6727205"><ele>170.75</ele><time>2026-04-18T07:10:50.003Z</time></trkpt><trkpt lat="43.5259263" lon="10.6728248"><ele>170.5</ele><time>2026-04-18T07:10:51.003Z</time></trkpt><trkpt lat="43.5258582" lon="10.672961"><ele>170.25</ele><time>2026-04-18T07:10:52.003Z</time></trkpt><trkpt lat="43.5258173" lon="10.6730996"><ele>170.0</ele><time>2026-04-18T07:10:53.002Z</time></trkpt><trkpt lat="43.5258127" lon="10.6732747"><ele>170.0</ele><time>2026-04-18T07:10:54.003Z</time></trkpt><trkpt lat="43.5258094" lon="10.673452"><ele>170.0</ele><time>2026-04-18T07:10:55.003Z</time></trkpt><trkpt lat="43.5257984" lon="10.673636"><ele>170.0</ele><time>2026-04-18T07:10:56.003Z</time></trkpt><trkpt lat="43.5257871" lon="10.6738468"><ele>170.0</ele><time>2026-04-18T07:10:57.003Z</time></trkpt><trkpt lat="43.5257558" lon="10.6740685"><ele>172.0</ele><time>2026-04-18T07:10:58.003Z</time></trkpt><trkpt lat="43.5257222" lon="10.6742811"><ele>174.0</ele><time>2026-04-18T07:10:59.003Z</time></trkpt><trkpt lat="43.5256963" lon="10.6744751"><ele>176.0</ele><time>2026-04-18T07:11:00.002Z</time></trkpt><trkpt lat="43.5256627" lon="10.674654"><ele>178.0</ele><time>2026-04-18T07:11:01.003Z</time></trkpt><trkpt lat="43.5256415" lon="10.6748236"><ele>179.0</ele><time>2026-04-18T07:11:02.003Z</time></trkpt><trkpt lat="43.5256169" lon="10.6749821"><ele>180.0</ele><time>2026-04-18T07:11:03.003Z</time></trkpt><trkpt lat="43.5256002" lon="10.6751299"><ele>181.0</ele><time>2026-04-18T07:11:04.002Z</time></trkpt><trkpt lat="43.525584" lon="10.6752579"><ele>182.0</ele><time>2026-04-18T07:11:05.003Z</time></trkpt><trkpt lat="43.5255483" lon="10.6753892"><ele>183.0</ele><time>2026-04-18T07:11:06.002Z</time></trkpt><trkpt lat="43.5255183" lon="10.6754978"><ele>183.0</ele><time>2026-04-18T07:11:07.003Z</time></trkpt><trkpt lat="43.5254836" lon="10.675593"><ele>183.0</ele><time>2026-04-18T07:11:08.002Z</time></trkpt><trkpt lat="43.5254453" lon="10.6756917"><ele>183.0</ele><time>2026-04-18T07:11:09.003Z</time></trkpt><trkpt lat="43.5253958" lon="10.6757743"><ele>183.0</ele><time>2026-04-18T07:11:10.003Z</time></trkpt><trkpt lat="43.5253389" lon="10.6758454"><ele>183.0</ele><time>2026-04-18T07:11:11.003Z</time></trkpt><trkpt lat="43.5252833" lon="10.6759146"><ele>183.0</ele><time>2026-04-18T07:11:12.002Z</time></trkpt><trkpt lat="43.5252211" lon="10.6759728"><ele>183.0</ele><time>2026-04-18T07:11:13.003Z</time></trkpt><trkpt lat="43.5251567" lon="10.6760439"><ele>183.0</ele><time>2026-04-18T07:11:14.003Z</time></trkpt><trkpt lat="43.5250837" lon="10.6761084"><ele>183.0</ele><time>2026-04-18T07:11:15.003Z</time></trkpt><trkpt lat="43.5250093" lon="10.6761774"><ele>183.0</ele><time>2026-04-18T07:11:16.003Z</time></trkpt><trkpt lat="43.5249254" lon="10.6762572"><ele>183.0</ele><time>2026-04-18T07:11:17.002Z</time></trkpt><trkpt lat="43.5248494" lon="10.6763371"><ele>182.83333333333334</ele><time>2026-04-18T07:11:18.003Z</time></trkpt><trkpt lat="43.5247843" lon="10.6764166"><ele>182.66666666666666</ele><time>2026-04-18T07:11:19.002Z</time></trkpt><trkpt lat="43.52472" lon="10.6765124"><ele>182.5</ele><time>2026-04-18T07:11:20.003Z</time></trkpt><trkpt lat="43.5246569" lon="10.6766028"><ele>182.33333333333331</ele><time>2026-04-18T07:11:21.003Z</time></trkpt><trkpt lat="43.5246068" lon="10.6766866"><ele>182.16666666666666</ele><time>2026-04-18T07:11:22.002Z</time></trkpt><trkpt lat="43.5245726" lon="10.6767706"><ele>182.0</ele><time>2026-04-18T07:11:23.003Z</time></trkpt><trkpt lat="43.5245519" lon="10.6768528"><ele>181.39999999999998</ele><time>2026-04-18T07:11:24.003Z</time></trkpt><trkpt lat="43.5245499" lon="10.6770165"><ele>180.79999999999998</ele><time>2026-04-18T07:11:34.003Z</time></trkpt><trkpt lat="43.524561" lon="10.6771309"><ele>180.2</ele><time>2026-04-18T07:11:36.003Z</time></trkpt><trkpt lat="43.5246177" lon="10.677252"><ele>179.6</ele><time>2026-04-18T07:11:38.002Z</time></trkpt><trkpt lat="43.5246988" lon="10.677348"><ele>179.0</ele><time>2026-04-18T07:11:40.002Z</time></trkpt><trkpt lat="43.5247302" lon="10.6774242"><ele>178.33333333333331</ele><time>2026-04-18T07:11:41.003Z</time></trkpt><trkpt lat="43.5247712" lon="10.6775903"><ele>177.66666666666666</ele><time>2026-04-18T07:11:43.002Z</time></trkpt><trkpt lat="43.5247685" lon="10.6776862"><ele>177.0</ele><time>2026-04-18T07:11:44.003Z</time></trkpt><trkpt lat="43.5247723" lon="10.677792"><ele>176.33333333333334</ele><time>2026-04-18T07:11:45.003Z</time></trkpt><trkpt lat="43.5247569" lon="10.6778996"><ele>175.66666666666669</ele><time>2026-04-18T07:11:46.002Z</time></trkpt><trkpt lat="43.5247414" lon="10.6780025"><ele>175.0</ele><time>2026-04-18T07:11:47.003Z</time></trkpt><trkpt lat="43.524732" lon="10.6781167"><ele>174.5</ele><time>2026-04-18T07:11:48.003Z</time></trkpt><trkpt lat="43.5247293" lon="10.6782306"><ele>174.0</ele><time>2026-04-18T07:11:49.003Z</time></trkpt><trkpt lat="43.5247335" lon="10.6783512"><ele>173.5</ele><time>2026-04-18T07:11:50.002Z</time></trkpt><trkpt lat="43.5247345" lon="10.6784781"><ele>173.0</ele><time>2026-04-18T07:11:51.003Z</time></trkpt><trkpt lat="43.5247522" lon="10.678587"><ele>172.5</ele><time>2026-04-18T07:11:52.003Z</time></trkpt><trkpt lat="43.5247725" lon="10.6786903"><ele>172.0</ele><time>2026-04-18T07:11:53.003Z</time></trkpt><trkpt lat="43.5248032" lon="10.6787943"><ele>173.75</ele><time>2026-04-18T07:11:54.003Z</time></trkpt><trkpt lat="43.5248305" lon="10.6789098"><ele>175.5</ele><time>2026-04-18T07:11:55.003Z</time></trkpt><trkpt lat="43.524853" lon="10.6790302"><ele>177.25</ele><time>2026-04-18T07:11:56.003Z</time></trkpt><trkpt lat="43.5248622" lon="10.6791582"><ele>179.0</ele><time>2026-04-18T07:11:57.002Z</time></trkpt><trkpt lat="43.5248748" lon="10.6794331"><ele>180.0</ele><time>2026-04-18T07:11:59.003Z</time></trkpt><trkpt lat="43.5248418" lon="10.6797544"><ele>181.0</ele><time>2026-04-18T07:12:02.003Z</time></trkpt><trkpt lat="43.524848" lon="10.6799484"><ele>182.0</ele><time>2026-04-18T07:12:04.003Z</time></trkpt><trkpt lat="43.5248775" lon="10.6801036"><ele>182.0</ele><time>2026-04-18T07:12:05.003Z</time></trkpt><trkpt lat="43.524918" lon="10.6802586"><ele>182.0</ele><time>2026-04-18T07:12:06.002Z</time></trkpt><trkpt lat="43.5249491" lon="10.6804056"><ele>182.0</ele><time>2026-04-18T07:12:07.002Z</time></trkpt><trkpt lat="43.5249754" lon="10.6805559"><ele>182.0</ele><time>2026-04-18T07:12:08.003Z</time></trkpt><trkpt lat="43.5249948" lon="10.6807016"><ele>180.6</ele><time>2026-04-18T07:12:09.003Z</time></trkpt><trkpt lat="43.5249932" lon="10.6808457"><ele>179.2</ele><time>2026-04-18T07:12:10.003Z</time></trkpt><trkpt lat="43.5249783" lon="10.6809782"><ele>177.8</ele><time>2026-04-18T07:12:11.003Z</time></trkpt><trkpt lat="43.5249735" lon="10.6811168"><ele>176.4</ele><time>2026-04-18T07:12:12.003Z</time></trkpt><trkpt lat="43.5249603" lon="10.6812812"><ele>175.0</ele><time>2026-04-18T07:12:13.003Z</time></trkpt><trkpt lat="43.524957" lon="10.6814673"><ele>174.25</ele><time>2026-04-18T07:12:14.003Z</time></trkpt><trkpt lat="43.5249576" lon="10.6816459"><ele>173.5</ele><time>2026-04-18T07:12:15.002Z</time></trkpt><trkpt lat="43.5249569" lon="10.6818158"><ele>172.75</ele><time>2026-04-18T07:12:16.003Z</time></trkpt><trkpt lat="43.5249517" lon="10.681966"><ele>172.0</ele><time>2026-04-18T07:12:17.003Z</time></trkpt><trkpt lat="43.5249402" lon="10.6821124"><ele>171.66666666666669</ele><time>2026-04-18T07:12:18.003Z</time></trkpt><trkpt lat="43.5249319" lon="10.6822603"><ele>171.33333333333334</ele><time>2026-04-18T07:12:19.003Z</time></trkpt><trkpt lat="43.5249448" lon="10.6823921"><ele>171.0</ele><time>2026-04-18T07:12:20.003Z</time></trkpt><trkpt lat="43.5249815" lon="10.6824843"><ele>170.66666666666666</ele><time>2026-04-18T07:12:21.003Z</time></trkpt><trkpt lat="43.5250332" lon="10.6825512"><ele>170.33333333333331</ele><time>2026-04-18T07:12:22.003Z</time></trkpt><trkpt lat="43.5251043" lon="10.6825936"><ele>170.0</ele><time>2026-04-18T07:12:23.002Z</time></trkpt><trkpt lat="43.5251877" lon="10.6826122"><ele>170.0</ele><time>2026-04-18T07:12:24.003Z</time></trkpt><trkpt lat="43.5252732" lon="10.6826338"><ele>170.0</ele><time>2026-04-18T07:12:25.003Z</time></trkpt><trkpt lat="43.5253619" lon="10.68269"><ele>170.0</ele><time>2026-04-18T07:12:26.003Z</time></trkpt><trkpt lat="43.525436" lon="10.6827708"><ele>170.0</ele><time>2026-04-18T07:12:27.002Z</time></trkpt><trkpt lat="43.5255015" lon="10.682876"><ele>170.0</ele><time>2026-04-18T07:12:28.002Z</time></trkpt><trkpt lat="43.525558" lon="10.6829778"><ele>168.8</ele><time>2026-04-18T07:12:29.002Z</time></trkpt><trkpt lat="43.5255996" lon="10.6830932"><ele>167.6</ele><time>2026-04-18T07:12:30.003Z</time></trkpt><trkpt lat="43.5256249" lon="10.6831819"><ele>166.39999999999998</ele><time>2026-04-18T07:12:31.002Z</time></trkpt><trkpt lat="43.5255967" lon="10.6833092"><ele>165.2</ele><time>2026-04-18T07:12:33.003Z</time></trkpt><trkpt lat="43.5255225" lon="10.6834304"><ele>164.0</ele><time>2026-04-18T07:12:35.003Z</time></trkpt><trkpt lat="43.5254422" lon="10.6834988"><ele>164.0</ele><time>2026-04-18T07:12:36.003Z</time></trkpt><trkpt lat="43.5253446" lon="10.6835665"><ele>164.0</ele><time>2026-04-18T07:12:37.003Z</time></trkpt><trkpt lat="43.5252289" lon="10.6836577"><ele>164.0</ele><time>2026-04-18T07:12:38.003Z</time></trkpt><trkpt lat="43.5250941" lon="10.6837515"><ele>164.0</ele><time>2026-04-18T07:12:39.003Z</time></trkpt><trkpt lat="43.5249688" lon="10.6838407"><ele>162.16666666666666</ele><time>2026-04-18T07:12:40.003Z</time></trkpt><trkpt lat="43.5248649" lon="10.6838927"><ele>160.33333333333331</ele><time>2026-04-18T07:12:41.003Z</time></trkpt><trkpt lat="43.5247792" lon="10.6839114"><ele>158.5</ele><time>2026-04-18T07:12:42.002Z</time></trkpt><trkpt lat="43.5246889" lon="10.6838723"><ele>156.66666666666666</ele><time>2026-04-18T07:12:44.002Z</time></trkpt><trkpt lat="43.5246207" lon="10.6838828"><ele>154.83333333333334</ele><time>2026-04-18T07:12:46.003Z</time></trkpt><trkpt lat="43.5245651" lon="10.6839269"><ele>153.0</ele><time>2026-04-18T07:12:48.003Z</time></trkpt><trkpt lat="43.5244987" lon="10.6840643"><ele>151.66666666666666</ele><time>2026-04-18T07:12:50.003Z</time></trkpt><trkpt lat="43.5244843" lon="10.6841764"><ele>150.33333333333334</ele><time>2026-04-18T07:12:51.002Z</time></trkpt><trkpt lat="43.524491" lon="10.6842931"><ele>149.0</ele><time>2026-04-18T07:12:52.003Z</time></trkpt><trkpt lat="43.5245105" lon="10.6843911"><ele>147.66666666666669</ele><time>2026-04-18T07:12:53.003Z</time></trkpt><trkpt lat="43.5245551" lon="10.6844682"><ele>146.33333333333334</ele><time>2026-04-18T07:12:54.002Z</time></trkpt><trkpt lat="43.524647" lon="10.6845155"><ele>145.0</ele><time>2026-04-18T07:12:55.002Z</time></trkpt><trkpt lat="43.5247524" lon="10.6845304"><ele>145.0</ele><time>2026-04-18T07:12:56.002Z</time></trkpt><trkpt lat="43.5248647" lon="10.6845541"><ele>145.0</ele><time>2026-04-18T07:12:57.003Z</time></trkpt><trkpt lat="43.524971" lon="10.6845711"><ele>145.0</ele><time>2026-04-18T07:12:58.003Z</time></trkpt><trkpt lat="43.5250737" lon="10.6846193"><ele>145.0</ele><time>2026-04-18T07:12:59.003Z</time></trkpt><trkpt lat="43.5251621" lon="10.6846846"><ele>145.0</ele><time>2026-04-18T07:13:00.002Z</time></trkpt><trkpt lat="43.5252352" lon="10.6847729"><ele>145.0</ele><time>2026-04-18T07:13:01.003Z</time></trkpt><trkpt lat="43.5252858" lon="10.6848964"><ele>145.0</ele><time>2026-04-18T07:13:02.003Z</time></trkpt><trkpt lat="43.5253227" lon="10.6850347"><ele>145.0</ele><time>2026-04-18T07:13:03.003Z</time></trkpt><trkpt lat="43.5253525" lon="10.685211"><ele>145.0</ele><time>2026-04-18T07:13:04.003Z</time></trkpt><trkpt lat="43.5253802" lon="10.6853979"><ele>146.0</ele><time>2026-04-18T07:13:05.002Z</time></trkpt><trkpt lat="43.525429" lon="10.6855875"><ele>147.0</ele><time>2026-04-18T07:13:06.003Z</time></trkpt><trkpt lat="43.5254702" lon="10.6857704"><ele>148.0</ele><time>2026-04-18T07:13:07.002Z</time></trkpt><trkpt lat="43.5255104" lon="10.6859491"><ele>149.0</ele><time>2026-04-18T07:13:08.003Z</time></trkpt><trkpt lat="43.5255429" lon="10.6861367"><ele>146.0</ele><time>2026-04-18T07:13:09.003Z</time></trkpt><trkpt lat="43.5255662" lon="10.6863282"><ele>143.0</ele><time>2026-04-18T07:13:10.003Z</time></trkpt><trkpt lat="43.5255822" lon="10.6865178"><ele>140.0</ele><time>2026-04-18T07:13:11.002Z</time></trkpt><trkpt lat="43.5255789" lon="10.6866894"><ele>137.0</ele><time>2026-04-18T07:13:12.002Z</time></trkpt><trkpt lat="43.5255675" lon="10.6868514"><ele>135.25</ele><time>2026-04-18T07:13:13.002Z</time></trkpt><trkpt lat="43.5255398" lon="10.6870215"><ele>133.5</ele><time>2026-04-18T07:13:14.002Z</time></trkpt><trkpt lat="43.525491" lon="10.6871985"><ele>131.75</ele><time>2026-04-18T07:13:15.002Z</time></trkpt><trkpt lat="43.5254347" lon="10.6873879"><ele>130.0</ele><time>2026-04-18T07:13:16.002Z</time></trkpt><trkpt lat="43.5253746" lon="10.6875668"><ele>127.0</ele><time>2026-04-18T07:13:17.001Z</time></trkpt><trkpt lat="43.5253167" lon="10.6877632"><ele>124.0</ele><time>2026-04-18T07:13:18.002Z</time></trkpt><trkpt lat="43.5252639" lon="10.6879682"><ele>121.0</ele><time>2026-04-18T07:13:19.002Z</time></trkpt><trkpt lat="43.5252149" lon="10.6881822"><ele>121.0</ele><time>2026-04-18T07:13:20.002Z</time></trkpt><trkpt lat="43.5251732" lon="10.6884081"><ele>121.0</ele><time>2026-04-18T07:13:21.002Z</time></trkpt><trkpt lat="43.5251434" lon="10.6886804"><ele>121.0</ele><time>2026-04-18T07:13:22.002Z</time></trkpt><trkpt lat="43.5251106" lon="10.6889691"><ele>120.66666666666667</ele><time>2026-04-18T07:13:23.002Z</time></trkpt><trkpt lat="43.5250735" lon="10.6892419"><ele>120.33333333333334</ele><time>2026-04-18T07:13:24.002Z</time></trkpt><trkpt lat="43.5250476" lon="10.6894844"><ele>120.0</ele><time>2026-04-18T07:13:25.002Z</time></trkpt><trkpt lat="43.5250132" lon="10.6897082"><ele>120.0</ele><time>2026-04-18T07:13:26.002Z</time></trkpt><trkpt lat="43.5249945" lon="10.6899139"><ele>120.0</ele><time>2026-04-18T07:13:27.002Z</time></trkpt><trkpt lat="43.524997" lon="10.6901116"><ele>120.0</ele><time>2026-04-18T07:13:28.002Z</time></trkpt><trkpt lat="43.5250301" lon="10.690324"><ele>119.0</ele><time>2026-04-18T07:13:29.001Z</time></trkpt><trkpt lat="43.5250551" lon="10.6905388"><ele>118.0</ele><time>2026-04-18T07:13:30.002Z</time></trkpt><trkpt lat="43.5250808" lon="10.690737"><ele>117.0</ele><time>2026-04-18T07:13:31.002Z</time></trkpt><trkpt lat="43.5251024" lon="10.6909284"><ele>116.0</ele><time>2026-04-18T07:13:32.001Z</time></trkpt><trkpt lat="43.5251145" lon="10.6911146"><ele>114.5</ele><time>2026-04-18T07:13:33.002Z</time></trkpt><trkpt lat="43.5251447" lon="10.6912975"><ele>113.0</ele><time>2026-04-18T07:13:34.002Z</time></trkpt><trkpt lat="43.5251846" lon="10.6914827"><ele>111.5</ele><time>2026-04-18T07:13:35.002Z</time></trkpt><trkpt lat="43.5252338" lon="10.6916698"><ele>110.0</ele><time>2026-04-18T07:13:36.001Z</time></trkpt><trkpt lat="43.5252793" lon="10.6918554"><ele>107.75</ele><time>2026-04-18T07:13:37.002Z</time></trkpt><trkpt lat="43.5253218" lon="10.692036"><ele>105.5</ele><time>2026-04-18T07:13:38.001Z</time></trkpt><trkpt lat="43.52536" lon="10.6922112"><ele>103.25</ele><time>2026-04-18T07:13:39.001Z</time></trkpt><trkpt lat="43.5253778" lon="10.6924065"><ele>101.0</ele><time>2026-04-18T07:13:40.002Z</time></trkpt><trkpt lat="43.5253911" lon="10.6925987"><ele>103.0</ele><time>2026-04-18T07:13:41.002Z</time></trkpt><trkpt lat="43.5254014" lon="10.6927806"><ele>105.0</ele><time>2026-04-18T07:13:42.002Z</time></trkpt><trkpt lat="43.5254027" lon="10.6929491"><ele>107.0</ele><time>2026-04-18T07:13:43.002Z</time></trkpt><trkpt lat="43.5254043" lon="10.6931199"><ele>109.0</ele><time>2026-04-18T07:13:44.002Z</time></trkpt><trkpt lat="43.5254196" lon="10.6932818"><ele>109.0</ele><time>2026-04-18T07:13:45.002Z</time></trkpt><trkpt lat="43.5254525" lon="10.6934204"><ele>109.0</ele><time>2026-04-18T07:13:46.002Z</time></trkpt><trkpt lat="43.5255004" lon="10.693557"><ele>109.0</ele><time>2026-04-18T07:13:47.002Z</time></trkpt><trkpt lat="43.5255747" lon="10.693703"><ele>109.0</ele><time>2026-04-18T07:13:48.002Z</time></trkpt><trkpt lat="43.5256568" lon="10.6938642"><ele>108.5</ele><time>2026-04-18T07:13:49.001Z</time></trkpt><trkpt lat="43.5257362" lon="10.6940298"><ele>108.0</ele><time>2026-04-18T07:13:50.002Z</time></trkpt><trkpt lat="43.5258006" lon="10.6941903"><ele>107.5</ele><time>2026-04-18T07:13:51.002Z</time></trkpt><trkpt lat="43.525843" lon="10.6943585"><ele>107.0</ele><time>2026-04-18T07:13:52.002Z</time></trkpt><trkpt lat="43.5258645" lon="10.6945361"><ele>106.5</ele><time>2026-04-18T07:13:53.002Z</time></trkpt><trkpt lat="43.5258614" lon="10.6947128"><ele>106.0</ele><time>2026-04-18T07:13:54.001Z</time></trkpt><trkpt lat="43.525842" lon="10.6948898"><ele>105.5</ele><time>2026-04-18T07:13:55.002Z</time></trkpt><trkpt lat="43.5257981" lon="10.6950499"><ele>105.0</ele><time>2026-04-18T07:13:56.001Z</time></trkpt><trkpt lat="43.5257394" lon="10.6951671"><ele>104.0</ele><time>2026-04-18T07:13:57.002Z</time></trkpt><trkpt lat="43.5256724" lon="10.6952712"><ele>103.0</ele><time>2026-04-18T07:13:58.002Z</time></trkpt><trkpt lat="43.5256268" lon="10.6953909"><ele>102.0</ele><time>2026-04-18T07:13:59.002Z</time></trkpt><trkpt lat="43.5256239" lon="10.6955429"><ele>101.0</ele><time>2026-04-18T07:14:00.002Z</time></trkpt><trkpt lat="43.5256621" lon="10.695688"><ele>100.0</ele><time>2026-04-18T07:14:01.002Z</time></trkpt><trkpt lat="43.5257096" lon="10.6958448"><ele>100.0</ele><time>2026-04-18T07:14:02.002Z</time></trkpt><trkpt lat="43.5257388" lon="10.6960246"><ele>100.0</ele><time>2026-04-18T07:14:03.002Z</time></trkpt><trkpt lat="43.525746" lon="10.6962293"><ele>100.0</ele><time>2026-04-18T07:14:04.002Z</time></trkpt><trkpt lat="43.5257389" lon="10.6964453"><ele>100.0</ele><time>2026-04-18T07:14:05.002Z</time></trkpt><trkpt lat="43.5257089" lon="10.6966758"><ele>98.33333333333334</ele><time>2026-04-18T07:14:06.002Z</time></trkpt><trkpt lat="43.5256801" lon="10.6968903"><ele>96.66666666666667</ele><time>2026-04-18T07:14:07.002Z</time></trkpt><trkpt lat="43.525622" lon="10.697092"><ele>95.0</ele><time>2026-04-18T07:14:08.001Z</time></trkpt><trkpt lat="43.5255398" lon="10.6972668"><ele>94.5</ele><time>2026-04-18T07:14:09.002Z</time></trkpt><trkpt lat="43.5254687" lon="10.6974281"><ele>94.0</ele><time>2026-04-18T07:14:10.002Z</time></trkpt><trkpt lat="43.5254154" lon="10.6975792"><ele>93.5</ele><time>2026-04-18T07:14:11.002Z</time></trkpt><trkpt lat="43.5253939" lon="10.6977391"><ele>93.0</ele><time>2026-04-18T07:14:12.001Z</time></trkpt><trkpt lat="43.5253963" lon="10.697915"><ele>92.0</ele><time>2026-04-18T07:14:13.001Z</time></trkpt><trkpt lat="43.525431" lon="10.6981132"><ele>91.0</ele><time>2026-04-18T07:14:14.002Z</time></trkpt><trkpt lat="43.5254858" lon="10.6982997"><ele>90.0</ele><time>2026-04-18T07:14:15.002Z</time></trkpt><trkpt lat="43.5255221" lon="10.6984916"><ele>89.0</ele><time>2026-04-18T07:14:16.002Z</time></trkpt><trkpt lat="43.5255314" lon="10.6986801"><ele>88.25</ele><time>2026-04-18T07:14:17.002Z</time></trkpt><trkpt lat="43.52551" lon="10.6988734"><ele>87.5</ele><time>2026-04-18T07:14:18.002Z</time></trkpt><trkpt lat="43.5254661" lon="10.6990661"><ele>86.75</ele><time>2026-04-18T07:14:19.002Z</time></trkpt><trkpt lat="43.5254049" lon="10.6992268"><ele>86.0</ele><time>2026-04-18T07:14:20.002Z</time></trkpt><trkpt lat="43.5253418" lon="10.6993658"><ele>84.39999999999999</ele><time>2026-04-18T07:14:21.001Z</time></trkpt><trkpt lat="43.5252948" lon="10.6994929"><ele>82.8</ele><time>2026-04-18T07:14:22.001Z</time></trkpt><trkpt lat="43.5252831" lon="10.6996193"><ele>81.19999999999999</ele><time>2026-04-18T07:14:23.001Z</time></trkpt><trkpt lat="43.5253091" lon="10.6997592"><ele>79.6</ele><time>2026-04-18T07:14:24.002Z</time></trkpt><trkpt lat="43.5253566" lon="10.6999042"><ele>78.0</ele><time>2026-04-18T07:14:25.002Z</time></trkpt><trkpt lat="43.5254118" lon="10.7000454"><ele>78.0</ele><time>2026-04-18T07:14:26.002Z</time></trkpt><trkpt lat="43.5254657" lon="10.7002102"><ele>78.0</ele><time>2026-04-18T07:14:27.002Z</time></trkpt><trkpt lat="43.5255218" lon="10.7003982"><ele>78.0</ele><time>2026-04-18T07:14:28.002Z</time></trkpt><trkpt lat="43.525583" lon="10.7005841"><ele>78.0</ele><time>2026-04-18T07:14:29.002Z</time></trkpt><trkpt lat="43.5256524" lon="10.7007637"><ele>75.0</ele><time>2026-04-18T07:14:30.002Z</time></trkpt><trkpt lat="43.5256924" lon="10.7009345"><ele>72.0</ele><time>2026-04-18T07:14:31.002Z</time></trkpt><trkpt lat="43.5257195" lon="10.7011316"><ele>69.0</ele><time>2026-04-18T07:14:32.002Z</time></trkpt><trkpt lat="43.5257334" lon="10.7013161"><ele>66.0</ele><time>2026-04-18T07:14:33.002Z</time></trkpt><trkpt lat="43.5257357" lon="10.7014998"><ele>64.5</ele><time>2026-04-18T07:14:34.002Z</time></trkpt><trkpt lat="43.5257387" lon="10.7016735"><ele>63.0</ele><time>2026-04-18T07:14:35.002Z</time></trkpt><trkpt lat="43.5257505" lon="10.7018417"><ele>61.5</ele><time>2026-04-18T07:14:36.002Z</time></trkpt><trkpt lat="43.5257726" lon="10.7020045"><ele>60.0</ele><time>2026-04-18T07:14:37.002Z</time></trkpt><trkpt lat="43.525814" lon="10.7021519"><ele>59.4</ele><time>2026-04-18T07:14:38.002Z</time></trkpt><trkpt lat="43.5258572" lon="10.7022834"><ele>58.8</ele><time>2026-04-18T07:14:39.002Z</time></trkpt><trkpt lat="43.525897" lon="10.7024144"><ele>58.2</ele><time>2026-04-18T07:14:40.002Z</time></trkpt><trkpt lat="43.5259217" lon="10.702525"><ele>57.6</ele><time>2026-04-18T07:14:41.002Z</time></trkpt><trkpt lat="43.5259567" lon="10.7026509"><ele>57.0</ele><time>2026-04-18T07:14:43.002Z</time></trkpt><trkpt lat="43.5260346" lon="10.70273"><ele>57.0</ele><time>2026-04-18T07:14:47.001Z</time></trkpt><trkpt lat="43.526146" lon="10.7026643"><ele>57.0</ele><time>2026-04-18T07:14:49.002Z</time></trkpt><trkpt lat="43.5262317" lon="10.7025899"><ele>57.0</ele><time>2026-04-18T07:14:50.002Z</time></trkpt><trkpt lat="43.526339" lon="10.7025037"><ele>57.0</ele><time>2026-04-18T07:14:51.001Z</time></trkpt><trkpt lat="43.5264705" lon="10.702416"><ele>56.66666666666667</ele><time>2026-04-18T07:14:52.002Z</time></trkpt><trkpt lat="43.5266238" lon="10.7023504"><ele>56.333333333333336</ele><time>2026-04-18T07:14:53.002Z</time></trkpt><trkpt lat="43.5268045" lon="10.7023066"><ele>56.0</ele><time>2026-04-18T07:14:54.002Z</time></trkpt><trkpt lat="43.527" lon="10.7022859"><ele>56.0</ele><time>2026-04-18T07:14:55.001Z</time></trkpt><trkpt lat="43.5272024" lon="10.7022741"><ele>56.0</ele><time>2026-04-18T07:14:56.001Z</time></trkpt><trkpt lat="43.527416" lon="10.7022705"><ele>56.0</ele><time>2026-04-18T07:14:57.002Z</time></trkpt><trkpt lat="43.5276374" lon="10.702262"><ele>56.0</ele><time>2026-04-18T07:14:58.001Z</time></trkpt><trkpt lat="43.527869" lon="10.7022539"><ele>56.0</ele><time>2026-04-18T07:14:59.002Z</time></trkpt><trkpt lat="43.5281091" lon="10.7022475"><ele>57.0</ele><time>2026-04-18T07:15:00.001Z</time></trkpt><trkpt lat="43.5283556" lon="10.7022469"><ele>58.0</ele><time>2026-04-18T07:15:01.001Z</time></trkpt><trkpt lat="43.5286119" lon="10.7022337"><ele>56.5</ele><time>2026-04-18T07:15:02.002Z</time></trkpt><trkpt lat="43.5288701" lon="10.7022276"><ele>55.0</ele><time>2026-04-18T07:15:03.001Z</time></trkpt><trkpt lat="43.5291356" lon="10.7022118"><ele>55.0</ele><time>2026-04-18T07:15:04.002Z</time></trkpt><trkpt lat="43.5294017" lon="10.7021815"><ele>55.0</ele><time>2026-04-18T07:15:05.002Z</time></trkpt><trkpt lat="43.5296716" lon="10.702142"><ele>54.5</ele><time>2026-04-18T07:15:06.002Z</time></trkpt><trkpt lat="43.5299439" lon="10.7020967"><ele>54.0</ele><time>2026-04-18T07:15:07.001Z</time></trkpt><trkpt lat="43.5302232" lon="10.7020623"><ele>54.5</ele><time>2026-04-18T07:15:08.002Z</time></trkpt><trkpt lat="43.5304948" lon="10.7020316"><ele>55.0</ele><time>2026-04-18T07:15:09.002Z</time></trkpt><trkpt lat="43.5307499" lon="10.7020014"><ele>55.0</ele><time>2026-04-18T07:15:10.002Z</time></trkpt><trkpt lat="43.5309945" lon="10.7019764"><ele>55.0</ele><time>2026-04-18T07:15:11.002Z</time></trkpt><trkpt lat="43.5312228" lon="10.7019431"><ele>55.0</ele><time>2026-04-18T07:15:12.002Z</time></trkpt><trkpt lat="43.5314456" lon="10.7018899"><ele>55.0</ele><time>2026-04-18T07:15:13.002Z</time></trkpt><trkpt lat="43.5316811" lon="10.7018483"><ele>55.0</ele><time>2026-04-18T07:15:14.001Z</time></trkpt><trkpt lat="43.5319256" lon="10.7018003"><ele>55.0</ele><time>2026-04-18T07:15:15.002Z</time></trkpt><trkpt lat="43.5321824" lon="10.7017413"><ele>55.0</ele><time>2026-04-18T07:15:16.002Z</time></trkpt><trkpt lat="43.5324373" lon="10.7016854"><ele>55.0</ele><time>2026-04-18T07:15:17.002Z</time></trkpt><trkpt lat="43.5326989" lon="10.7016298"><ele>55.5</ele><time>2026-04-18T07:15:18.001Z</time></trkpt><trkpt lat="43.5329277" lon="10.7015797"><ele>56.0</ele><time>2026-04-18T07:15:19.002Z</time></trkpt><trkpt lat="43.5331449" lon="10.7015374"><ele>56.0</ele><time>2026-04-18T07:15:20.002Z</time></trkpt><trkpt lat="43.5333496" lon="10.7014938"><ele>56.0</ele><time>2026-04-18T07:15:21.002Z</time></trkpt><trkpt lat="43.5335558" lon="10.7014479"><ele>56.0</ele><time>2026-04-18T07:15:22.002Z</time></trkpt><trkpt lat="43.5337569" lon="10.7014106"><ele>56.66666666666667</ele><time>2026-04-18T07:15:23.002Z</time></trkpt><trkpt lat="43.5339527" lon="10.7013711"><ele>57.33333333333333</ele><time>2026-04-18T07:15:24.001Z</time></trkpt><trkpt lat="43.5341412" lon="10.7013288"><ele>58.0</ele><time>2026-04-18T07:15:25.002Z</time></trkpt><trkpt lat="43.5343191" lon="10.7012918"><ele>58.0</ele><time>2026-04-18T07:15:26.001Z</time></trkpt><trkpt lat="43.5344973" lon="10.7012654"><ele>58.0</ele><time>2026-04-18T07:15:27.002Z</time></trkpt><trkpt lat="43.5346711" lon="10.7012268"><ele>58.0</ele><time>2026-04-18T07:15:28.002Z</time></trkpt><trkpt lat="43.534844" lon="10.7011902"><ele>57.666666666666664</ele><time>2026-04-18T07:15:29.002Z</time></trkpt><trkpt lat="43.5350144" lon="10.7011475"><ele>57.33333333333333</ele><time>2026-04-18T07:15:30.001Z</time></trkpt><trkpt lat="43.5351905" lon="10.7011153"><ele>57.0</ele><time>2026-04-18T07:15:31.001Z</time></trkpt><trkpt lat="43.5353563" lon="10.7010772"><ele>57.0</ele><time>2026-04-18T07:15:32.002Z</time></trkpt><trkpt lat="43.5355209" lon="10.7010366"><ele>57.0</ele><time>2026-04-18T07:15:33.002Z</time></trkpt><trkpt lat="43.5356762" lon="10.7009947"><ele>57.0</ele><time>2026-04-18T07:15:34.001Z</time></trkpt><trkpt lat="43.5358337" lon="10.7009634"><ele>57.0</ele><time>2026-04-18T07:15:35.001Z</time></trkpt><trkpt lat="43.5359935" lon="10.7009374"><ele>57.0</ele><time>2026-04-18T07:15:36.001Z</time></trkpt><trkpt lat="43.5361569" lon="10.7009137"><ele>57.0</ele><time>2026-04-18T07:15:37.002Z</time></trkpt><trkpt lat="43.5363284" lon="10.700891"><ele>56.33333333333333</ele><time>2026-04-18T07:15:38.002Z</time></trkpt><trkpt lat="43.5365097" lon="10.7008563"><ele>55.666666666666664</ele><time>2026-04-18T07:15:39.002Z</time></trkpt><trkpt lat="43.5367039" lon="10.7008241"><ele>55.0</ele><time>2026-04-18T07:15:40.002Z</time></trkpt><trkpt lat="43.536887" lon="10.7007863"><ele>55.666666666666664</ele><time>2026-04-18T07:15:41.001Z</time></trkpt><trkpt lat="43.5370565" lon="10.7007437"><ele>56.33333333333333</ele><time>2026-04-18T07:15:42.002Z</time></trkpt><trkpt lat="43.5372211" lon="10.7006987"><ele>57.0</ele><time>2026-04-18T07:15:43.002Z</time></trkpt><trkpt lat="43.5373817" lon="10.7006681"><ele>57.0</ele><time>2026-04-18T07:15:44.001Z</time></trkpt><trkpt lat="43.5375374" lon="10.7006409"><ele>57.0</ele><time>2026-04-18T07:15:45.002Z</time></trkpt><trkpt lat="43.5376843" lon="10.7006253"><ele>57.0</ele><time>2026-04-18T07:15:46.002Z</time></trkpt><trkpt lat="43.5378236" lon="10.7005986"><ele>57.0</ele><time>2026-04-18T07:15:47.002Z</time></trkpt><trkpt lat="43.5379659" lon="10.7005797"><ele>57.0</ele><time>2026-04-18T07:15:48.002Z</time></trkpt><trkpt lat="43.5380958" lon="10.7005594"><ele>57.0</ele><time>2026-04-18T07:15:49.001Z</time></trkpt><trkpt lat="43.538215" lon="10.7005486"><ele>57.0</ele><time>2026-04-18T07:15:50.002Z</time></trkpt><trkpt lat="43.5383356" lon="10.7005331"><ele>57.0</ele><time>2026-04-18T07:15:51.002Z</time></trkpt><trkpt lat="43.5384541" lon="10.7005184"><ele>57.0</ele><time>2026-04-18T07:15:52.002Z</time></trkpt><trkpt lat="43.5385631" lon="10.700496"><ele>57.0</ele><time>2026-04-18T07:15:53.002Z</time></trkpt><trkpt lat="43.5386665" lon="10.7004767"><ele>57.0</ele><time>2026-04-18T07:15:54.002Z</time></trkpt><trkpt lat="43.5387645" lon="10.7004635"><ele>57.0</ele><time>2026-04-18T07:15:55.001Z</time></trkpt><trkpt lat="43.5389672" lon="10.7004485"><ele>56.66666666666667</ele><time>2026-04-18T07:15:57.002Z</time></trkpt><trkpt lat="43.5392768" lon="10.7003918"><ele>56.333333333333336</ele><time>2026-04-18T07:16:00.001Z</time></trkpt><trkpt lat="43.5393623" lon="10.7003943"><ele>56.0</ele><time>2026-04-18T07:16:01.001Z</time></trkpt><trkpt lat="43.5394589" lon="10.7003546"><ele>56.00000000000001</ele><time>2026-04-18T07:16:03.002Z</time></trkpt><trkpt lat="43.5394008" lon="10.7002528"><ele>56.0</ele><time>2026-04-18T07:16:06.001Z</time></trkpt><trkpt lat="43.5393481" lon="10.7003069"><ele>56.0</ele><time>2026-04-18T07:16:09.002Z</time></trkpt><trkpt lat="43.5392842" lon="10.70034"><ele>56.0</ele><time>2026-04-18T07:16:12.001Z</time></trkpt><trkpt lat="43.5392103" lon="10.7003622"><ele>56.00000000000001</ele><time>2026-04-18T07:16:13.002Z</time></trkpt><trkpt lat="43.5391232" lon="10.7003784"><ele>56.0</ele><time>2026-04-18T07:16:14.002Z</time></trkpt><trkpt lat="43.5390125" lon="10.7003896"><ele>56.0</ele><time>2026-04-18T07:16:15.002Z</time></trkpt><trkpt lat="43.5389059" lon="10.7004046"><ele>55.99999999999999</ele><time>2026-04-18T07:16:16.002Z</time></trkpt><trkpt lat="43.5388054" lon="10.7004174"><ele>55.99999999999999</ele><time>2026-04-18T07:16:17.002Z</time></trkpt><trkpt lat="43.538724" lon="10.7004283"><ele>56.0</ele><time>2026-04-18T07:16:18.002Z</time></trkpt><trkpt lat="43.538619" lon="10.7004485"><ele>56.0</ele><time>2026-04-18T07:16:20.001Z</time></trkpt><trkpt lat="43.5385591" lon="10.7005421"><ele>56.199999999999996</ele><time>2026-04-18T07:16:22.002Z</time></trkpt><trkpt lat="43.5385654" lon="10.7006353"><ele>56.39999999999999</ele><time>2026-04-18T07:16:24.002Z</time></trkpt><trkpt lat="43.5385853" lon="10.7007527"><ele>56.6</ele><time>2026-04-18T07:16:27.001Z</time></trkpt><trkpt lat="43.5385936" lon="10.7008706"><ele>56.8</ele><time>2026-04-18T07:16:29.002Z</time></trkpt><trkpt lat="43.5386193" lon="10.7010104"><ele>57.0</ele><time>2026-04-18T07:16:31.001Z</time></trkpt><trkpt lat="43.5386451" lon="10.7011635"><ele>56.6</ele><time>2026-04-18T07:16:33.002Z</time></trkpt><trkpt lat="43.5386695" lon="10.7013324"><ele>56.2</ele><time>2026-04-18T07:16:35.001Z</time></trkpt><trkpt lat="43.5386966" lon="10.7014943"><ele>55.8</ele><time>2026-04-18T07:16:37.002Z</time></trkpt><trkpt lat="43.5387067" lon="10.7015861"><ele>55.4</ele><time>2026-04-18T07:16:38.001Z</time></trkpt><trkpt lat="43.5387119" lon="10.7016802"><ele>55.0</ele><time>2026-04-18T07:16:39.001Z</time></trkpt><trkpt lat="43.5387177" lon="10.7017763"><ele>55.0</ele><time>2026-04-18T07:16:40.002Z</time></trkpt><trkpt lat="43.538728" lon="10.7018641"><ele>55.0</ele><time>2026-04-18T07:16:41.002Z</time></trkpt><trkpt lat="43.5387493" lon="10.7020301"><ele>55.0</ele><time>2026-04-18T07:16:43.002Z</time></trkpt><trkpt lat="43.5387645" lon="10.7021853"><ele>55.0</ele><time>2026-04-18T07:16:45.002Z</time></trkpt><trkpt lat="43.5387772" lon="10.7023107"><ele>55.0</ele><time>2026-04-18T07:16:47.002Z</time></trkpt><trkpt lat="43.53879" lon="10.7024145"><ele>54.99999999999999</ele><time>2026-04-18T07:16:49.002Z</time></trkpt><trkpt lat="43.5387936" lon="10.7025244"><ele>55.0</ele><time>2026-04-18T07:16:52.002Z</time></trkpt><trkpt lat="43.5388008" lon="10.702638"><ele>55.0</ele><time>2026-04-18T07:16:55.002Z</time></trkpt><trkpt lat="43.5388528" lon="10.7027205"><ele>55.0</ele><time>2026-04-18T07:16:59.002Z</time></trkpt><trkpt lat="43.5389308" lon="10.7027198"><ele>54.99999999999999</ele><time>2026-04-18T07:17:03.002Z</time></trkpt><trkpt lat="43.5389999" lon="10.7027148"><ele>55.0</ele><time>2026-04-18T07:17:07.002Z</time></trkpt><trkpt lat="43.5390609" lon="10.7028115"><ele>54.83333333333333</ele><time>2026-04-18T07:17:50.002Z</time></trkpt><trkpt lat="43.5390739" lon="10.7028979"><ele>54.666666666666664</ele><time>2026-04-18T07:17:53.001Z</time></trkpt><trkpt lat="43.5389883" lon="10.7029444"><ele>54.5</ele><time>2026-04-18T07:18:14.002Z</time></trkpt><trkpt lat="43.5388941" lon="10.7029465"><ele>54.33333333333333</ele><time>2026-04-18T07:18:16.001Z</time></trkpt><trkpt lat="43.5388038" lon="10.7029516"><ele>54.166666666666664</ele><time>2026-04-18T07:18:18.002Z</time></trkpt><trkpt lat="43.5387348" lon="10.7029931"><ele>54.0</ele><time>2026-04-18T07:18:21.002Z</time></trkpt><trkpt lat="43.538706" lon="10.7031157"><ele>53.6</ele><time>2026-04-18T07:18:23.002Z</time></trkpt><trkpt lat="43.5386751" lon="10.7032656"><ele>53.2</ele><time>2026-04-18T07:18:25.002Z</time></trkpt><trkpt lat="43.5386456" lon="10.7033951"><ele>52.800000000000004</ele><time>2026-04-18T07:18:27.002Z</time></trkpt><trkpt lat="43.5386071" lon="10.7034798"><ele>52.400000000000006</ele><time>2026-04-18T07:18:48.002Z</time></trkpt><trkpt lat="43.5385594" lon="10.7034036"><ele>52.0</ele><time>2026-04-18T07:18:52.001Z</time></trkpt><trkpt lat="43.5384561" lon="10.7032873"><ele>52.0</ele><time>2026-04-18T07:18:54.002Z</time></trkpt><trkpt lat="43.5383865" lon="10.7032221"><ele>52.0</ele><time>2026-04-18T07:18:55.002Z</time></trkpt><trkpt lat="43.5383111" lon="10.7031392"><ele>52.0</ele><time>2026-04-18T07:18:56.002Z</time></trkpt><trkpt lat="43.5382222" lon="10.7030506"><ele>52.0</ele><time>2026-04-18T07:18:57.002Z</time></trkpt><trkpt lat="43.5381212" lon="10.7029551"><ele>52.0</ele><time>2026-04-18T07:18:58.001Z</time></trkpt><trkpt lat="43.5380185" lon="10.7028607"><ele>51.99999999999999</ele><time>2026-04-18T07:18:59.001Z</time></trkpt><trkpt lat="43.5379256" lon="10.7027815"><ele>52.0</ele><time>2026-04-18T07:19:00.002Z</time></trkpt><trkpt lat="43.5378374" lon="10.7027094"><ele>52.0</ele><time>2026-04-18T07:19:01.002Z</time></trkpt><trkpt lat="43.5377609" lon="10.7026458"><ele>52.0</ele><time>2026-04-18T07:19:02.002Z</time></trkpt><trkpt lat="43.5376921" lon="10.7025801"><ele>51.99999999999999</ele><time>2026-04-18T07:19:03.002Z</time></trkpt><trkpt lat="43.5376579" lon="10.7025068"><ele>52.0</ele><time>2026-04-18T07:19:04.002Z</time></trkpt><trkpt lat="43.5376119" lon="10.702336"><ele>52.2</ele><time>2026-04-18T07:19:06.002Z</time></trkpt><trkpt lat="43.5375933" lon="10.7022281"><ele>52.400000000000006</ele><time>2026-04-18T07:19:07.002Z</time></trkpt><trkpt lat="43.537576" lon="10.7020785"><ele>52.599999999999994</ele><time>2026-04-18T07:19:08.002Z</time></trkpt><trkpt lat="43.5375509" lon="10.7019182"><ele>52.8</ele><time>2026-04-18T07:19:09.002Z</time></trkpt><trkpt lat="43.5375326" lon="10.7017881"><ele>53.0</ele><time>2026-04-18T07:19:10.002Z</time></trkpt><trkpt lat="43.5375242" lon="10.701668"><ele>53.599999999999994</ele><time>2026-04-18T07:19:11.002Z</time></trkpt><trkpt lat="43.537507" lon="10.7015469"><ele>54.199999999999996</ele><time>2026-04-18T07:19:12.001Z</time></trkpt><trkpt lat="43.5374892" lon="10.701407"><ele>54.8</ele><time>2026-04-18T07:19:13.002Z</time></trkpt><trkpt lat="43.5374613" lon="10.7012407"><ele>55.4</ele><time>2026-04-18T07:19:14.002Z</time></trkpt><trkpt lat="43.5374358" lon="10.7010708"><ele>56.0</ele><time>2026-04-18T07:19:15.002Z</time></trkpt><trkpt lat="43.5374183" lon="10.7009235"><ele>56.25</ele><time>2026-04-18T07:19:16.002Z</time></trkpt><trkpt lat="43.5373932" lon="10.7008169"><ele>56.5</ele><time>2026-04-18T07:19:17.001Z</time></trkpt><trkpt lat="43.5373963" lon="10.7006535"><ele>56.75</ele><time>2026-04-18T07:19:20.001Z</time></trkpt><trkpt lat="43.5374615" lon="10.7006108"><ele>57.0</ele><time>2026-04-18T07:19:23.001Z</time></trkpt><trkpt lat="43.5381031" lon="10.7005524"><ele>57.0</ele><time>2026-04-18T07:19:30.001Z</time></trkpt><trkpt lat="43.5382493" lon="10.7005309"><ele>57.0</ele><time>2026-04-18T07:19:31.002Z</time></trkpt><trkpt lat="43.5384028" lon="10.7005072"><ele>57.0</ele><time>2026-04-18T07:19:32.002Z</time></trkpt><trkpt lat="43.5385633" lon="10.7004916"><ele>56.66666666666667</ele><time>2026-04-18T07:19:33.002Z</time></trkpt><trkpt lat="43.5387198" lon="10.7004634"><ele>56.333333333333336</ele><time>2026-04-18T07:19:34.002Z</time></trkpt><trkpt lat="43.5388826" lon="10.7004434"><ele>56.0</ele><time>2026-04-18T07:19:35.001Z</time></trkpt><trkpt lat="43.5390442" lon="10.7004214"><ele>56.0</ele><time>2026-04-18T07:19:36.002Z</time></trkpt><trkpt lat="43.5392094" lon="10.7003986"><ele>56.0</ele><time>2026-04-18T07:19:37.001Z</time></trkpt><trkpt lat="43.5393809" lon="10.7003827"><ele>56.0</ele><time>2026-04-18T07:19:38.002Z</time></trkpt><trkpt lat="43.5395475" lon="10.7003637"><ele>56.333333333333336</ele><time>2026-04-18T07:19:39.002Z</time></trkpt><trkpt lat="43.5397095" lon="10.7003445"><ele>56.66666666666667</ele><time>2026-04-18T07:19:40.002Z</time></trkpt><trkpt lat="43.539876" lon="10.7003219"><ele>57.0</ele><time>2026-04-18T07:19:41.002Z</time></trkpt><trkpt lat="43.5400222" lon="10.700298"><ele>57.0</ele><time>2026-04-18T07:19:42.002Z</time></trkpt><trkpt lat="43.5401406" lon="10.7002849"><ele>57.0</ele><time>2026-04-18T07:19:43.002Z</time></trkpt><trkpt lat="43.540252" lon="10.7002624"><ele>57.0</ele><time>2026-04-18T07:19:44.002Z</time></trkpt><trkpt lat="43.5403445" lon="10.7002482"><ele>57.0</ele><time>2026-04-18T07:19:45.002Z</time></trkpt><trkpt lat="43.5404215" lon="10.7002372"><ele>57.0</ele><time>2026-04-18T07:19:46.002Z</time></trkpt><trkpt lat="43.5405342" lon="10.7002219"><ele>57.25</ele><time>2026-04-18T07:19:48.001Z</time></trkpt><trkpt lat="43.5406039" lon="10.7002202"><ele>57.5</ele><time>2026-04-18T07:19:52.002Z</time></trkpt><trkpt lat="43.5406802" lon="10.7002053"><ele>57.75</ele><time>2026-04-18T07:20:10.002Z</time></trkpt><trkpt lat="43.5407752" lon="10.7001922"><ele>58.0</ele><time>2026-04-18T07:20:11.002Z</time></trkpt><trkpt lat="43.5409927" lon="10.7001394"><ele>58.0</ele><time>2026-04-18T07:20:13.001Z</time></trkpt><trkpt lat="43.5410842" lon="10.700131"><ele>58.0</ele><time>2026-04-18T07:20:14.001Z</time></trkpt><trkpt lat="43.5411738" lon="10.7001264"><ele>58.0</ele><time>2026-04-18T07:20:15.001Z</time></trkpt><trkpt lat="43.5412702" lon="10.7001244"><ele>58.0</ele><time>2026-04-18T07:20:16.002Z</time></trkpt><trkpt lat="43.5413638" lon="10.7001122"><ele>58.0</ele><time>2026-04-18T07:20:17.002Z</time></trkpt><trkpt lat="43.5415043" lon="10.7000924"><ele>57.599999999999994</ele><time>2026-04-18T07:20:19.002Z</time></trkpt><trkpt lat="43.5416704" lon="10.7001919"><ele>57.199999999999996</ele><time>2026-04-18T07:20:22.002Z</time></trkpt><trkpt lat="43.5417184" lon="10.7002666"><ele>56.8</ele><time>2026-04-18T07:20:23.002Z</time></trkpt><trkpt lat="43.541753" lon="10.7003751"><ele>56.4</ele><time>2026-04-18T07:20:24.001Z</time></trkpt><trkpt lat="43.5417714" lon="10.7004967"><ele>56.0</ele><time>2026-04-18T07:20:25.002Z</time></trkpt><trkpt lat="43.541786" lon="10.7006463"><ele>56.0</ele><time>2026-04-18T07:20:26.002Z</time></trkpt><trkpt lat="43.5418042" lon="10.7008149"><ele>56.0</ele><time>2026-04-18T07:20:27.001Z</time></trkpt><trkpt lat="43.5418262" lon="10.7009877"><ele>56.0</ele><time>2026-04-18T07:20:28.002Z</time></trkpt><trkpt lat="43.5418472" lon="10.7011622"><ele>56.0</ele><time>2026-04-18T07:20:29.002Z</time></trkpt><trkpt lat="43.5418688" lon="10.7013322"><ele>55.5</ele><time>2026-04-18T07:20:30.001Z</time></trkpt><trkpt lat="43.5418895" lon="10.7014909"><ele>55.0</ele><time>2026-04-18T07:20:31.002Z</time></trkpt><trkpt lat="43.5419133" lon="10.7016386"><ele>54.5</ele><time>2026-04-18T07:20:32.002Z</time></trkpt><trkpt lat="43.5419345" lon="10.7018001"><ele>54.0</ele><time>2026-04-18T07:20:33.001Z</time></trkpt><trkpt lat="43.5419599" lon="10.7019764"><ele>53.5</ele><time>2026-04-18T07:20:34.002Z</time></trkpt><trkpt lat="43.5420111" lon="10.7023681"><ele>53.0</ele><time>2026-04-18T07:20:36.002Z</time></trkpt><trkpt lat="43.5420718" lon="10.7027853"><ele>52.333333333333336</ele><time>2026-04-18T07:20:38.002Z</time></trkpt><trkpt lat="43.5421017" lon="10.7029932"><ele>51.66666666666667</ele><time>2026-04-18T07:20:39.002Z</time></trkpt><trkpt lat="43.542132" lon="10.703205"><ele>51.0</ele><time>2026-04-18T07:20:40.001Z</time></trkpt><trkpt lat="43.5421618" lon="10.7034069"><ele>51.0</ele><time>2026-04-18T07:20:41.001Z</time></trkpt><trkpt lat="43.5421864" lon="10.7036017"><ele>51.0</ele><time>2026-04-18T07:20:42.002Z</time></trkpt><trkpt lat="43.5422104" lon="10.7037904"><ele>51.0</ele><time>2026-04-18T07:20:43.001Z</time></trkpt><trkpt lat="43.5422344" lon="10.7039737"><ele>51.0</ele><time>2026-04-18T07:20:44.002Z</time></trkpt><trkpt lat="43.5422501" lon="10.7041434"><ele>51.0</ele><time>2026-04-18T07:20:45.002Z</time></trkpt><trkpt lat="43.5422727" lon="10.7043135"><ele>51.0</ele><time>2026-04-18T07:20:46.002Z</time></trkpt><trkpt lat="43.5422869" lon="10.7044663"><ele>51.0</ele><time>2026-04-18T07:20:47.002Z</time></trkpt><trkpt lat="43.5423109" lon="10.7046084"><ele>51.0</ele><time>2026-04-18T07:20:48.001Z</time></trkpt><trkpt lat="43.5423344" lon="10.7047575"><ele>50.75</ele><time>2026-04-18T07:20:49.002Z</time></trkpt><trkpt lat="43.5423615" lon="10.7049025"><ele>50.5</ele><time>2026-04-18T07:20:50.001Z</time></trkpt><trkpt lat="43.5423924" lon="10.7050616"><ele>50.25</ele><time>2026-04-18T07:20:51.001Z</time></trkpt><trkpt lat="43.5424262" lon="10.7052433"><ele>50.0</ele><time>2026-04-18T07:20:52.002Z</time></trkpt><trkpt lat="43.5424608" lon="10.7054611"><ele>50.0</ele><time>2026-04-18T07:20:53.002Z</time></trkpt><trkpt lat="43.54249" lon="10.7056971"><ele>50.0</ele><time>2026-04-18T07:20:54.001Z</time></trkpt><trkpt lat="43.5425108" lon="10.7059297"><ele>50.0</ele><time>2026-04-18T07:20:55.001Z</time></trkpt><trkpt lat="43.5425266" lon="10.7061498"><ele>50.333333333333336</ele><time>2026-04-18T07:20:56.002Z</time></trkpt><trkpt lat="43.5425403" lon="10.7063576"><ele>50.66666666666667</ele><time>2026-04-18T07:20:57.001Z</time></trkpt><trkpt lat="43.5425629" lon="10.7065605"><ele>51.0</ele><time>2026-04-18T07:20:58.001Z</time></trkpt><trkpt lat="43.5425986" lon="10.7067749"><ele>50.33333333333333</ele><time>2026-04-18T07:20:59.001Z</time></trkpt><trkpt lat="43.5426332" lon="10.7069845"><ele>49.666666666666664</ele><time>2026-04-18T07:21:00.002Z</time></trkpt><trkpt lat="43.5426698" lon="10.7071993"><ele>49.0</ele><time>2026-04-18T07:21:01.001Z</time></trkpt><trkpt lat="43.542698" lon="10.7074143"><ele>49.0</ele><time>2026-04-18T07:21:02.002Z</time></trkpt><trkpt lat="43.5427237" lon="10.7076379"><ele>49.0</ele><time>2026-04-18T07:21:03.002Z</time></trkpt><trkpt lat="43.5427514" lon="10.7078654"><ele>49.0</ele><time>2026-04-18T07:21:04.002Z</time></trkpt><trkpt lat="43.5427828" lon="10.7081022"><ele>49.0</ele><time>2026-04-18T07:21:05.002Z</time></trkpt><trkpt lat="43.542818" lon="10.7083328"><ele>49.0</ele><time>2026-04-18T07:21:06.002Z</time></trkpt><trkpt lat="43.5428488" lon="10.7085627"><ele>49.0</ele><time>2026-04-18T07:21:07.001Z</time></trkpt><trkpt lat="43.5428786" lon="10.7088018"><ele>49.0</ele><time>2026-04-18T07:21:08.002Z</time></trkpt><trkpt lat="43.5429127" lon="10.7090429"><ele>49.0</ele><time>2026-04-18T07:21:09.002Z</time></trkpt><trkpt lat="43.5429422" lon="10.70929"><ele>49.0</ele><time>2026-04-18T07:21:10.002Z</time></trkpt><trkpt lat="43.5429773" lon="10.7095415"><ele>48.666666666666664</ele><time>2026-04-18T07:21:11.002Z</time></trkpt><trkpt lat="43.5430189" lon="10.709804"><ele>48.33333333333333</ele><time>2026-04-18T07:21:12.002Z</time></trkpt><trkpt lat="43.5430559" lon="10.7100753"><ele>48.0</ele><time>2026-04-18T07:21:13.002Z</time></trkpt><trkpt lat="43.5430947" lon="10.7103392"><ele>47.0</ele><time>2026-04-18T07:21:14.002Z</time></trkpt><trkpt lat="43.5431295" lon="10.7105898"><ele>46.0</ele><time>2026-04-18T07:21:15.002Z</time></trkpt><trkpt lat="43.543163" lon="10.7108259"><ele>45.0</ele><time>2026-04-18T07:21:16.002Z</time></trkpt><trkpt lat="43.5431978" lon="10.7110509"><ele>44.333333333333336</ele><time>2026-04-18T07:21:17.001Z</time></trkpt><trkpt lat="43.5432248" lon="10.7112624"><ele>43.66666666666667</ele><time>2026-04-18T07:21:18.001Z</time></trkpt><trkpt lat="43.543256" lon="10.7114671"><ele>43.0</ele><time>2026-04-18T07:21:19.002Z</time></trkpt><trkpt lat="43.5432853" lon="10.7116725"><ele>43.0</ele><time>2026-04-18T07:21:20.002Z</time></trkpt><trkpt lat="43.5433126" lon="10.7118746"><ele>43.0</ele><time>2026-04-18T07:21:21.002Z</time></trkpt><trkpt lat="43.5433381" lon="10.7120732"><ele>43.0</ele><time>2026-04-18T07:21:22.002Z</time></trkpt><trkpt lat="43.5433627" lon="10.7122745"><ele>43.0</ele><time>2026-04-18T07:21:23.002Z</time></trkpt><trkpt lat="43.5433941" lon="10.7124868"><ele>43.0</ele><time>2026-04-18T07:21:24.002Z</time></trkpt><trkpt lat="43.5434239" lon="10.7126984"><ele>43.0</ele><time>2026-04-18T07:21:25.002Z</time></trkpt><trkpt lat="43.5434509" lon="10.7129166"><ele>43.0</ele><time>2026-04-18T07:21:26.002Z</time></trkpt><trkpt lat="43.5434813" lon="10.7131458"><ele>42.66666666666667</ele><time>2026-04-18T07:21:27.002Z</time></trkpt><trkpt lat="43.5435097" lon="10.7133871"><ele>42.333333333333336</ele><time>2026-04-18T07:21:28.001Z</time></trkpt><trkpt lat="43.5435475" lon="10.7136291"><ele>42.0</ele><time>2026-04-18T07:21:29.002Z</time></trkpt><trkpt lat="43.5435756" lon="10.7138728"><ele>41.666666666666664</ele><time>2026-04-18T07:21:30.002Z</time></trkpt><trkpt lat="43.5436083" lon="10.7141103"><ele>41.33333333333333</ele><time>2026-04-18T07:21:31.002Z</time></trkpt><trkpt lat="43.5436375" lon="10.7143266"><ele>41.0</ele><time>2026-04-18T07:21:32.002Z</time></trkpt><trkpt lat="43.5436666" lon="10.7145173"><ele>42.0</ele><time>2026-04-18T07:21:33.001Z</time></trkpt><trkpt lat="43.5437003" lon="10.7146861"><ele>43.0</ele><time>2026-04-18T07:21:34.002Z</time></trkpt><trkpt lat="43.5437538" lon="10.7148094"><ele>44.0</ele><time>2026-04-18T07:21:35.002Z</time></trkpt><trkpt lat="43.5438149" lon="10.7148866"><ele>45.0</ele><time>2026-04-18T07:21:36.001Z</time></trkpt><trkpt lat="43.5438713" lon="10.7149458"><ele>46.0</ele><time>2026-04-18T07:21:38.002Z</time></trkpt><trkpt lat="43.5438026" lon="10.7149492"><ele>46.0</ele><time>2026-04-18T07:21:59.001Z</time></trkpt><trkpt lat="43.5437775" lon="10.7150378"><ele>46.0</ele><time>2026-04-18T07:22:09.002Z</time></trkpt><trkpt lat="43.5437708" lon="10.7151318"><ele>46.0</ele><time>2026-04-18T07:22:12.001Z</time></trkpt><trkpt lat="43.5437062" lon="10.7151516"><ele>46.0</ele><time>2026-04-18T07:22:22.002Z</time></trkpt><trkpt lat="43.5436564" lon="10.7150325"><ele>46.0</ele><time>2026-04-18T07:22:24.002Z</time></trkpt><trkpt lat="43.543625" lon="10.714926"><ele>46.0</ele><time>2026-04-18T07:22:25.002Z</time></trkpt><trkpt lat="43.5435901" lon="10.714783"><ele>46.0</ele><time>2026-04-18T07:22:26.002Z</time></trkpt><trkpt lat="43.54354" lon="10.714626"><ele>46.0</ele><time>2026-04-18T07:22:27.002Z</time></trkpt><trkpt lat="43.5434959" lon="10.7144779"><ele>46.0</ele><time>2026-04-18T07:22:28.002Z</time></trkpt><trkpt lat="43.5434522" lon="10.7143477"><ele>46.0</ele><time>2026-04-18T07:22:29.001Z</time></trkpt><trkpt lat="43.5434017" lon="10.7142287"><ele>46.0</ele><time>2026-04-18T07:22:30.002Z</time></trkpt><trkpt lat="43.5433448" lon="10.7141372"><ele>45.0</ele><time>2026-04-18T07:22:31.001Z</time></trkpt><trkpt lat="43.5432695" lon="10.7140667"><ele>44.0</ele><time>2026-04-18T07:22:32.002Z</time></trkpt><trkpt lat="43.5431732" lon="10.7140303"><ele>43.0</ele><time>2026-04-18T07:22:33.001Z</time></trkpt><trkpt lat="43.543068" lon="10.7140026"><ele>42.0</ele><time>2026-04-18T07:22:34.002Z</time></trkpt><trkpt lat="43.5429603" lon="10.7140019"><ele>41.0</ele><time>2026-04-18T07:22:35.002Z</time></trkpt><trkpt lat="43.5428641" lon="10.7140433"><ele>41.0</ele><time>2026-04-18T07:22:36.001Z</time></trkpt><trkpt lat="43.5427838" lon="10.7140778"><ele>41.0</ele><time>2026-04-18T07:22:37.002Z</time></trkpt><trkpt lat="43.5426871" lon="10.7140765"><ele>41.0</ele><time>2026-04-18T07:22:38.002Z</time></trkpt><trkpt lat="43.5425569" lon="10.7140553"><ele>41.0</ele><time>2026-04-18T07:22:39.002Z</time></trkpt><trkpt lat="43.5424064" lon="10.7140543"><ele>41.0</ele><time>2026-04-18T07:22:40.002Z</time></trkpt><trkpt lat="43.5422422" lon="10.7140736"><ele>41.0</ele><time>2026-04-18T07:22:41.001Z</time></trkpt><trkpt lat="43.5420724" lon="10.714103"><ele>41.0</ele><time>2026-04-18T07:22:42.001Z</time></trkpt><trkpt lat="43.5419243" lon="10.7141408"><ele>40.75</ele><time>2026-04-18T07:22:43.001Z</time></trkpt><trkpt lat="43.5417926" lon="10.7141723"><ele>40.5</ele><time>2026-04-18T07:22:44.002Z</time></trkpt><trkpt lat="43.5416729" lon="10.7142133"><ele>40.25</ele><time>2026-04-18T07:22:45.002Z</time></trkpt><trkpt lat="43.5415695" lon="10.7142654"><ele>40.0</ele><time>2026-04-18T07:22:46.002Z</time></trkpt><trkpt lat="43.5414665" lon="10.7143089"><ele>40.0</ele><time>2026-04-18T07:22:47.002Z</time></trkpt><trkpt lat="43.5413694" lon="10.7143457"><ele>40.0</ele><time>2026-04-18T07:22:48.001Z</time></trkpt><trkpt lat="43.5412796" lon="10.7143852"><ele>40.0</ele><time>2026-04-18T07:22:49.002Z</time></trkpt><trkpt lat="43.5411859" lon="10.7144189"><ele>40.0</ele><time>2026-04-18T07:22:50.002Z</time></trkpt><trkpt lat="43.5410963" lon="10.714452"><ele>40.0</ele><time>2026-04-18T07:22:51.002Z</time></trkpt><trkpt lat="43.5410075" lon="10.7144779"><ele>41.2</ele><time>2026-04-18T07:22:52.002Z</time></trkpt><trkpt lat="43.5409119" lon="10.7144972"><ele>42.4</ele><time>2026-04-18T07:22:53.001Z</time></trkpt><trkpt lat="43.5408123" lon="10.714515"><ele>43.599999999999994</ele><time>2026-04-18T07:22:54.002Z</time></trkpt><trkpt lat="43.5407078" lon="10.7145141"><ele>44.8</ele><time>2026-04-18T07:22:55.001Z</time></trkpt><trkpt lat="43.5405851" lon="10.7145189"><ele>46.0</ele><time>2026-04-18T07:22:56.002Z</time></trkpt><trkpt lat="43.5404478" lon="10.7145338"><ele>47.199999999999996</ele><time>2026-04-18T07:22:57.002Z</time></trkpt><trkpt lat="43.5403223" lon="10.7145431"><ele>48.4</ele><time>2026-04-18T07:22:58.002Z</time></trkpt><trkpt lat="43.5402168" lon="10.7145396"><ele>49.6</ele><time>2026-04-18T07:22:59.001Z</time></trkpt><trkpt lat="43.5401089" lon="10.7145287"><ele>50.8</ele><time>2026-04-18T07:23:00.001Z</time></trkpt><trkpt lat="43.5400141" lon="10.7145044"><ele>52.0</ele><time>2026-04-18T07:23:01.002Z</time></trkpt><trkpt lat="43.5399359" lon="10.7144943"><ele>52.0</ele><time>2026-04-18T07:23:02.002Z</time></trkpt><trkpt lat="43.5398617" lon="10.7144849"><ele>52.0</ele><time>2026-04-18T07:23:03.002Z</time></trkpt><trkpt lat="43.5397883" lon="10.7144646"><ele>52.0</ele><time>2026-04-18T07:23:04.001Z</time></trkpt><trkpt lat="43.5396857" lon="10.7144584"><ele>52.0</ele><time>2026-04-18T07:23:06.002Z</time></trkpt><trkpt lat="43.5395427" lon="10.7144997"><ele>52.0</ele><time>2026-04-18T07:23:08.002Z</time></trkpt><trkpt lat="43.5394529" lon="10.7145978"><ele>51.8</ele><time>2026-04-18T07:23:09.001Z</time></trkpt><trkpt lat="43.539379" lon="10.7147251"><ele>51.6</ele><time>2026-04-18T07:23:10.002Z</time></trkpt><trkpt lat="43.539316" lon="10.7148453"><ele>51.4</ele><time>2026-04-18T07:23:11.002Z</time></trkpt><trkpt lat="43.5392563" lon="10.7149203"><ele>51.199999999999996</ele><time>2026-04-18T07:23:12.001Z</time></trkpt><trkpt lat="43.5391541" lon="10.7149112"><ele>51.0</ele><time>2026-04-18T07:23:14.002Z</time></trkpt><trkpt lat="43.5391102" lon="10.7148346"><ele>51.0</ele><time>2026-04-18T07:23:15.002Z</time></trkpt><trkpt lat="43.5390781" lon="10.7147012"><ele>51.0</ele><time>2026-04-18T07:23:16.002Z</time></trkpt><trkpt lat="43.5390424" lon="10.7145384"><ele>51.0</ele><time>2026-04-18T07:23:17.001Z</time></trkpt><trkpt lat="43.5389676" lon="10.7143731"><ele>51.0</ele><time>2026-04-18T07:23:18.002Z</time></trkpt><trkpt lat="43.5388538" lon="10.7142262"><ele>49.666666666666664</ele><time>2026-04-18T07:23:19.002Z</time></trkpt><trkpt lat="43.5387505" lon="10.7141173"><ele>48.333333333333336</ele><time>2026-04-18T07:23:20.001Z</time></trkpt><trkpt lat="43.5386752" lon="10.7140401"><ele>47.0</ele><time>2026-04-18T07:23:21.002Z</time></trkpt><trkpt lat="43.5386087" lon="10.713969"><ele>45.66666666666667</ele><time>2026-04-18T07:23:22.001Z</time></trkpt><trkpt lat="43.5385472" lon="10.7139267"><ele>44.333333333333336</ele><time>2026-04-18T07:23:23.001Z</time></trkpt><trkpt lat="43.5384825" lon="10.713893"><ele>43.0</ele><time>2026-04-18T07:23:24.002Z</time></trkpt><trkpt lat="43.538417" lon="10.7138343"><ele>43.0</ele><time>2026-04-18T07:23:25.002Z</time></trkpt><trkpt lat="43.5383593" lon="10.7137656"><ele>43.0</ele><time>2026-04-18T07:23:26.002Z</time></trkpt><trkpt lat="43.5383161" lon="10.7136838"><ele>43.0</ele><time>2026-04-18T07:23:27.002Z</time></trkpt><trkpt lat="43.5382764" lon="10.7135719"><ele>43.0</ele><time>2026-04-18T07:23:28.002Z</time></trkpt><trkpt lat="43.538271" lon="10.713459"><ele>43.0</ele><time>2026-04-18T07:23:29.002Z</time></trkpt><trkpt lat="43.5383078" lon="10.7133782"><ele>43.0</ele><time>2026-04-18T07:23:30.002Z</time></trkpt><trkpt lat="43.5383388" lon="10.7132986"><ele>42.8</ele><time>2026-04-18T07:23:31.002Z</time></trkpt><trkpt lat="43.5383032" lon="10.7131418"><ele>42.599999999999994</ele><time>2026-04-18T07:23:33.002Z</time></trkpt><trkpt lat="43.538211" lon="10.7130793"><ele>42.400000000000006</ele><time>2026-04-18T07:23:34.002Z</time></trkpt><trkpt lat="43.5381289" lon="10.7130151"><ele>42.2</ele><time>2026-04-18T07:23:35.002Z</time></trkpt><trkpt lat="43.5380245" lon="10.7129095"><ele>42.0</ele><time>2026-04-18T07:23:36.001Z</time></trkpt><trkpt lat="43.5379262" lon="10.7127997"><ele>42.0</ele><time>2026-04-18T07:23:37.002Z</time></trkpt><trkpt lat="43.5378261" lon="10.7126837"><ele>42.0</ele><time>2026-04-18T07:23:38.002Z</time></trkpt><trkpt lat="43.5377081" lon="10.7125685"><ele>42.0</ele><time>2026-04-18T07:23:39.002Z</time></trkpt><trkpt lat="43.5375775" lon="10.7124426"><ele>42.0</ele><time>2026-04-18T07:23:40.002Z</time></trkpt><trkpt lat="43.5374237" lon="10.7123076"><ele>42.0</ele><time>2026-04-18T07:23:41.001Z</time></trkpt><trkpt lat="43.5372815" lon="10.7121599"><ele>42.0</ele><time>2026-04-18T07:23:42.001Z</time></trkpt><trkpt lat="43.5371382" lon="10.7120212"><ele>42.0</ele><time>2026-04-18T07:23:43.002Z</time></trkpt><trkpt lat="43.5370058" lon="10.7119039"><ele>42.0</ele><time>2026-04-18T07:23:44.002Z</time></trkpt><trkpt lat="43.5368694" lon="10.7118261"><ele>42.0</ele><time>2026-04-18T07:23:45.002Z</time></trkpt><trkpt lat="43.5367159" lon="10.7117791"><ele>42.0</ele><time>2026-04-18T07:23:46.001Z</time></trkpt><trkpt lat="43.5365608" lon="10.7117581"><ele>42.0</ele><time>2026-04-18T07:23:47.002Z</time></trkpt><trkpt lat="43.5364002" lon="10.7117373"><ele>42.0</ele><time>2026-04-18T07:23:48.002Z</time></trkpt><trkpt lat="43.5362511" lon="10.7117273"><ele>42.0</ele><time>2026-04-18T07:23:49.002Z</time></trkpt><trkpt lat="43.536121" lon="10.7117109"><ele>42.0</ele><time>2026-04-18T07:23:50.002Z</time></trkpt><trkpt lat="43.5360047" lon="10.7116924"><ele>41.8</ele><time>2026-04-18T07:23:51.002Z</time></trkpt><trkpt lat="43.5358997" lon="10.7116658"><ele>41.6</ele><time>2026-04-18T07:23:52.002Z</time></trkpt><trkpt lat="43.5357965" lon="10.7116327"><ele>41.4</ele><time>2026-04-18T07:23:53.002Z</time></trkpt><trkpt lat="43.5357088" lon="10.7115932"><ele>41.199999999999996</ele><time>2026-04-18T07:23:54.002Z</time></trkpt><trkpt lat="43.53563" lon="10.711551"><ele>41.0</ele><time>2026-04-18T07:23:55.002Z</time></trkpt><trkpt lat="43.5355433" lon="10.711508"><ele>41.0</ele><time>2026-04-18T07:23:56.001Z</time></trkpt><trkpt lat="43.535452" lon="10.7114652"><ele>41.0</ele><time>2026-04-18T07:23:57.001Z</time></trkpt><trkpt lat="43.5353544" lon="10.7114187"><ele>41.0</ele><time>2026-04-18T07:23:58.001Z</time></trkpt><trkpt lat="43.5352535" lon="10.7113761"><ele>41.0</ele><time>2026-04-18T07:23:59.001Z</time></trkpt><trkpt lat="43.5351562" lon="10.7113267"><ele>41.0</ele><time>2026-04-18T07:24:00.001Z</time></trkpt><trkpt lat="43.5350663" lon="10.7112779"><ele>41.0</ele><time>2026-04-18T07:24:01Z</time></trkpt><trkpt lat="43.5349737" lon="10.711232"><ele>41.0</ele><time>2026-04-18T07:24:02.001Z</time></trkpt><trkpt lat="43.5348769" lon="10.7111847"><ele>41.0</ele><time>2026-04-18T07:24:03Z</time></trkpt><trkpt lat="43.5347735" lon="10.7111398"><ele>41.0</ele><time>2026-04-18T07:24:04.001Z</time></trkpt><trkpt lat="43.5346637" lon="10.7110828"><ele>41.0</ele><time>2026-04-18T07:24:05.001Z</time></trkpt><trkpt lat="43.5345624" lon="10.7110348"><ele>41.199999999999996</ele><time>2026-04-18T07:24:06.001Z</time></trkpt><trkpt lat="43.5344763" lon="10.7109935"><ele>41.4</ele><time>2026-04-18T07:24:07.001Z</time></trkpt><trkpt lat="43.5343996" lon="10.710939"><ele>41.6</ele><time>2026-04-18T07:24:08Z</time></trkpt><trkpt lat="43.534326" lon="10.7108861"><ele>41.8</ele><time>2026-04-18T07:24:09Z</time></trkpt><trkpt lat="43.5342106" lon="10.7109327"><ele>42.0</ele><time>2026-04-18T07:24:11.001Z</time></trkpt><trkpt lat="43.5341714" lon="10.7110295"><ele>41.75</ele><time>2026-04-18T07:24:12.001Z</time></trkpt><trkpt lat="43.5341479" lon="10.71117"><ele>41.5</ele><time>2026-04-18T07:24:13.001Z</time></trkpt><trkpt lat="43.5340986" lon="10.7113544"><ele>41.25</ele><time>2026-04-18T07:24:14.001Z</time></trkpt><trkpt lat="43.5340552" lon="10.7115167"><ele>41.0</ele><time>2026-04-18T07:24:15Z</time></trkpt><trkpt lat="43.5340143" lon="10.7116516"><ele>41.0</ele><time>2026-04-18T07:24:16.001Z</time></trkpt><trkpt lat="43.5339597" lon="10.7117163"><ele>41.0</ele><time>2026-04-18T07:24:17.001Z</time></trkpt><trkpt lat="43.5338685" lon="10.7117442"><ele>41.0</ele><time>2026-04-18T07:24:18.001Z</time></trkpt><trkpt lat="43.5337625" lon="10.7117713"><ele>41.0</ele><time>2026-04-18T07:24:19Z</time></trkpt><trkpt lat="43.5336314" lon="10.7118096"><ele>41.0</ele><time>2026-04-18T07:24:20Z</time></trkpt><trkpt lat="43.5335059" lon="10.7118712"><ele>42.33333333333333</ele><time>2026-04-18T07:24:21.001Z</time></trkpt><trkpt lat="43.5333546" lon="10.7119295"><ele>43.666666666666664</ele><time>2026-04-18T07:24:22.001Z</time></trkpt><trkpt lat="43.5331973" lon="10.7119925"><ele>45.0</ele><time>2026-04-18T07:24:23.001Z</time></trkpt><trkpt lat="43.5330141" lon="10.712058"><ele>44.666666666666664</ele><time>2026-04-18T07:24:24.001Z</time></trkpt><trkpt lat="43.5328254" lon="10.7121305"><ele>44.33333333333333</ele><time>2026-04-18T07:24:25.001Z</time></trkpt><trkpt lat="43.5326451" lon="10.7122014"><ele>44.0</ele><time>2026-04-18T07:24:26.001Z</time></trkpt><trkpt lat="43.5324587" lon="10.7122852"><ele>44.0</ele><time>2026-04-18T07:24:27Z</time></trkpt><trkpt lat="43.5322631" lon="10.7123643"><ele>44.0</ele><time>2026-04-18T07:24:28Z</time></trkpt><trkpt lat="43.5320699" lon="10.7124464"><ele>44.0</ele><time>2026-04-18T07:24:29.001Z</time></trkpt><trkpt lat="43.5318686" lon="10.7125254"><ele>44.0</ele><time>2026-04-18T07:24:30Z</time></trkpt><trkpt lat="43.5316774" lon="10.7126084"><ele>44.0</ele><time>2026-04-18T07:24:31Z</time></trkpt><trkpt lat="43.5314954" lon="10.7126827"><ele>44.0</ele><time>2026-04-18T07:24:32Z</time></trkpt><trkpt lat="43.5313259" lon="10.7127536"><ele>43.75</ele><time>2026-04-18T07:24:33.001Z</time></trkpt><trkpt lat="43.5311797" lon="10.7128072"><ele>43.5</ele><time>2026-04-18T07:24:34.001Z</time></trkpt><trkpt lat="43.5310477" lon="10.7128678"><ele>43.25</ele><time>2026-04-18T07:24:35.001Z</time></trkpt><trkpt lat="43.5309057" lon="10.7129287"><ele>43.0</ele><time>2026-04-18T07:24:36.001Z</time></trkpt><trkpt lat="43.530754" lon="10.7130003"><ele>43.0</ele><time>2026-04-18T07:24:37Z</time></trkpt><trkpt lat="43.5306037" lon="10.7130654"><ele>43.0</ele><time>2026-04-18T07:24:38.001Z</time></trkpt><trkpt lat="43.5304487" lon="10.7131259"><ele>43.0</ele><time>2026-04-18T07:24:39Z</time></trkpt><trkpt lat="43.5302917" lon="10.7131887"><ele>43.333333333333336</ele><time>2026-04-18T07:24:40.001Z</time></trkpt><trkpt lat="43.5301199" lon="10.7132474"><ele>43.666666666666664</ele><time>2026-04-18T07:24:41.001Z</time></trkpt><trkpt lat="43.5299479" lon="10.7133103"><ele>44.0</ele><time>2026-04-18T07:24:42.001Z</time></trkpt><trkpt lat="43.5297637" lon="10.713383"><ele>44.0</ele><time>2026-04-18T07:24:43Z</time></trkpt><trkpt lat="43.5295806" lon="10.7134557"><ele>44.0</ele><time>2026-04-18T07:24:44.001Z</time></trkpt><trkpt lat="43.5293978" lon="10.7135234"><ele>44.0</ele><time>2026-04-18T07:24:45Z</time></trkpt><trkpt lat="43.5292159" lon="10.7135983"><ele>43.666666666666664</ele><time>2026-04-18T07:24:46.001Z</time></trkpt><trkpt lat="43.5290492" lon="10.7136646"><ele>43.333333333333336</ele><time>2026-04-18T07:24:47.001Z</time></trkpt><trkpt lat="43.5288942" lon="10.713734"><ele>43.0</ele><time>2026-04-18T07:24:48.001Z</time></trkpt><trkpt lat="43.5287446" lon="10.7137976"><ele>43.66666666666667</ele><time>2026-04-18T07:24:49.001Z</time></trkpt><trkpt lat="43.5285745" lon="10.713861"><ele>44.333333333333336</ele><time>2026-04-18T07:24:50.001Z</time></trkpt><trkpt lat="43.5283862" lon="10.7139314"><ele>45.0</ele><time>2026-04-18T07:24:51.001Z</time></trkpt><trkpt lat="43.52819" lon="10.7140081"><ele>45.0</ele><time>2026-04-18T07:24:52.001Z</time></trkpt><trkpt lat="43.5279899" lon="10.7140931"><ele>45.0</ele><time>2026-04-18T07:24:53Z</time></trkpt><trkpt lat="43.5277816" lon="10.7141732"><ele>45.0</ele><time>2026-04-18T07:24:54.001Z</time></trkpt><trkpt lat="43.5275875" lon="10.7142572"><ele>45.0</ele><time>2026-04-18T07:24:55.001Z</time></trkpt><trkpt lat="43.5273903" lon="10.7143375"><ele>45.0</ele><time>2026-04-18T07:24:56.001Z</time></trkpt><trkpt lat="43.5271967" lon="10.7144228"><ele>45.0</ele><time>2026-04-18T07:24:57.001Z</time></trkpt><trkpt lat="43.5270124" lon="10.7144963"><ele>47.33333333333333</ele><time>2026-04-18T07:24:58.001Z</time></trkpt><trkpt lat="43.5268361" lon="10.7145639"><ele>49.666666666666664</ele><time>2026-04-18T07:24:59.001Z</time></trkpt><trkpt lat="43.5266574" lon="10.7146366"><ele>52.0</ele><time>2026-04-18T07:25:00Z</time></trkpt><trkpt lat="43.5264805" lon="10.7147108"><ele>52.0</ele><time>2026-04-18T07:25:01Z</time></trkpt><trkpt lat="43.5263101" lon="10.7147878"><ele>52.0</ele><time>2026-04-18T07:25:02.001Z</time></trkpt><trkpt lat="43.5261367" lon="10.7148597"><ele>52.0</ele><time>2026-04-18T07:25:03Z</time></trkpt><trkpt lat="43.525975" lon="10.7149203"><ele>50.0</ele><time>2026-04-18T07:25:04.001Z</time></trkpt><trkpt lat="43.5258238" lon="10.7149802"><ele>48.0</ele><time>2026-04-18T07:25:05.001Z</time></trkpt><trkpt lat="43.5256706" lon="10.7150442"><ele>46.0</ele><time>2026-04-18T07:25:06Z</time></trkpt><trkpt lat="43.5255258" lon="10.7151046"><ele>45.5</ele><time>2026-04-18T07:25:07.001Z</time></trkpt><trkpt lat="43.5253942" lon="10.7151502"><ele>45.0</ele><time>2026-04-18T07:25:08.001Z</time></trkpt><trkpt lat="43.5252598" lon="10.7152045"><ele>44.5</ele><time>2026-04-18T07:25:09.001Z</time></trkpt><trkpt lat="43.5251252" lon="10.7152585"><ele>44.0</ele><time>2026-04-18T07:25:10.001Z</time></trkpt><trkpt lat="43.5250023" lon="10.7153197"><ele>44.666666666666664</ele><time>2026-04-18T07:25:11.001Z</time></trkpt><trkpt lat="43.5248933" lon="10.7153682"><ele>45.33333333333333</ele><time>2026-04-18T07:25:12.001Z</time></trkpt><trkpt lat="43.5248016" lon="10.7153823"><ele>46.0</ele><time>2026-04-18T07:25:13.001Z</time></trkpt><trkpt lat="43.5247376" lon="10.7153961"><ele>46.666666666666664</ele><time>2026-04-18T07:25:14.001Z</time></trkpt><trkpt lat="43.5246864" lon="10.7154683"><ele>47.333333333333336</ele><time>2026-04-18T07:25:15.001Z</time></trkpt><trkpt lat="43.5246314" lon="10.7155662"><ele>48.0</ele><time>2026-04-18T07:25:16.001Z</time></trkpt><trkpt lat="43.5245974" lon="10.7157051"><ele>48.0</ele><time>2026-04-18T07:25:17.001Z</time></trkpt><trkpt lat="43.5245806" lon="10.7158336"><ele>48.0</ele><time>2026-04-18T07:25:18.001Z</time></trkpt><trkpt lat="43.5245708" lon="10.7159503"><ele>48.0</ele><time>2026-04-18T07:25:19.001Z</time></trkpt><trkpt lat="43.5245666" lon="10.7160682"><ele>48.0</ele><time>2026-04-18T07:25:20.001Z</time></trkpt><trkpt lat="43.5245664" lon="10.7161916"><ele>48.0</ele><time>2026-04-18T07:25:21.001Z</time></trkpt><trkpt lat="43.524563" lon="10.7163267"><ele>47.2</ele><time>2026-04-18T07:25:22Z</time></trkpt><trkpt lat="43.5245626" lon="10.716467"><ele>46.4</ele><time>2026-04-18T07:25:23.001Z</time></trkpt><trkpt lat="43.5245472" lon="10.7166163"><ele>45.6</ele><time>2026-04-18T07:25:24Z</time></trkpt><trkpt lat="43.5245178" lon="10.7167654"><ele>44.800000000000004</ele><time>2026-04-18T07:25:25.001Z</time></trkpt><trkpt lat="43.5244806" lon="10.7168905"><ele>44.0</ele><time>2026-04-18T07:25:26.001Z</time></trkpt><trkpt lat="43.5244445" lon="10.7169994"><ele>44.0</ele><time>2026-04-18T07:25:27.001Z</time></trkpt><trkpt lat="43.5244062" lon="10.7170914"><ele>44.0</ele><time>2026-04-18T07:25:28Z</time></trkpt><trkpt lat="43.5243753" lon="10.7171761"><ele>44.0</ele><time>2026-04-18T07:25:29.001Z</time></trkpt><trkpt lat="43.5243493" lon="10.7172603"><ele>44.0</ele><time>2026-04-18T07:25:30.001Z</time></trkpt><trkpt lat="43.5243204" lon="10.7173467"><ele>44.0</ele><time>2026-04-18T07:25:31.001Z</time></trkpt><trkpt lat="43.5242881" lon="10.7174481"><ele>44.0</ele><time>2026-04-18T07:25:32Z</time></trkpt><trkpt lat="43.524251" lon="10.7175665"><ele>44.0</ele><time>2026-04-18T07:25:33.001Z</time></trkpt><trkpt lat="43.5242121" lon="10.7177035"><ele>44.0</ele><time>2026-04-18T07:25:34.001Z</time></trkpt><trkpt lat="43.5241661" lon="10.7178647"><ele>44.0</ele><time>2026-04-18T07:25:35Z</time></trkpt><trkpt lat="43.5241241" lon="10.7180491"><ele>44.0</ele><time>2026-04-18T07:25:36Z</time></trkpt><trkpt lat="43.5240735" lon="10.7182498"><ele>44.75</ele><time>2026-04-18T07:25:37.001Z</time></trkpt><trkpt lat="43.5240272" lon="10.718447"><ele>45.5</ele><time>2026-04-18T07:25:38.001Z</time></trkpt><trkpt lat="43.5239816" lon="10.7186374"><ele>46.25</ele><time>2026-04-18T07:25:39.001Z</time></trkpt><trkpt lat="43.5239238" lon="10.7188307"><ele>47.0</ele><time>2026-04-18T07:25:40Z</time></trkpt><trkpt lat="43.5238614" lon="10.7190291"><ele>47.25</ele><time>2026-04-18T07:25:41.001Z</time></trkpt><trkpt lat="43.523802" lon="10.7192262"><ele>47.5</ele><time>2026-04-18T07:25:42.001Z</time></trkpt><trkpt lat="43.5237452" lon="10.7194202"><ele>47.75</ele><time>2026-04-18T07:25:43.001Z</time></trkpt><trkpt lat="43.5237083" lon="10.7195705"><ele>48.0</ele><time>2026-04-18T07:25:44.001Z</time></trkpt><trkpt lat="43.5236632" lon="10.7197077"><ele>47.5</ele><time>2026-04-18T07:25:45Z</time></trkpt><trkpt lat="43.5236066" lon="10.7198813"><ele>47.0</ele><time>2026-04-18T07:25:46.001Z</time></trkpt><trkpt lat="43.523533" lon="10.7200626"><ele>46.5</ele><time>2026-04-18T07:25:47.001Z</time></trkpt><trkpt lat="43.5234576" lon="10.7202471"><ele>46.0</ele><time>2026-04-18T07:25:48Z</time></trkpt><trkpt lat="43.5233786" lon="10.7204503"><ele>46.0</ele><time>2026-04-18T07:25:49.001Z</time></trkpt><trkpt lat="43.5233178" lon="10.7206727"><ele>46.0</ele><time>2026-04-18T07:25:50Z</time></trkpt><trkpt lat="43.5232754" lon="10.7209194"><ele>46.0</ele><time>2026-04-18T07:25:51.001Z</time></trkpt><trkpt lat="43.5232265" lon="10.7211327"><ele>46.0</ele><time>2026-04-18T07:25:52Z</time></trkpt><trkpt lat="43.5231644" lon="10.7213457"><ele>46.0</ele><time>2026-04-18T07:25:53.001Z</time></trkpt><trkpt lat="43.5230864" lon="10.7215384"><ele>46.0</ele><time>2026-04-18T07:25:54.001Z</time></trkpt><trkpt lat="43.5230057" lon="10.7217033"><ele>46.0</ele><time>2026-04-18T07:25:55.001Z</time></trkpt><trkpt lat="43.5229151" lon="10.721861"><ele>46.0</ele><time>2026-04-18T07:25:56Z</time></trkpt><trkpt lat="43.5228206" lon="10.7220044"><ele>46.0</ele><time>2026-04-18T07:25:57.001Z</time></trkpt><trkpt lat="43.5227466" lon="10.7221559"><ele>46.0</ele><time>2026-04-18T07:25:58.001Z</time></trkpt><trkpt lat="43.5226674" lon="10.7222847"><ele>47.333333333333336</ele><time>2026-04-18T07:25:59.001Z</time></trkpt><trkpt lat="43.5225678" lon="10.7224159"><ele>48.66666666666667</ele><time>2026-04-18T07:26:00Z</time></trkpt><trkpt lat="43.5224521" lon="10.7225449"><ele>50.0</ele><time>2026-04-18T07:26:01.001Z</time></trkpt><trkpt lat="43.5223224" lon="10.7226839"><ele>50.0</ele><time>2026-04-18T07:26:02.001Z</time></trkpt><trkpt lat="43.5221967" lon="10.7228189"><ele>50.0</ele><time>2026-04-18T07:26:03Z</time></trkpt><trkpt lat="43.5220745" lon="10.7229234"><ele>50.0</ele><time>2026-04-18T07:26:04.001Z</time></trkpt><trkpt lat="43.5219586" lon="10.7230045"><ele>50.0</ele><time>2026-04-18T07:26:05.001Z</time></trkpt><trkpt lat="43.5218468" lon="10.7230913"><ele>50.0</ele><time>2026-04-18T07:26:06.001Z</time></trkpt><trkpt lat="43.5217263" lon="10.7232103"><ele>50.0</ele><time>2026-04-18T07:26:07.001Z</time></trkpt><trkpt lat="43.5215903" lon="10.7233415"><ele>50.0</ele><time>2026-04-18T07:26:08Z</time></trkpt><trkpt lat="43.5214692" lon="10.7235004"><ele>49.75</ele><time>2026-04-18T07:26:09.001Z</time></trkpt><trkpt lat="43.5213704" lon="10.7236435"><ele>49.5</ele><time>2026-04-18T07:26:10.001Z</time></trkpt><trkpt lat="43.5212846" lon="10.7237861"><ele>49.25</ele><time>2026-04-18T07:26:11.001Z</time></trkpt><trkpt lat="43.5211962" lon="10.7239368"><ele>49.0</ele><time>2026-04-18T07:26:12Z</time></trkpt><trkpt lat="43.5211179" lon="10.7241083"><ele>48.75</ele><time>2026-04-18T07:26:13.001Z</time></trkpt><trkpt lat="43.5210263" lon="10.7242818"><ele>48.5</ele><time>2026-04-18T07:26:14.001Z</time></trkpt><trkpt lat="43.5209229" lon="10.724437"><ele>48.25</ele><time>2026-04-18T07:26:15Z</time></trkpt><trkpt lat="43.5208401" lon="10.7245683"><ele>48.0</ele><time>2026-04-18T07:26:16.001Z</time></trkpt><trkpt lat="43.5207796" lon="10.7246935"><ele>48.0</ele><time>2026-04-18T07:26:17.001Z</time></trkpt><trkpt lat="43.5207609" lon="10.724835"><ele>48.0</ele><time>2026-04-18T07:26:18.001Z</time></trkpt><trkpt lat="43.5207743" lon="10.7250199"><ele>48.0</ele><time>2026-04-18T07:26:19.001Z</time></trkpt><trkpt lat="43.5207873" lon="10.7252204"><ele>48.0</ele><time>2026-04-18T07:26:20.001Z</time></trkpt><trkpt lat="43.5207982" lon="10.7254223"><ele>48.33333333333333</ele><time>2026-04-18T07:26:21.001Z</time></trkpt><trkpt lat="43.5208186" lon="10.7256419"><ele>48.666666666666664</ele><time>2026-04-18T07:26:22.001Z</time></trkpt><trkpt lat="43.5208703" lon="10.7258524"><ele>49.0</ele><time>2026-04-18T07:26:23Z</time></trkpt><trkpt lat="43.520932" lon="10.7260487"><ele>49.5</ele><time>2026-04-18T07:26:24Z</time></trkpt><trkpt lat="43.520966" lon="10.726191"><ele>50.0</ele><time>2026-04-18T07:26:25.001Z</time></trkpt><trkpt lat="43.5209709" lon="10.7262847"><ele>50.5</ele><time>2026-04-18T07:26:26.001Z</time></trkpt><trkpt lat="43.5208613" lon="10.7264367"><ele>51.0</ele><time>2026-04-18T07:26:28Z</time></trkpt><trkpt lat="43.5207547" lon="10.7265206"><ele>51.0</ele><time>2026-04-18T07:26:29.001Z</time></trkpt><trkpt lat="43.5206619" lon="10.7265613"><ele>51.0</ele><time>2026-04-18T07:26:30.001Z</time></trkpt><trkpt lat="43.5205628" lon="10.7266235"><ele>51.0</ele><time>2026-04-18T07:26:31.001Z</time></trkpt><trkpt lat="43.5204499" lon="10.726704"><ele>51.0</ele><time>2026-04-18T07:26:32.001Z</time></trkpt><trkpt lat="43.5203346" lon="10.7268101"><ele>51.0</ele><time>2026-04-18T07:26:33Z</time></trkpt><trkpt lat="43.5202291" lon="10.7269006"><ele>51.0</ele><time>2026-04-18T07:26:34.001Z</time></trkpt><trkpt lat="43.5201234" lon="10.7269837"><ele>51.0</ele><time>2026-04-18T07:26:35Z</time></trkpt><trkpt lat="43.52004" lon="10.7270718"><ele>51.0</ele><time>2026-04-18T07:26:36.001Z</time></trkpt><trkpt lat="43.519961" lon="10.7271664"><ele>51.0</ele><time>2026-04-18T07:26:37Z</time></trkpt><trkpt lat="43.519866" lon="10.7272666"><ele>51.0</ele><time>2026-04-18T07:26:38.001Z</time></trkpt><trkpt lat="43.5197728" lon="10.7273405"><ele>51.0</ele><time>2026-04-18T07:26:39.001Z</time></trkpt><trkpt lat="43.5197035" lon="10.7274089"><ele>51.0</ele><time>2026-04-18T07:26:40Z</time></trkpt><trkpt lat="43.5196536" lon="10.7275389"><ele>51.0</ele><time>2026-04-18T07:26:42Z</time></trkpt><trkpt lat="43.5196386" lon="10.7276388"><ele>52.0</ele><time>2026-04-18T07:26:43.001Z</time></trkpt><trkpt lat="43.5196327" lon="10.7277421"><ele>53.0</ele><time>2026-04-18T07:26:44.001Z</time></trkpt><trkpt lat="43.5196406" lon="10.7278329"><ele>53.99999999999999</ele><time>2026-04-18T07:26:45.001Z</time></trkpt><trkpt lat="43.51963" lon="10.7280385"><ele>55.0</ele><time>2026-04-18T07:26:47.001Z</time></trkpt><trkpt lat="43.5196175" lon="10.7282038"><ele>56.0</ele><time>2026-04-18T07:26:48.001Z</time></trkpt><trkpt lat="43.5196054" lon="10.7283649"><ele>56.0</ele><time>2026-04-18T07:26:49.001Z</time></trkpt><trkpt lat="43.5195939" lon="10.7285154"><ele>55.99999999999999</ele><time>2026-04-18T07:26:50Z</time></trkpt><trkpt lat="43.5195878" lon="10.7286498"><ele>55.99999999999999</ele><time>2026-04-18T07:26:51.001Z</time></trkpt><trkpt lat="43.5195884" lon="10.7287637"><ele>56.0</ele><time>2026-04-18T07:26:52Z</time></trkpt><trkpt lat="43.5196033" lon="10.7288801"><ele>56.0</ele><time>2026-04-18T07:26:53.001Z</time></trkpt><trkpt lat="43.5196192" lon="10.7289967"><ele>56.8</ele><time>2026-04-18T07:26:54.001Z</time></trkpt><trkpt lat="43.5196349" lon="10.729137"><ele>57.599999999999994</ele><time>2026-04-18T07:26:55.001Z</time></trkpt><trkpt lat="43.5196566" lon="10.7292857"><ele>58.4</ele><time>2026-04-18T07:26:56.001Z</time></trkpt><trkpt lat="43.5196687" lon="10.7293969"><ele>59.2</ele><time>2026-04-18T07:26:57.001Z</time></trkpt><trkpt lat="43.5196867" lon="10.7294837"><ele>60.0</ele><time>2026-04-18T07:26:58.001Z</time></trkpt><trkpt lat="43.5197022" lon="10.7296152"><ele>60.5</ele><time>2026-04-18T07:27:00Z</time></trkpt><trkpt lat="43.5196839" lon="10.7297623"><ele>61.0</ele><time>2026-04-18T07:27:02.001Z</time></trkpt><trkpt lat="43.519642" lon="10.7299197"><ele>61.5</ele><time>2026-04-18T07:27:04Z</time></trkpt><trkpt lat="43.5196007" lon="10.7300637"><ele>62.0</ele><time>2026-04-18T07:27:06.001Z</time></trkpt><trkpt lat="43.5195797" lon="10.73022"><ele>63.0</ele><time>2026-04-18T07:27:08.001Z</time></trkpt><trkpt lat="43.519587" lon="10.7303804"><ele>64.0</ele><time>2026-04-18T07:27:10.001Z</time></trkpt><trkpt lat="43.5195956" lon="10.7305515"><ele>65.0</ele><time>2026-04-18T07:27:12.001Z</time></trkpt><trkpt lat="43.5196135" lon="10.7306533"><ele>66.0</ele><time>2026-04-18T07:27:13.001Z</time></trkpt><trkpt lat="43.5196256" lon="10.730831"><ele>67.0</ele><time>2026-04-18T07:27:15Z</time></trkpt><trkpt lat="43.5196344" lon="10.7309263"><ele>67.0</ele><time>2026-04-18T07:27:16.001Z</time></trkpt><trkpt lat="43.5196348" lon="10.7310302"><ele>67.0</ele><time>2026-04-18T07:27:17.001Z</time></trkpt><trkpt lat="43.5196309" lon="10.7311281"><ele>67.0</ele><time>2026-04-18T07:27:18.001Z</time></trkpt><trkpt lat="43.5196358" lon="10.7312244"><ele>67.0</ele><time>2026-04-18T07:27:19.001Z</time></trkpt><trkpt lat="43.519665" lon="10.7313918"><ele>67.0</ele><time>2026-04-18T07:27:21.001Z</time></trkpt><trkpt lat="43.5196693" lon="10.7315285"><ele>67.0</ele><time>2026-04-18T07:27:23.001Z</time></trkpt><trkpt lat="43.5197007" lon="10.7316617"><ele>69.4</ele><time>2026-04-18T07:27:25.001Z</time></trkpt><trkpt lat="43.5197476" lon="10.7318193"><ele>71.80000000000001</ele><time>2026-04-18T07:27:27.001Z</time></trkpt><trkpt lat="43.5197733" lon="10.7319151"><ele>74.2</ele><time>2026-04-18T07:27:28.001Z</time></trkpt><trkpt lat="43.5198013" lon="10.7320187"><ele>76.60000000000001</ele><time>2026-04-18T07:27:29.001Z</time></trkpt><trkpt lat="43.5198296" lon="10.7321411"><ele>79.0</ele><time>2026-04-18T07:27:30.001Z</time></trkpt><trkpt lat="43.5198559" lon="10.7322824"><ele>80.16666666666666</ele><time>2026-04-18T07:27:31Z</time></trkpt><trkpt lat="43.5198652" lon="10.7324294"><ele>81.33333333333333</ele><time>2026-04-18T07:27:32Z</time></trkpt><trkpt lat="43.5198599" lon="10.7325637"><ele>82.5</ele><time>2026-04-18T07:27:33.001Z</time></trkpt><trkpt lat="43.519846" lon="10.7326807"><ele>83.66666666666667</ele><time>2026-04-18T07:27:34.001Z</time></trkpt><trkpt lat="43.5198263" lon="10.7327776"><ele>84.83333333333334</ele><time>2026-04-18T07:27:35.001Z</time></trkpt><trkpt lat="43.5198219" lon="10.7328899"><ele>86.0</ele><time>2026-04-18T07:27:36Z</time></trkpt><trkpt lat="43.5198209" lon="10.7330147"><ele>88.0</ele><time>2026-04-18T07:27:37Z</time></trkpt><trkpt lat="43.5198425" lon="10.7331589"><ele>90.0</ele><time>2026-04-18T07:27:38Z</time></trkpt><trkpt lat="43.5198577" lon="10.7333094"><ele>92.0</ele><time>2026-04-18T07:27:39.001Z</time></trkpt><trkpt lat="43.5198601" lon="10.7334453"><ele>94.0</ele><time>2026-04-18T07:27:40.001Z</time></trkpt><trkpt lat="43.5198471" lon="10.7335795"><ele>96.0</ele><time>2026-04-18T07:27:41Z</time></trkpt><trkpt lat="43.5198284" lon="10.7337077"><ele>96.83333333333333</ele><time>2026-04-18T07:27:42Z</time></trkpt><trkpt lat="43.5198173" lon="10.7338281"><ele>97.66666666666666</ele><time>2026-04-18T07:27:43Z</time></trkpt><trkpt lat="43.5198096" lon="10.7339535"><ele>98.5</ele><time>2026-04-18T07:27:44.001Z</time></trkpt><trkpt lat="43.5198011" lon="10.7340984"><ele>99.33333333333333</ele><time>2026-04-18T07:27:45.001Z</time></trkpt><trkpt lat="43.519803" lon="10.7342236"><ele>100.16666666666666</ele><time>2026-04-18T07:27:46.001Z</time></trkpt><trkpt lat="43.5198243" lon="10.7343092"><ele>101.0</ele><time>2026-04-18T07:27:47.001Z</time></trkpt><trkpt lat="43.5198774" lon="10.7343609"><ele>100.4</ele><time>2026-04-18T07:27:48.001Z</time></trkpt><trkpt lat="43.5199462" lon="10.7344021"><ele>99.8</ele><time>2026-04-18T07:27:49.001Z</time></trkpt><trkpt lat="43.5200201" lon="10.7344523"><ele>99.2</ele><time>2026-04-18T07:27:50.001Z</time></trkpt><trkpt lat="43.5201165" lon="10.7345314"><ele>98.60000000000001</ele><time>2026-04-18T07:27:51.001Z</time></trkpt><trkpt lat="43.5202312" lon="10.7346124"><ele>98.0</ele><time>2026-04-18T07:27:52Z</time></trkpt><trkpt lat="43.5203511" lon="10.7347211"><ele>101.5</ele><time>2026-04-18T07:27:53.001Z</time></trkpt><trkpt lat="43.5204784" lon="10.7348287"><ele>105.0</ele><time>2026-04-18T07:27:54.001Z</time></trkpt><trkpt lat="43.520592" lon="10.7349327"><ele>108.5</ele><time>2026-04-18T07:27:55.001Z</time></trkpt><trkpt lat="43.5206776" lon="10.7350357"><ele>112.0</ele><time>2026-04-18T07:27:56.001Z</time></trkpt><trkpt lat="43.5207324" lon="10.735161"><ele>112.6</ele><time>2026-04-18T07:27:57.001Z</time></trkpt><trkpt lat="43.5207658" lon="10.7353143"><ele>113.19999999999999</ele><time>2026-04-18T07:27:58.001Z</time></trkpt><trkpt lat="43.5207961" lon="10.7354676"><ele>113.8</ele><time>2026-04-18T07:27:59.001Z</time></trkpt><trkpt lat="43.5208598" lon="10.735577"><ele>114.4</ele><time>2026-04-18T07:28:00.001Z</time></trkpt><trkpt lat="43.5209391" lon="10.735679"><ele>115.0</ele><time>2026-04-18T07:28:01Z</time></trkpt><trkpt lat="43.5210221" lon="10.7357835"><ele>115.0</ele><time>2026-04-18T07:28:02.001Z</time></trkpt><trkpt lat="43.5211006" lon="10.7358586"><ele>115.0</ele><time>2026-04-18T07:28:03.001Z</time></trkpt><trkpt lat="43.5211681" lon="10.7359273"><ele>115.0</ele><time>2026-04-18T07:28:04.001Z</time></trkpt><trkpt lat="43.5212496" lon="10.7359915"><ele>115.0</ele><time>2026-04-18T07:28:05Z</time></trkpt><trkpt lat="43.5213231" lon="10.7360643"><ele>115.0</ele><time>2026-04-18T07:28:06.001Z</time></trkpt><trkpt lat="43.5213936" lon="10.7361437"><ele>118.8</ele><time>2026-04-18T07:28:07.001Z</time></trkpt><trkpt lat="43.5214684" lon="10.736229"><ele>122.6</ele><time>2026-04-18T07:28:08.001Z</time></trkpt><trkpt lat="43.5215482" lon="10.7363362"><ele>126.4</ele><time>2026-04-18T07:28:09.001Z</time></trkpt><trkpt lat="43.5216198" lon="10.7364246"><ele>130.2</ele><time>2026-04-18T07:28:10.001Z</time></trkpt><trkpt lat="43.5216728" lon="10.7365054"><ele>134.0</ele><time>2026-04-18T07:28:13.001Z</time></trkpt><trkpt lat="43.521738" lon="10.736598"><ele>134.0</ele><time>2026-04-18T07:28:16Z</time></trkpt><trkpt lat="43.52179" lon="10.7366656"><ele>134.0</ele><time>2026-04-18T07:28:17.001Z</time></trkpt><trkpt lat="43.5218453" lon="10.7367529"><ele>134.0</ele><time>2026-04-18T07:28:18.001Z</time></trkpt><trkpt lat="43.521908" lon="10.7368384"><ele>134.0</ele><time>2026-04-18T07:28:19.001Z</time></trkpt><trkpt lat="43.5219703" lon="10.7369112"><ele>134.0</ele><time>2026-04-18T07:28:20.001Z</time></trkpt><trkpt lat="43.5220271" lon="10.7369816"><ele>134.0</ele><time>2026-04-18T07:28:21Z</time></trkpt><trkpt lat="43.5220988" lon="10.7370674"><ele>133.6</ele><time>2026-04-18T07:28:23.001Z</time></trkpt><trkpt lat="43.5221264" lon="10.7371818"><ele>133.2</ele><time>2026-04-18T07:28:26.001Z</time></trkpt><trkpt lat="43.5221134" lon="10.737269"><ele>132.79999999999998</ele><time>2026-04-18T07:28:27.001Z</time></trkpt><trkpt lat="43.5220716" lon="10.7373953"><ele>132.4</ele><time>2026-04-18T07:28:28.001Z</time></trkpt><trkpt lat="43.5220272" lon="10.7375247"><ele>132.0</ele><time>2026-04-18T07:28:29.001Z</time></trkpt><trkpt lat="43.5219746" lon="10.7376646"><ele>134.4</ele><time>2026-04-18T07:28:30.001Z</time></trkpt><trkpt lat="43.5219086" lon="10.7377925"><ele>136.79999999999998</ele><time>2026-04-18T07:28:31.001Z</time></trkpt><trkpt lat="43.521838" lon="10.7378984"><ele>139.2</ele><time>2026-04-18T07:28:32.001Z</time></trkpt><trkpt lat="43.5217712" lon="10.7379664"><ele>141.6</ele><time>2026-04-18T07:28:33.001Z</time></trkpt><trkpt lat="43.5217275" lon="10.7380301"><ele>144.0</ele><time>2026-04-18T07:28:34.001Z</time></trkpt><trkpt lat="43.5216849" lon="10.738147"><ele>144.0</ele><time>2026-04-18T07:28:36.001Z</time></trkpt><trkpt lat="43.5216921" lon="10.7382394"><ele>144.0</ele><time>2026-04-18T07:28:37.001Z</time></trkpt><trkpt lat="43.5217119" lon="10.7383499"><ele>144.0</ele><time>2026-04-18T07:28:38.001Z</time></trkpt><trkpt lat="43.5217316" lon="10.7384802"><ele>144.0</ele><time>2026-04-18T07:28:39.001Z</time></trkpt><trkpt lat="43.5217569" lon="10.7386269"><ele>144.0</ele><time>2026-04-18T07:28:40.001Z</time></trkpt><trkpt lat="43.5217935" lon="10.7387879"><ele>144.0</ele><time>2026-04-18T07:28:41.001Z</time></trkpt><trkpt lat="43.5218357" lon="10.7389544"><ele>144.0</ele><time>2026-04-18T07:28:42Z</time></trkpt><trkpt lat="43.5218939" lon="10.739126"><ele>144.0</ele><time>2026-04-18T07:28:43Z</time></trkpt><trkpt lat="43.5219614" lon="10.7393095"><ele>144.0</ele><time>2026-04-18T07:28:44.001Z</time></trkpt><trkpt lat="43.5220346" lon="10.7395053"><ele>148.0</ele><time>2026-04-18T07:28:45.001Z</time></trkpt><trkpt lat="43.5221095" lon="10.7397129"><ele>152.0</ele><time>2026-04-18T07:28:46.001Z</time></trkpt><trkpt lat="43.5221875" lon="10.7399275"><ele>156.0</ele><time>2026-04-18T07:28:47.001Z</time></trkpt><trkpt lat="43.5222703" lon="10.7401488"><ele>157.33333333333334</ele><time>2026-04-18T07:28:48.001Z</time></trkpt><trkpt lat="43.5223617" lon="10.7403795"><ele>158.66666666666669</ele><time>2026-04-18T07:28:49.001Z</time></trkpt><trkpt lat="43.5224579" lon="10.7406044"><ele>160.0</ele><time>2026-04-18T07:28:50Z</time></trkpt><trkpt lat="43.5225547" lon="10.7408052"><ele>160.0</ele><time>2026-04-18T07:28:51.001Z</time></trkpt><trkpt lat="43.5226349" lon="10.7409783"><ele>160.0</ele><time>2026-04-18T07:28:52.001Z</time></trkpt><trkpt lat="43.5227119" lon="10.7411219"><ele>160.0</ele><time>2026-04-18T07:28:53.001Z</time></trkpt><trkpt lat="43.5227931" lon="10.7412569"><ele>160.0</ele><time>2026-04-18T07:28:54.001Z</time></trkpt><trkpt lat="43.5228837" lon="10.7413726"><ele>159.75</ele><time>2026-04-18T07:28:55.001Z</time></trkpt><trkpt lat="43.5229854" lon="10.7414737"><ele>159.5</ele><time>2026-04-18T07:28:56.001Z</time></trkpt><trkpt lat="43.5230804" lon="10.7415683"><ele>159.25</ele><time>2026-04-18T07:28:57.001Z</time></trkpt><trkpt lat="43.5231698" lon="10.7416673"><ele>159.0</ele><time>2026-04-18T07:28:58.001Z</time></trkpt><trkpt lat="43.5232553" lon="10.7417562"><ele>159.0</ele><time>2026-04-18T07:28:59Z</time></trkpt><trkpt lat="43.5233413" lon="10.7418366"><ele>159.0</ele><time>2026-04-18T07:29:00Z</time></trkpt><trkpt lat="43.5234221" lon="10.7419073"><ele>159.0</ele><time>2026-04-18T07:29:01.001Z</time></trkpt><trkpt lat="43.523498" lon="10.7419816"><ele>159.0</ele><time>2026-04-18T07:29:02Z</time></trkpt><trkpt lat="43.5235778" lon="10.7420482"><ele>159.0</ele><time>2026-04-18T07:29:03Z</time></trkpt><trkpt lat="43.5236586" lon="10.7420837"><ele>159.6</ele><time>2026-04-18T07:29:04.001Z</time></trkpt><trkpt lat="43.523744" lon="10.7420992"><ele>160.2</ele><time>2026-04-18T07:29:05.001Z</time></trkpt><trkpt lat="43.5238365" lon="10.7420798"><ele>160.79999999999998</ele><time>2026-04-18T07:29:06.001Z</time></trkpt><trkpt lat="43.5239339" lon="10.7420206"><ele>161.4</ele><time>2026-04-18T07:29:07.001Z</time></trkpt><trkpt lat="43.5240297" lon="10.7419801"><ele>162.0</ele><time>2026-04-18T07:29:08.001Z</time></trkpt><trkpt lat="43.5241351" lon="10.741935"><ele>162.75</ele><time>2026-04-18T07:29:09.001Z</time></trkpt><trkpt lat="43.5242559" lon="10.741873"><ele>163.5</ele><time>2026-04-18T07:29:10.001Z</time></trkpt><trkpt lat="43.5243808" lon="10.7418226"><ele>164.25</ele><time>2026-04-18T07:29:11Z</time></trkpt><trkpt lat="43.5244892" lon="10.7417773"><ele>165.0</ele><time>2026-04-18T07:29:12.001Z</time></trkpt><trkpt lat="43.5245976" lon="10.7417403"><ele>166.16666666666666</ele><time>2026-04-18T07:29:13Z</time></trkpt><trkpt lat="43.5246723" lon="10.7417278"><ele>167.33333333333334</ele><time>2026-04-18T07:29:14Z</time></trkpt><trkpt lat="43.5247574" lon="10.7417615"><ele>168.5</ele><time>2026-04-18T07:29:16.001Z</time></trkpt><trkpt lat="43.5248343" lon="10.7417833"><ele>169.66666666666669</ele><time>2026-04-18T07:29:18.001Z</time></trkpt><trkpt lat="43.5249163" lon="10.7417843"><ele>170.83333333333334</ele><time>2026-04-18T07:29:19.001Z</time></trkpt><trkpt lat="43.5250222" lon="10.741774"><ele>172.0</ele><time>2026-04-18T07:29:20Z</time></trkpt><trkpt lat="43.5251208" lon="10.7417563"><ele>172.0</ele><time>2026-04-18T07:29:21.001Z</time></trkpt><trkpt lat="43.5252371" lon="10.741742"><ele>172.0</ele><time>2026-04-18T07:29:22Z</time></trkpt><trkpt lat="43.5253364" lon="10.7416958"><ele>172.0</ele><time>2026-04-18T07:29:23.001Z</time></trkpt><trkpt lat="43.5254302" lon="10.7416415"><ele>172.0</ele><time>2026-04-18T07:29:24.001Z</time></trkpt><trkpt lat="43.525515" lon="10.7415916"><ele>172.0</ele><time>2026-04-18T07:29:25.001Z</time></trkpt><trkpt lat="43.5255894" lon="10.741522"><ele>171.5</ele><time>2026-04-18T07:29:26.001Z</time></trkpt><trkpt lat="43.5256694" lon="10.7414574"><ele>171.0</ele><time>2026-04-18T07:29:27.001Z</time></trkpt><trkpt lat="43.5257496" lon="10.7413984"><ele>170.5</ele><time>2026-04-18T07:29:28Z</time></trkpt><trkpt lat="43.5258104" lon="10.7413382"><ele>170.0</ele><time>2026-04-18T07:29:29.001Z</time></trkpt><trkpt lat="43.5258616" lon="10.7412856"><ele>169.5</ele><time>2026-04-18T07:29:30.001Z</time></trkpt><trkpt lat="43.5259474" lon="10.7412953"><ele>169.0</ele><time>2026-04-18T07:29:33.001Z</time></trkpt><trkpt lat="43.5260156" lon="10.7413901"><ele>169.0</ele><time>2026-04-18T07:29:35.001Z</time></trkpt><trkpt lat="43.5261002" lon="10.7415354"><ele>169.0</ele><time>2026-04-18T07:29:37.001Z</time></trkpt><trkpt lat="43.5261544" lon="10.7416092"><ele>169.0</ele><time>2026-04-18T07:29:38.001Z</time></trkpt><trkpt lat="43.5262199" lon="10.7416798"><ele>169.0</ele><time>2026-04-18T07:29:39.001Z</time></trkpt><trkpt lat="43.5262841" lon="10.7417538"><ele>169.0</ele><time>2026-04-18T07:29:40.001Z</time></trkpt><trkpt lat="43.5263498" lon="10.7418392"><ele>169.39999999999998</ele><time>2026-04-18T07:29:41.001Z</time></trkpt><trkpt lat="43.5264251" lon="10.741918"><ele>169.8</ele><time>2026-04-18T07:29:42.001Z</time></trkpt><trkpt lat="43.5265005" lon="10.7420239"><ele>170.2</ele><time>2026-04-18T07:29:43Z</time></trkpt><trkpt lat="43.5265647" lon="10.7421304"><ele>170.60000000000002</ele><time>2026-04-18T07:29:44Z</time></trkpt><trkpt lat="43.5266362" lon="10.7422384"><ele>171.0</ele><time>2026-04-18T07:29:45.001Z</time></trkpt><trkpt lat="43.5267131" lon="10.7423559"><ele>171.0</ele><time>2026-04-18T07:29:46.001Z</time></trkpt><trkpt lat="43.5267912" lon="10.7424664"><ele>171.0</ele><time>2026-04-18T07:29:47.001Z</time></trkpt><trkpt lat="43.5268625" lon="10.742581"><ele>171.0</ele><time>2026-04-18T07:29:48Z</time></trkpt><trkpt lat="43.5269137" lon="10.7426852"><ele>171.0</ele><time>2026-04-18T07:29:49.001Z</time></trkpt><trkpt lat="43.5269556" lon="10.7427728"><ele>171.0</ele><time>2026-04-18T07:29:50.001Z</time></trkpt><trkpt lat="43.526989" lon="10.7428783"><ele>171.4</ele><time>2026-04-18T07:29:51.001Z</time></trkpt><trkpt lat="43.5270273" lon="10.7429967"><ele>171.8</ele><time>2026-04-18T07:29:52.001Z</time></trkpt><trkpt lat="43.5270678" lon="10.7431198"><ele>172.20000000000002</ele><time>2026-04-18T07:29:53.001Z</time></trkpt><trkpt lat="43.5271052" lon="10.7432497"><ele>172.60000000000002</ele><time>2026-04-18T07:29:54.001Z</time></trkpt><trkpt lat="43.5271334" lon="10.743356"><ele>173.0</ele><time>2026-04-18T07:29:55.001Z</time></trkpt><trkpt lat="43.5271703" lon="10.743459"><ele>172.66666666666666</ele><time>2026-04-18T07:29:56.001Z</time></trkpt><trkpt lat="43.5271991" lon="10.7435612"><ele>172.33333333333331</ele><time>2026-04-18T07:29:57Z</time></trkpt><trkpt lat="43.5272168" lon="10.7436877"><ele>172.0</ele><time>2026-04-18T07:29:58Z</time></trkpt><trkpt lat="43.5272454" lon="10.7438159"><ele>171.66666666666666</ele><time>2026-04-18T07:29:59Z</time></trkpt><trkpt lat="43.5272777" lon="10.7439277"><ele>171.33333333333334</ele><time>2026-04-18T07:30:00Z</time></trkpt><trkpt lat="43.527324" lon="10.7440295"><ele>171.0</ele><time>2026-04-18T07:30:01.001Z</time></trkpt><trkpt lat="43.5273852" lon="10.744129"><ele>171.0</ele><time>2026-04-18T07:30:02.001Z</time></trkpt><trkpt lat="43.5274603" lon="10.7442117"><ele>171.0</ele><time>2026-04-18T07:30:03.001Z</time></trkpt><trkpt lat="43.5275511" lon="10.7442759"><ele>171.0</ele><time>2026-04-18T07:30:04.001Z</time></trkpt><trkpt lat="43.5276823" lon="10.7443251"><ele>171.0</ele><time>2026-04-18T07:30:05.001Z</time></trkpt><trkpt lat="43.527824" lon="10.7443783"><ele>169.5</ele><time>2026-04-18T07:30:06Z</time></trkpt><trkpt lat="43.5279483" lon="10.7444665"><ele>168.0</ele><time>2026-04-18T07:30:07.001Z</time></trkpt><trkpt lat="43.5280577" lon="10.7445588"><ele>166.5</ele><time>2026-04-18T07:30:08.001Z</time></trkpt><trkpt lat="43.5281393" lon="10.7446514"><ele>165.0</ele><time>2026-04-18T07:30:09.001Z</time></trkpt><trkpt lat="43.5282163" lon="10.7447637"><ele>165.0</ele><time>2026-04-18T07:30:10.001Z</time></trkpt><trkpt lat="43.5282709" lon="10.7448934"><ele>165.0</ele><time>2026-04-18T07:30:11.001Z</time></trkpt><trkpt lat="43.5283152" lon="10.7450231"><ele>165.0</ele><time>2026-04-18T07:30:12.001Z</time></trkpt><trkpt lat="43.5283531" lon="10.7451359"><ele>165.0</ele><time>2026-04-18T07:30:13.001Z</time></trkpt><trkpt lat="43.5283875" lon="10.7452397"><ele>165.0</ele><time>2026-04-18T07:30:14.001Z</time></trkpt><trkpt lat="43.5284413" lon="10.7453484"><ele>165.0</ele><time>2026-04-18T07:30:16.001Z</time></trkpt><trkpt lat="43.5284934" lon="10.7454267"><ele>165.0</ele><time>2026-04-18T07:30:28.001Z</time></trkpt><trkpt lat="43.5285728" lon="10.7454456"><ele>165.0</ele><time>2026-04-18T07:30:38Z</time></trkpt><trkpt lat="43.5286078" lon="10.7453308"><ele>165.0</ele><time>2026-04-18T07:30:41.001Z</time></trkpt><trkpt lat="43.5286816" lon="10.7452792"><ele>165.0</ele><time>2026-04-18T07:30:45.001Z</time></trkpt><trkpt lat="43.528761" lon="10.7452642"><ele>165.0</ele><time>2026-04-18T07:30:47.001Z</time></trkpt><trkpt lat="43.5288572" lon="10.745257"><ele>165.0</ele><time>2026-04-18T07:30:49.001Z</time></trkpt><trkpt lat="43.5289469" lon="10.7452444"><ele>165.0</ele><time>2026-04-18T07:30:51.001Z</time></trkpt><trkpt lat="43.5290271" lon="10.7452279"><ele>165.0</ele><time>2026-04-18T07:30:53.001Z</time></trkpt><trkpt lat="43.5291314" lon="10.7451985"><ele>165.0</ele><time>2026-04-18T07:30:55.001Z</time></trkpt><trkpt lat="43.5292197" lon="10.7451827"><ele>165.0</ele><time>2026-04-18T07:30:57Z</time></trkpt><trkpt lat="43.5292898" lon="10.7451613"><ele>165.0</ele><time>2026-04-18T07:31:00Z</time></trkpt><trkpt lat="43.5293655" lon="10.7451405"><ele>163.83333333333334</ele><time>2026-04-18T07:31:10Z</time></trkpt><trkpt lat="43.5294345" lon="10.7451475"><ele>162.66666666666666</ele><time>2026-04-18T07:31:13.001Z</time></trkpt><trkpt lat="43.5294968" lon="10.7451741"><ele>161.5</ele><time>2026-04-18T07:31:15Z</time></trkpt><trkpt lat="43.5295745" lon="10.7452166"><ele>160.33333333333331</ele><time>2026-04-18T07:31:18.001Z</time></trkpt><trkpt lat="43.529639" lon="10.745255"><ele>159.16666666666666</ele><time>2026-04-18T07:31:21.001Z</time></trkpt><trkpt lat="43.5297029" lon="10.7453"><ele>158.0</ele><time>2026-04-18T07:31:41.001Z</time></trkpt><trkpt lat="43.5298351" lon="10.7452635"><ele>157.75</ele><time>2026-04-18T07:31:45.001Z</time></trkpt><trkpt lat="43.5299253" lon="10.7452283"><ele>157.5</ele><time>2026-04-18T07:31:46.001Z</time></trkpt><trkpt lat="43.5300177" lon="10.7451865"><ele>157.25</ele><time>2026-04-18T07:31:47Z</time></trkpt><trkpt lat="43.5301365" lon="10.7450891"><ele>157.0</ele><time>2026-04-18T07:31:48.001Z</time></trkpt><trkpt lat="43.530258" lon="10.7449717"><ele>156.75</ele><time>2026-04-18T07:31:49.001Z</time></trkpt><trkpt lat="43.5303598" lon="10.7448644"><ele>156.5</ele><time>2026-04-18T07:31:50.001Z</time></trkpt><trkpt lat="43.5304731" lon="10.7447913"><ele>156.25</ele><time>2026-04-18T07:31:51.001Z</time></trkpt><trkpt lat="43.5306049" lon="10.7447525"><ele>156.0</ele><time>2026-04-18T07:31:52.001Z</time></trkpt><trkpt lat="43.5307075" lon="10.7447016"><ele>156.0</ele><time>2026-04-18T07:31:53.001Z</time></trkpt><trkpt lat="43.5307797" lon="10.7446478"><ele>156.0</ele><time>2026-04-18T07:31:54Z</time></trkpt><trkpt lat="43.5308369" lon="10.7445841"><ele>156.0</ele><time>2026-04-18T07:31:55Z</time></trkpt><trkpt lat="43.5308781" lon="10.7445085"><ele>156.0</ele><time>2026-04-18T07:31:56Z</time></trkpt><trkpt lat="43.5309208" lon="10.7444161"><ele>156.0</ele><time>2026-04-18T07:31:57.001Z</time></trkpt><trkpt lat="43.5309658" lon="10.7442916"><ele>156.0</ele><time>2026-04-18T07:31:58.001Z</time></trkpt><trkpt lat="43.5310002" lon="10.7441426"><ele>156.0</ele><time>2026-04-18T07:31:59.001Z</time></trkpt><trkpt lat="43.5310218" lon="10.7439953"><ele>156.0</ele><time>2026-04-18T07:32:00.001Z</time></trkpt><trkpt lat="43.5310296" lon="10.743847"><ele>156.0</ele><time>2026-04-18T07:32:01.001Z</time></trkpt><trkpt lat="43.5310161" lon="10.7436897"><ele>156.0</ele><time>2026-04-18T07:32:02Z</time></trkpt><trkpt lat="43.5309973" lon="10.7435564"><ele>156.0</ele><time>2026-04-18T07:32:03.001Z</time></trkpt><trkpt lat="43.5309716" lon="10.7434326"><ele>157.0</ele><time>2026-04-18T07:32:04.001Z</time></trkpt><trkpt lat="43.5309569" lon="10.7433078"><ele>158.0</ele><time>2026-04-18T07:32:05Z</time></trkpt><trkpt lat="43.5309433" lon="10.7431824"><ele>159.0</ele><time>2026-04-18T07:32:06.001Z</time></trkpt><trkpt lat="43.5309356" lon="10.7430581"><ele>160.0</ele><time>2026-04-18T07:32:07.001Z</time></trkpt><trkpt lat="43.5309279" lon="10.7429376"><ele>161.0</ele><time>2026-04-18T07:32:08.001Z</time></trkpt><trkpt lat="43.5309304" lon="10.7428309"><ele>162.0</ele><time>2026-04-18T07:32:09.001Z</time></trkpt><trkpt lat="43.5309276" lon="10.7426966"><ele>162.66666666666666</ele><time>2026-04-18T07:32:11.001Z</time></trkpt><trkpt lat="43.530949" lon="10.7425913"><ele>163.33333333333334</ele><time>2026-04-18T07:32:14Z</time></trkpt><trkpt lat="43.5309524" lon="10.7425028"><ele>164.0</ele><time>2026-04-18T07:32:17.001Z</time></trkpt><trkpt lat="43.5309355" lon="10.7424165"><ele>164.66666666666669</ele><time>2026-04-18T07:32:18.001Z</time></trkpt><trkpt lat="43.5309053" lon="10.7422919"><ele>165.33333333333334</ele><time>2026-04-18T07:32:19.001Z</time></trkpt><trkpt lat="43.5308675" lon="10.7421664"><ele>166.0</ele><time>2026-04-18T07:32:20Z</time></trkpt><trkpt lat="43.5308263" lon="10.7420214"><ele>166.0</ele><time>2026-04-18T07:32:21.001Z</time></trkpt><trkpt lat="43.5307899" lon="10.7418848"><ele>166.0</ele><time>2026-04-18T07:32:22.001Z</time></trkpt><trkpt lat="43.5307543" lon="10.741774"><ele>166.0</ele><time>2026-04-18T07:32:23Z</time></trkpt><trkpt lat="43.5307356" lon="10.7416602"><ele>166.0</ele><time>2026-04-18T07:32:25.001Z</time></trkpt><trkpt lat="43.530723" lon="10.7415633"><ele>166.0</ele><time>2026-04-18T07:32:33Z</time></trkpt><trkpt lat="43.5307204" lon="10.7414311"><ele>166.0</ele><time>2026-04-18T07:32:35.001Z</time></trkpt><trkpt lat="43.5307393" lon="10.741331"><ele>166.33333333333334</ele><time>2026-04-18T07:32:36Z</time></trkpt><trkpt lat="43.5307678" lon="10.7412329"><ele>166.66666666666669</ele><time>2026-04-18T07:32:37.001Z</time></trkpt><trkpt lat="43.5308008" lon="10.7411342"><ele>167.0</ele><time>2026-04-18T07:32:38.001Z</time></trkpt><trkpt lat="43.5308302" lon="10.7410174"><ele>167.33333333333334</ele><time>2026-04-18T07:32:39.001Z</time></trkpt><trkpt lat="43.5308607" lon="10.7409078"><ele>167.66666666666666</ele><time>2026-04-18T07:32:40.001Z</time></trkpt><trkpt lat="43.5309022" lon="10.7407824"><ele>168.0</ele><time>2026-04-18T07:32:41.001Z</time></trkpt><trkpt lat="43.5309342" lon="10.7406616"><ele>168.0</ele><time>2026-04-18T07:32:42.001Z</time></trkpt><trkpt lat="43.5309807" lon="10.7405001"><ele>168.0</ele><time>2026-04-18T07:32:43Z</time></trkpt><trkpt lat="43.5310289" lon="10.7403245"><ele>168.0</ele><time>2026-04-18T07:32:44.001Z</time></trkpt><trkpt lat="43.5310817" lon="10.7401762"><ele>168.0</ele><time>2026-04-18T07:32:45.001Z</time></trkpt><trkpt lat="43.5311252" lon="10.7400457"><ele>168.2</ele><time>2026-04-18T07:32:46Z</time></trkpt><trkpt lat="43.5311575" lon="10.7399284"><ele>168.4</ele><time>2026-04-18T07:32:47.001Z</time></trkpt><trkpt lat="43.5311858" lon="10.7398215"><ele>168.6</ele><time>2026-04-18T07:32:48Z</time></trkpt><trkpt lat="43.5312297" lon="10.7397317"><ele>168.79999999999998</ele><time>2026-04-18T07:32:49.001Z</time></trkpt><trkpt lat="43.5313062" lon="10.7396209"><ele>169.0</ele><time>2026-04-18T07:32:50.001Z</time></trkpt><trkpt lat="43.5314064" lon="10.7395139"><ele>165.33333333333334</ele><time>2026-04-18T07:32:51.001Z</time></trkpt><trkpt lat="43.5315275" lon="10.7393822"><ele>161.66666666666666</ele><time>2026-04-18T07:32:52.001Z</time></trkpt><trkpt lat="43.5316564" lon="10.7392527"><ele>158.0</ele><time>2026-04-18T07:32:53.001Z</time></trkpt><trkpt lat="43.5317776" lon="10.7391082"><ele>158.0</ele><time>2026-04-18T07:32:54Z</time></trkpt><trkpt lat="43.5318949" lon="10.7389831"><ele>158.0</ele><time>2026-04-18T07:32:55.001Z</time></trkpt><trkpt lat="43.5320112" lon="10.73888"><ele>158.0</ele><time>2026-04-18T07:32:56.001Z</time></trkpt><trkpt lat="43.5321115" lon="10.7388009"><ele>158.0</ele><time>2026-04-18T07:32:57Z</time></trkpt><trkpt lat="43.5321887" lon="10.738744"><ele>156.5</ele><time>2026-04-18T07:32:58.001Z</time></trkpt><trkpt lat="43.5322749" lon="10.7386897"><ele>155.0</ele><time>2026-04-18T07:32:59.001Z</time></trkpt><trkpt lat="43.5323961" lon="10.7386094"><ele>153.5</ele><time>2026-04-18T07:33:00.001Z</time></trkpt><trkpt lat="43.5325339" lon="10.7385134"><ele>152.0</ele><time>2026-04-18T07:33:01.001Z</time></trkpt><trkpt lat="43.5326857" lon="10.7383998"><ele>152.0</ele><time>2026-04-18T07:33:02.001Z</time></trkpt><trkpt lat="43.5328233" lon="10.738311"><ele>152.0</ele><time>2026-04-18T07:33:03.001Z</time></trkpt><trkpt lat="43.5329496" lon="10.738206"><ele>152.0</ele><time>2026-04-18T07:33:04.001Z</time></trkpt><trkpt lat="43.533066" lon="10.7380831"><ele>152.0</ele><time>2026-04-18T07:33:05.001Z</time></trkpt><trkpt lat="43.5331702" lon="10.7379574"><ele>151.2</ele><time>2026-04-18T07:33:06.001Z</time></trkpt><trkpt lat="43.5332636" lon="10.7378562"><ele>150.39999999999998</ele><time>2026-04-18T07:33:07.001Z</time></trkpt><trkpt lat="43.5333508" lon="10.7377764"><ele>149.60000000000002</ele><time>2026-04-18T07:33:08Z</time></trkpt><trkpt lat="43.5334253" lon="10.7377139"><ele>148.8</ele><time>2026-04-18T07:33:09.001Z</time></trkpt><trkpt lat="43.533513" lon="10.7376823"><ele>148.0</ele><time>2026-04-18T07:33:10Z</time></trkpt><trkpt lat="43.5336242" lon="10.7376453"><ele>147.0</ele><time>2026-04-18T07:33:11Z</time></trkpt><trkpt lat="43.5337549" lon="10.7375984"><ele>146.0</ele><time>2026-04-18T07:33:12.001Z</time></trkpt><trkpt lat="43.5338968" lon="10.7375409"><ele>145.0</ele><time>2026-04-18T07:33:13Z</time></trkpt><trkpt lat="43.5340333" lon="10.7374723"><ele>144.0</ele><time>2026-04-18T07:33:14.001Z</time></trkpt><trkpt lat="43.5341642" lon="10.7374022"><ele>144.0</ele><time>2026-04-18T07:33:15.001Z</time></trkpt><trkpt lat="43.5342962" lon="10.737331"><ele>144.0</ele><time>2026-04-18T07:33:16Z</time></trkpt><trkpt lat="43.5344388" lon="10.7372437"><ele>144.0</ele><time>2026-04-18T07:33:17.001Z</time></trkpt><trkpt lat="43.5345904" lon="10.7371567"><ele>142.33333333333334</ele><time>2026-04-18T07:33:18.001Z</time></trkpt><trkpt lat="43.5347583" lon="10.7370782"><ele>140.66666666666669</ele><time>2026-04-18T07:33:19.001Z</time></trkpt><trkpt lat="43.534921" lon="10.7369791"><ele>139.0</ele><time>2026-04-18T07:33:20.001Z</time></trkpt><trkpt lat="43.5350757" lon="10.7368613"><ele>138.66666666666669</ele><time>2026-04-18T07:33:21.001Z</time></trkpt><trkpt lat="43.5352299" lon="10.736716"><ele>138.33333333333334</ele><time>2026-04-18T07:33:22.001Z</time></trkpt><trkpt lat="43.5353901" lon="10.736559"><ele>138.0</ele><time>2026-04-18T07:33:23.001Z</time></trkpt><trkpt lat="43.5355334" lon="10.7364211"><ele>137.5</ele><time>2026-04-18T07:33:24.001Z</time></trkpt><trkpt lat="43.5356643" lon="10.7362992"><ele>137.0</ele><time>2026-04-18T07:33:25.001Z</time></trkpt><trkpt lat="43.5357802" lon="10.7361988"><ele>136.5</ele><time>2026-04-18T07:33:26.001Z</time></trkpt><trkpt lat="43.5358963" lon="10.7360984"><ele>136.0</ele><time>2026-04-18T07:33:27.001Z</time></trkpt><trkpt lat="43.5360031" lon="10.7360075"><ele>135.33333333333334</ele><time>2026-04-18T07:33:28.001Z</time></trkpt><trkpt lat="43.5360914" lon="10.7359261"><ele>134.66666666666669</ele><time>2026-04-18T07:33:29.001Z</time></trkpt><trkpt lat="43.5361536" lon="10.7358549"><ele>134.0</ele><time>2026-04-18T07:33:30.001Z</time></trkpt><trkpt lat="43.5362071" lon="10.7357989"><ele>133.33333333333334</ele><time>2026-04-18T07:33:31.001Z</time></trkpt><trkpt lat="43.5362644" lon="10.7357448"><ele>132.66666666666666</ele><time>2026-04-18T07:33:32.001Z</time></trkpt><trkpt lat="43.536331" lon="10.7356925"><ele>132.0</ele><time>2026-04-18T07:33:33.001Z</time></trkpt><trkpt lat="43.5363889" lon="10.7356246"><ele>130.79999999999998</ele><time>2026-04-18T07:33:34.001Z</time></trkpt><trkpt lat="43.5364588" lon="10.7355542"><ele>129.6</ele><time>2026-04-18T07:33:35Z</time></trkpt><trkpt lat="43.5365375" lon="10.7354743"><ele>128.39999999999998</ele><time>2026-04-18T07:33:36Z</time></trkpt><trkpt lat="43.5366137" lon="10.7353988"><ele>127.19999999999999</ele><time>2026-04-18T07:33:37.001Z</time></trkpt><trkpt lat="43.536688" lon="10.7353335"><ele>126.0</ele><time>2026-04-18T07:33:38.001Z</time></trkpt><trkpt lat="43.5367625" lon="10.7352731"><ele>125.19999999999999</ele><time>2026-04-18T07:33:39.001Z</time></trkpt><trkpt lat="43.5368373" lon="10.7352142"><ele>124.39999999999999</ele><time>2026-04-18T07:33:40.001Z</time></trkpt><trkpt lat="43.5369117" lon="10.7351464"><ele>123.6</ele><time>2026-04-18T07:33:41Z</time></trkpt><trkpt lat="43.536986" lon="10.7350648"><ele>122.8</ele><time>2026-04-18T07:33:42.001Z</time></trkpt><trkpt lat="43.5370656" lon="10.7349885"><ele>122.0</ele><time>2026-04-18T07:33:43.001Z</time></trkpt><trkpt lat="43.5371459" lon="10.7349082"><ele>122.0</ele><time>2026-04-18T07:33:44Z</time></trkpt><trkpt lat="43.537225" lon="10.7348419"><ele>121.99999999999999</ele><time>2026-04-18T07:33:45.001Z</time></trkpt><trkpt lat="43.5372913" lon="10.7347652"><ele>121.99999999999999</ele><time>2026-04-18T07:33:47Z</time></trkpt><trkpt lat="43.537397" lon="10.7346505"><ele>122.0</ele><time>2026-04-18T07:33:51Z</time></trkpt><trkpt lat="43.5374801" lon="10.7345747"><ele>122.0</ele><time>2026-04-18T07:33:52.001Z</time></trkpt><trkpt lat="43.5375723" lon="10.7344676"><ele>119.75</ele><time>2026-04-18T07:33:53Z</time></trkpt><trkpt lat="43.5376434" lon="10.7343436"><ele>117.5</ele><time>2026-04-18T07:33:54Z</time></trkpt><trkpt lat="43.5377049" lon="10.7342263"><ele>115.25</ele><time>2026-04-18T07:33:55Z</time></trkpt><trkpt lat="43.5377469" lon="10.7340832"><ele>113.0</ele><time>2026-04-18T07:33:56Z</time></trkpt><trkpt lat="43.5377887" lon="10.733899"><ele>113.0</ele><time>2026-04-18T07:33:57.001Z</time></trkpt><trkpt lat="43.5378192" lon="10.7337083"><ele>113.0</ele><time>2026-04-18T07:33:58.001Z</time></trkpt><trkpt lat="43.5378416" lon="10.7335487"><ele>113.0</ele><time>2026-04-18T07:33:59Z</time></trkpt><trkpt lat="43.5378389" lon="10.7334013"><ele>113.0</ele><time>2026-04-18T07:34:00.001Z</time></trkpt><trkpt lat="43.5378178" lon="10.7332751"><ele>111.66666666666666</ele><time>2026-04-18T07:34:01Z</time></trkpt><trkpt lat="43.5378076" lon="10.7331553"><ele>110.33333333333333</ele><time>2026-04-18T07:34:02Z</time></trkpt><trkpt lat="43.5377927" lon="10.7330454"><ele>109.0</ele><time>2026-04-18T07:34:03.001Z</time></trkpt><trkpt lat="43.537778" lon="10.7329444"><ele>107.66666666666666</ele><time>2026-04-18T07:34:04.001Z</time></trkpt><trkpt lat="43.5377668" lon="10.7328492"><ele>106.33333333333333</ele><time>2026-04-18T07:34:05.001Z</time></trkpt><trkpt lat="43.5377655" lon="10.7326879"><ele>105.0</ele><time>2026-04-18T07:34:07.001Z</time></trkpt><trkpt lat="43.5377659" lon="10.7325283"><ele>104.0</ele><time>2026-04-18T07:34:09.001Z</time></trkpt><trkpt lat="43.5377662" lon="10.732434"><ele>103.0</ele><time>2026-04-18T07:34:10.001Z</time></trkpt><trkpt lat="43.5377762" lon="10.7323356"><ele>102.0</ele><time>2026-04-18T07:34:11Z</time></trkpt><trkpt lat="43.5377905" lon="10.7322357"><ele>101.0</ele><time>2026-04-18T07:34:12.001Z</time></trkpt><trkpt lat="43.5378097" lon="10.7321394"><ele>100.0</ele><time>2026-04-18T07:34:13.001Z</time></trkpt><trkpt lat="43.5378456" lon="10.7320416"><ele>99.0</ele><time>2026-04-18T07:34:14.001Z</time></trkpt><trkpt lat="43.5378906" lon="10.7319412"><ele>99.80000000000001</ele><time>2026-04-18T07:34:15.001Z</time></trkpt><trkpt lat="43.5379489" lon="10.7318272"><ele>100.60000000000001</ele><time>2026-04-18T07:34:16.001Z</time></trkpt><trkpt lat="43.5380117" lon="10.7317149"><ele>101.4</ele><time>2026-04-18T07:34:17.001Z</time></trkpt><trkpt lat="43.5380886" lon="10.7316252"><ele>102.2</ele><time>2026-04-18T07:34:18.001Z</time></trkpt><trkpt lat="43.5381916" lon="10.7315392"><ele>103.0</ele><time>2026-04-18T07:34:19.001Z</time></trkpt><trkpt lat="43.5383221" lon="10.731443"><ele>103.0</ele><time>2026-04-18T07:34:20.001Z</time></trkpt><trkpt lat="43.5384462" lon="10.7313662"><ele>103.0</ele><time>2026-04-18T07:34:21Z</time></trkpt><trkpt lat="43.5385571" lon="10.7312972"><ele>103.0</ele><time>2026-04-18T07:34:22.001Z</time></trkpt><trkpt lat="43.5386548" lon="10.7312211"><ele>103.0</ele><time>2026-04-18T07:34:23.001Z</time></trkpt><trkpt lat="43.5387583" lon="10.7311468"><ele>103.60000000000001</ele><time>2026-04-18T07:34:24.001Z</time></trkpt><trkpt lat="43.5388517" lon="10.7310647"><ele>104.2</ele><time>2026-04-18T07:34:25.001Z</time></trkpt><trkpt lat="43.5389362" lon="10.7309844"><ele>104.8</ele><time>2026-04-18T07:34:26.001Z</time></trkpt><trkpt lat="43.5390147" lon="10.7308972"><ele>105.4</ele><time>2026-04-18T07:34:27.001Z</time></trkpt><trkpt lat="43.5391126" lon="10.7307963"><ele>106.0</ele><time>2026-04-18T07:34:28.001Z</time></trkpt><trkpt lat="43.5392056" lon="10.7306667"><ele>102.5</ele><time>2026-04-18T07:34:29.001Z</time></trkpt><trkpt lat="43.5392857" lon="10.730529"><ele>99.0</ele><time>2026-04-18T07:34:30.001Z</time></trkpt><trkpt lat="43.5393626" lon="10.7303875"><ele>95.5</ele><time>2026-04-18T07:34:31.001Z</time></trkpt><trkpt lat="43.539436" lon="10.7302596"><ele>92.0</ele><time>2026-04-18T07:34:32.001Z</time></trkpt><trkpt lat="43.5395018" lon="10.7301393"><ele>89.19999999999999</ele><time>2026-04-18T07:34:33.001Z</time></trkpt><trkpt lat="43.5395638" lon="10.7300336"><ele>86.39999999999999</ele><time>2026-04-18T07:34:34.001Z</time></trkpt><trkpt lat="43.5396192" lon="10.7299611"><ele>83.6</ele><time>2026-04-18T07:34:35.001Z</time></trkpt><trkpt lat="43.5396852" lon="10.729887"><ele>80.8</ele><time>2026-04-18T07:34:36.001Z</time></trkpt><trkpt lat="43.5397697" lon="10.7298163"><ele>78.0</ele><time>2026-04-18T07:34:37Z</time></trkpt><trkpt lat="43.539862" lon="10.7297644"><ele>78.0</ele><time>2026-04-18T07:34:38.001Z</time></trkpt><trkpt lat="43.5399562" lon="10.7297161"><ele>78.0</ele><time>2026-04-18T07:34:39.001Z</time></trkpt><trkpt lat="43.5400571" lon="10.7296592"><ele>78.0</ele><time>2026-04-18T07:34:40.001Z</time></trkpt><trkpt lat="43.5401456" lon="10.7295952"><ele>78.0</ele><time>2026-04-18T07:34:41.001Z</time></trkpt><trkpt lat="43.540229" lon="10.7295409"><ele>78.0</ele><time>2026-04-18T07:34:42.001Z</time></trkpt><trkpt lat="43.5403083" lon="10.7294977"><ele>78.0</ele><time>2026-04-18T07:34:43Z</time></trkpt><trkpt lat="43.5403798" lon="10.7294836"><ele>78.0</ele><time>2026-04-18T07:34:44.001Z</time></trkpt><trkpt lat="43.5404482" lon="10.7294724"><ele>78.0</ele><time>2026-04-18T07:34:45.001Z</time></trkpt><trkpt lat="43.540514" lon="10.7294567"><ele>78.0</ele><time>2026-04-18T07:34:46.001Z</time></trkpt><trkpt lat="43.540579" lon="10.7294425"><ele>78.0</ele><time>2026-04-18T07:34:47.001Z</time></trkpt><trkpt lat="43.5406454" lon="10.7294317"><ele>78.0</ele><time>2026-04-18T07:34:48Z</time></trkpt><trkpt lat="43.540745" lon="10.729387"><ele>78.0</ele><time>2026-04-18T07:34:50Z</time></trkpt><trkpt lat="43.5408255" lon="10.7292911"><ele>76.33333333333333</ele><time>2026-04-18T07:34:52.001Z</time></trkpt><trkpt lat="43.5408674" lon="10.729218"><ele>74.66666666666667</ele><time>2026-04-18T07:34:53.001Z</time></trkpt><trkpt lat="43.5409096" lon="10.7291215"><ele>73.0</ele><time>2026-04-18T07:34:54.001Z</time></trkpt><trkpt lat="43.5409469" lon="10.729021"><ele>71.33333333333334</ele><time>2026-04-18T07:34:55Z</time></trkpt><trkpt lat="43.5409796" lon="10.7289234"><ele>69.66666666666667</ele><time>2026-04-18T07:34:56.001Z</time></trkpt><trkpt lat="43.5410021" lon="10.7288314"><ele>68.0</ele><time>2026-04-18T07:34:57.001Z</time></trkpt><trkpt lat="43.5410295" lon="10.7287341"><ele>68.0</ele><time>2026-04-18T07:34:58.001Z</time></trkpt><trkpt lat="43.5410567" lon="10.7286358"><ele>68.0</ele><time>2026-04-18T07:34:59.001Z</time></trkpt><trkpt lat="43.5410839" lon="10.7285274"><ele>68.0</ele><time>2026-04-18T07:35:00.001Z</time></trkpt><trkpt lat="43.5411155" lon="10.7284207"><ele>68.0</ele><time>2026-04-18T07:35:01.001Z</time></trkpt><trkpt lat="43.5411435" lon="10.728314"><ele>68.0</ele><time>2026-04-18T07:35:02.001Z</time></trkpt><trkpt lat="43.5411823" lon="10.7282308"><ele>68.0</ele><time>2026-04-18T07:35:03Z</time></trkpt><trkpt lat="43.5412174" lon="10.7281321"><ele>66.5</ele><time>2026-04-18T07:35:04.001Z</time></trkpt><trkpt lat="43.5412509" lon="10.728036"><ele>65.0</ele><time>2026-04-18T07:35:05.001Z</time></trkpt><trkpt lat="43.5412872" lon="10.7279382"><ele>63.5</ele><time>2026-04-18T07:35:06.001Z</time></trkpt><trkpt lat="43.5413176" lon="10.7278319"><ele>62.0</ele><time>2026-04-18T07:35:07.001Z</time></trkpt><trkpt lat="43.5413396" lon="10.7277155"><ele>60.50000000000001</ele><time>2026-04-18T07:35:08Z</time></trkpt><trkpt lat="43.541356" lon="10.7275818"><ele>59.0</ele><time>2026-04-18T07:35:09.001Z</time></trkpt><trkpt lat="43.541377" lon="10.7274511"><ele>58.6</ele><time>2026-04-18T07:35:10Z</time></trkpt><trkpt lat="43.5414058" lon="10.7273266"><ele>58.2</ele><time>2026-04-18T07:35:11.001Z</time></trkpt><trkpt lat="43.5414465" lon="10.7272185"><ele>57.800000000000004</ele><time>2026-04-18T07:35:12Z</time></trkpt><trkpt lat="43.5415009" lon="10.7271195"><ele>57.400000000000006</ele><time>2026-04-18T07:35:13.001Z</time></trkpt><trkpt lat="43.5415661" lon="10.7270189"><ele>57.0</ele><time>2026-04-18T07:35:14Z</time></trkpt><trkpt lat="43.5416295" lon="10.72692"><ele>57.400000000000006</ele><time>2026-04-18T07:35:15.001Z</time></trkpt><trkpt lat="43.5416937" lon="10.726819"><ele>57.800000000000004</ele><time>2026-04-18T07:35:16.001Z</time></trkpt><trkpt lat="43.5417563" lon="10.7267243"><ele>58.2</ele><time>2026-04-18T07:35:17Z</time></trkpt><trkpt lat="43.5418226" lon="10.7266317"><ele>58.6</ele><time>2026-04-18T07:35:18.001Z</time></trkpt><trkpt lat="43.5418938" lon="10.7265411"><ele>59.0</ele><time>2026-04-18T07:35:19.001Z</time></trkpt><trkpt lat="43.541963" lon="10.7264316"><ele>59.0</ele><time>2026-04-18T07:35:20.001Z</time></trkpt><trkpt lat="43.5420298" lon="10.72631"><ele>59.00000000000001</ele><time>2026-04-18T07:35:21.001Z</time></trkpt><trkpt lat="43.5420982" lon="10.7261981"><ele>59.00000000000001</ele><time>2026-04-18T07:35:22.001Z</time></trkpt><trkpt lat="43.5421637" lon="10.7260937"><ele>59.0</ele><time>2026-04-18T07:35:23.001Z</time></trkpt><trkpt lat="43.5422314" lon="10.7259984"><ele>59.0</ele><time>2026-04-18T07:35:24.001Z</time></trkpt><trkpt lat="43.5422896" lon="10.7259151"><ele>60.16666666666667</ele><time>2026-04-18T07:35:25.001Z</time></trkpt><trkpt lat="43.5423404" lon="10.7258553"><ele>61.333333333333336</ele><time>2026-04-18T07:35:26Z</time></trkpt><trkpt lat="43.5423846" lon="10.7257925"><ele>62.5</ele><time>2026-04-18T07:35:27.001Z</time></trkpt><trkpt lat="43.5424403" lon="10.7257098"><ele>63.66666666666667</ele><time>2026-04-18T07:35:29.001Z</time></trkpt><trkpt lat="43.5425112" lon="10.7256542"><ele>64.83333333333333</ele><time>2026-04-18T07:35:32.001Z</time></trkpt><trkpt lat="43.5425813" lon="10.725649"><ele>66.0</ele><time>2026-04-18T07:35:49.001Z</time></trkpt><trkpt lat="43.542667" lon="10.7256504"><ele>66.0</ele><time>2026-04-18T07:35:51.001Z</time></trkpt><trkpt lat="43.5427952" lon="10.7255672"><ele>66.0</ele><time>2026-04-18T07:35:53.001Z</time></trkpt><trkpt lat="43.5428483" lon="10.7254809"><ele>66.0</ele><time>2026-04-18T07:35:54.001Z</time></trkpt><trkpt lat="43.5428927" lon="10.7253752"><ele>66.0</ele><time>2026-04-18T07:35:55.001Z</time></trkpt><trkpt lat="43.5429245" lon="10.7252565"><ele>66.0</ele><time>2026-04-18T07:35:56.001Z</time></trkpt><trkpt lat="43.5429502" lon="10.725128"><ele>71.8</ele><time>2026-04-18T07:35:57Z</time></trkpt><trkpt lat="43.5429749" lon="10.7249918"><ele>77.6</ele><time>2026-04-18T07:35:58.001Z</time></trkpt><trkpt lat="43.5429915" lon="10.7248447"><ele>83.4</ele><time>2026-04-18T07:35:59.001Z</time></trkpt><trkpt lat="43.5430123" lon="10.7246915"><ele>89.2</ele><time>2026-04-18T07:36:00.001Z</time></trkpt><trkpt lat="43.5430487" lon="10.7245669"><ele>95.0</ele><time>2026-04-18T07:36:01.001Z</time></trkpt><trkpt lat="43.5431309" lon="10.7244828"><ele>95.0</ele><time>2026-04-18T07:36:02.001Z</time></trkpt><trkpt lat="43.5432246" lon="10.7244451"><ele>95.0</ele><time>2026-04-18T07:36:03.001Z</time></trkpt><trkpt lat="43.5433294" lon="10.7243947"><ele>95.0</ele><time>2026-04-18T07:36:04.001Z</time></trkpt><trkpt lat="43.5434331" lon="10.7243188"><ele>95.0</ele><time>2026-04-18T07:36:05Z</time></trkpt><trkpt lat="43.543509" lon="10.7242007"><ele>95.0</ele><time>2026-04-18T07:36:06.001Z</time></trkpt><trkpt lat="43.5435481" lon="10.7240806"><ele>95.6</ele><time>2026-04-18T07:36:07Z</time></trkpt><trkpt lat="43.5435815" lon="10.7239396"><ele>96.2</ele><time>2026-04-18T07:36:09Z</time></trkpt><trkpt lat="43.5436519" lon="10.7238227"><ele>96.80000000000001</ele><time>2026-04-18T07:36:11.001Z</time></trkpt><trkpt lat="43.5437201" lon="10.7237287"><ele>97.4</ele><time>2026-04-18T07:36:13.001Z</time></trkpt><trkpt lat="43.5438162" lon="10.7236125"><ele>98.0</ele><time>2026-04-18T07:36:15.001Z</time></trkpt><trkpt lat="43.5438668" lon="10.7235543"><ele>101.16666666666666</ele><time>2026-04-18T07:36:16.001Z</time></trkpt><trkpt lat="43.5439114" lon="10.7234778"><ele>104.33333333333333</ele><time>2026-04-18T07:36:17.001Z</time></trkpt><trkpt lat="43.5439531" lon="10.7234065"><ele>107.5</ele><time>2026-04-18T07:36:18.001Z</time></trkpt><trkpt lat="43.5439894" lon="10.7233328"><ele>110.66666666666666</ele><time>2026-04-18T07:36:19.001Z</time></trkpt><trkpt lat="43.5440195" lon="10.7232526"><ele>113.83333333333333</ele><time>2026-04-18T07:36:20Z</time></trkpt><trkpt lat="43.5440529" lon="10.7231186"><ele>117.0</ele><time>2026-04-18T07:36:22.001Z</time></trkpt><trkpt lat="43.5440768" lon="10.7229726"><ele>117.0</ele><time>2026-04-18T07:36:24Z</time></trkpt><trkpt lat="43.5441041" lon="10.7228846"><ele>116.99999999999999</ele><time>2026-04-18T07:36:25Z</time></trkpt><trkpt lat="43.5441472" lon="10.7227745"><ele>116.99999999999999</ele><time>2026-04-18T07:36:26.001Z</time></trkpt><trkpt lat="43.544193" lon="10.7226523"><ele>117.0</ele><time>2026-04-18T07:36:27Z</time></trkpt><trkpt lat="43.5442527" lon="10.72252"><ele>117.0</ele><time>2026-04-18T07:36:28.001Z</time></trkpt><trkpt lat="43.5443189" lon="10.7223812"><ele>117.6</ele><time>2026-04-18T07:36:29.001Z</time></trkpt><trkpt lat="43.5443669" lon="10.7222545"><ele>118.19999999999999</ele><time>2026-04-18T07:36:30.001Z</time></trkpt><trkpt lat="43.5444163" lon="10.7221556"><ele>118.8</ele><time>2026-04-18T07:36:31.001Z</time></trkpt><trkpt lat="43.5444594" lon="10.7220616"><ele>119.4</ele><time>2026-04-18T07:36:32.001Z</time></trkpt><trkpt lat="43.5445284" lon="10.7219852"><ele>120.0</ele><time>2026-04-18T07:36:33.001Z</time></trkpt><trkpt lat="43.5446095" lon="10.7218889"><ele>120.0</ele><time>2026-04-18T07:36:34.001Z</time></trkpt><trkpt lat="43.544693" lon="10.7217978"><ele>120.0</ele><time>2026-04-18T07:36:35.001Z</time></trkpt><trkpt lat="43.5447757" lon="10.7217051"><ele>120.0</ele><time>2026-04-18T07:36:36.001Z</time></trkpt><trkpt lat="43.5448737" lon="10.7216267"><ele>120.0</ele><time>2026-04-18T07:36:37.001Z</time></trkpt><trkpt lat="43.5449724" lon="10.7215717"><ele>120.0</ele><time>2026-04-18T07:36:38.001Z</time></trkpt><trkpt lat="43.5450782" lon="10.7215281"><ele>120.0</ele><time>2026-04-18T07:36:39.001Z</time></trkpt><trkpt lat="43.545188" lon="10.7214828"><ele>120.0</ele><time>2026-04-18T07:36:40.001Z</time></trkpt><trkpt lat="43.5452891" lon="10.7214305"><ele>120.0</ele><time>2026-04-18T07:36:41.001Z</time></trkpt><trkpt lat="43.5453656" lon="10.7213807"><ele>120.0</ele><time>2026-04-18T07:36:42.001Z</time></trkpt><trkpt lat="43.5454463" lon="10.7213384"><ele>120.0</ele><time>2026-04-18T07:36:43.001Z</time></trkpt><trkpt lat="43.5455158" lon="10.7213058"><ele>119.5</ele><time>2026-04-18T07:36:44.001Z</time></trkpt><trkpt lat="43.5455798" lon="10.721279"><ele>119.0</ele><time>2026-04-18T07:36:45Z</time></trkpt><trkpt lat="43.5456875" lon="10.7212301"><ele>118.5</ele><time>2026-04-18T07:36:46.999Z</time></trkpt><trkpt lat="43.5457622" lon="10.7211914"><ele>118.0</ele><time>2026-04-18T07:36:49.999Z</time></trkpt><trkpt lat="43.5457784" lon="10.7210753"><ele>117.5</ele><time>2026-04-18T07:36:56Z</time></trkpt><trkpt lat="43.5457352" lon="10.7210076"><ele>117.0</ele><time>2026-04-18T07:36:57Z</time></trkpt><trkpt lat="43.5456674" lon="10.7209328"><ele>117.8</ele><time>2026-04-18T07:36:57.999Z</time></trkpt><trkpt lat="43.5455839" lon="10.7208547"><ele>118.6</ele><time>2026-04-18T07:36:58.999Z</time></trkpt><trkpt lat="43.5454848" lon="10.7207891"><ele>119.39999999999999</ele><time>2026-04-18T07:37:00Z</time></trkpt><trkpt lat="43.5453925" lon="10.7207404"><ele>120.19999999999999</ele><time>2026-04-18T07:37:00.999Z</time></trkpt><trkpt lat="43.5453023" lon="10.7207085"><ele>121.0</ele><time>2026-04-18T07:37:02Z</time></trkpt><trkpt lat="43.54522" lon="10.7206759"><ele>121.00000000000001</ele><time>2026-04-18T07:37:03Z</time></trkpt><trkpt lat="43.5451485" lon="10.720636"><ele>121.0</ele><time>2026-04-18T07:37:04Z</time></trkpt><trkpt lat="43.5450922" lon="10.7205904"><ele>121.0</ele><time>2026-04-18T07:37:05Z</time></trkpt><trkpt lat="43.5450394" lon="10.72049"><ele>121.0</ele><time>2026-04-18T07:37:07Z</time></trkpt><trkpt lat="43.5450538" lon="10.7203319"><ele>121.00000000000001</ele><time>2026-04-18T07:37:09Z</time></trkpt><trkpt lat="43.5450937" lon="10.7202411"><ele>121.0</ele><time>2026-04-18T07:37:10Z</time></trkpt><trkpt lat="43.5451604" lon="10.7201133"><ele>120.5</ele><time>2026-04-18T07:37:10.999Z</time></trkpt><trkpt lat="43.5452441" lon="10.7199921"><ele>120.0</ele><time>2026-04-18T07:37:12Z</time></trkpt><trkpt lat="43.5453378" lon="10.7198769"><ele>119.5</ele><time>2026-04-18T07:37:13Z</time></trkpt><trkpt lat="43.5454383" lon="10.7197843"><ele>119.0</ele><time>2026-04-18T07:37:14Z</time></trkpt><trkpt lat="43.5455454" lon="10.7197222"><ele>119.0</ele><time>2026-04-18T07:37:15Z</time></trkpt><trkpt lat="43.545646" lon="10.7196813"><ele>119.0</ele><time>2026-04-18T07:37:16Z</time></trkpt><trkpt lat="43.545743" lon="10.7196331"><ele>119.0</ele><time>2026-04-18T07:37:16.999Z</time></trkpt><trkpt lat="43.5458461" lon="10.7195973"><ele>119.0</ele><time>2026-04-18T07:37:18Z</time></trkpt><trkpt lat="43.5459575" lon="10.7195499"><ele>119.0</ele><time>2026-04-18T07:37:18.999Z</time></trkpt><trkpt lat="43.5460758" lon="10.7195094"><ele>119.0</ele><time>2026-04-18T07:37:19.999Z</time></trkpt><trkpt lat="43.5461866" lon="10.7194718"><ele>119.0</ele><time>2026-04-18T07:37:20.999Z</time></trkpt><trkpt lat="43.5462924" lon="10.7194243"><ele>119.0</ele><time>2026-04-18T07:37:22Z</time></trkpt><trkpt lat="43.5463873" lon="10.7193746"><ele>119.0</ele><time>2026-04-18T07:37:23Z</time></trkpt><trkpt lat="43.5464693" lon="10.7193326"><ele>119.0</ele><time>2026-04-18T07:37:24Z</time></trkpt><trkpt lat="43.5465337" lon="10.7193106"><ele>117.2</ele><time>2026-04-18T07:37:24.999Z</time></trkpt><trkpt lat="43.5466559" lon="10.71933"><ele>115.4</ele><time>2026-04-18T07:37:27Z</time></trkpt><trkpt lat="43.546745" lon="10.7193493"><ele>113.6</ele><time>2026-04-18T07:37:28Z</time></trkpt><trkpt lat="43.5468482" lon="10.7193633"><ele>111.8</ele><time>2026-04-18T07:37:29Z</time></trkpt><trkpt lat="43.5469555" lon="10.7193546"><ele>110.0</ele><time>2026-04-18T07:37:29.999Z</time></trkpt><trkpt lat="43.5470702" lon="10.7193455"><ele>109.5</ele><time>2026-04-18T07:37:31Z</time></trkpt><trkpt lat="43.5471965" lon="10.7193373"><ele>109.0</ele><time>2026-04-18T07:37:32Z</time></trkpt><trkpt lat="43.5473311" lon="10.7193319"><ele>108.5</ele><time>2026-04-18T07:37:32.999Z</time></trkpt><trkpt lat="43.5474772" lon="10.7193244"><ele>108.0</ele><time>2026-04-18T07:37:34Z</time></trkpt><trkpt lat="43.5476311" lon="10.7193213"><ele>108.0</ele><time>2026-04-18T07:37:35Z</time></trkpt><trkpt lat="43.5477988" lon="10.7193053"><ele>108.0</ele><time>2026-04-18T07:37:36Z</time></trkpt><trkpt lat="43.5479846" lon="10.7193025"><ele>108.0</ele><time>2026-04-18T07:37:37Z</time></trkpt><trkpt lat="43.5481729" lon="10.7192964"><ele>110.0</ele><time>2026-04-18T07:37:38Z</time></trkpt><trkpt lat="43.5483539" lon="10.7192943"><ele>112.0</ele><time>2026-04-18T07:37:39Z</time></trkpt><trkpt lat="43.548517" lon="10.7192936"><ele>114.0</ele><time>2026-04-18T07:37:40Z</time></trkpt><trkpt lat="43.5486726" lon="10.7192938"><ele>114.5</ele><time>2026-04-18T07:37:41Z</time></trkpt><trkpt lat="43.5488093" lon="10.7193018"><ele>115.0</ele><time>2026-04-18T07:37:42Z</time></trkpt><trkpt lat="43.5489419" lon="10.7193203"><ele>115.5</ele><time>2026-04-18T07:37:43Z</time></trkpt><trkpt lat="43.549064" lon="10.7193606"><ele>116.0</ele><time>2026-04-18T07:37:44Z</time></trkpt><trkpt lat="43.5491666" lon="10.7194256"><ele>117.4</ele><time>2026-04-18T07:37:45Z</time></trkpt><trkpt lat="43.5492478" lon="10.7195024"><ele>118.8</ele><time>2026-04-18T07:37:45.999Z</time></trkpt><trkpt lat="43.5493161" lon="10.7195974"><ele>120.20000000000002</ele><time>2026-04-18T07:37:46.999Z</time></trkpt><trkpt lat="43.549367" lon="10.7196803"><ele>121.60000000000001</ele><time>2026-04-18T07:37:48Z</time></trkpt><trkpt lat="43.5494128" lon="10.7197526"><ele>123.0</ele><time>2026-04-18T07:37:49Z</time></trkpt><trkpt lat="43.5496216" lon="10.7200952"><ele>123.0</ele><time>2026-04-18T07:37:54Z</time></trkpt><trkpt lat="43.5496595" lon="10.720175"><ele>123.0</ele><time>2026-04-18T07:37:54.999Z</time></trkpt><trkpt lat="43.5496842" lon="10.7202854"><ele>123.0</ele><time>2026-04-18T07:37:55.999Z</time></trkpt><trkpt lat="43.5496901" lon="10.7204003"><ele>123.0</ele><time>2026-04-18T07:37:56.999Z</time></trkpt><trkpt lat="43.5496904" lon="10.7205261"><ele>123.0</ele><time>2026-04-18T07:37:58Z</time></trkpt><trkpt lat="43.5496861" lon="10.7206683"><ele>123.0</ele><time>2026-04-18T07:37:59Z</time></trkpt><trkpt lat="43.5496763" lon="10.7208204"><ele>123.83333333333333</ele><time>2026-04-18T07:38:00Z</time></trkpt><trkpt lat="43.5496656" lon="10.7209747"><ele>124.66666666666666</ele><time>2026-04-18T07:38:01Z</time></trkpt><trkpt lat="43.5496518" lon="10.721109"><ele>125.5</ele><time>2026-04-18T07:38:02Z</time></trkpt><trkpt lat="43.5496363" lon="10.7212186"><ele>126.33333333333333</ele><time>2026-04-18T07:38:02.999Z</time></trkpt><trkpt lat="43.549607" lon="10.7213011"><ele>127.16666666666666</ele><time>2026-04-18T07:38:04Z</time></trkpt><trkpt lat="43.549564" lon="10.7214023"><ele>128.0</ele><time>2026-04-18T07:38:05.999Z</time></trkpt><trkpt lat="43.5495744" lon="10.7215453"><ele>129.20000000000002</ele><time>2026-04-18T07:38:08Z</time></trkpt><trkpt lat="43.5495937" lon="10.7216401"><ele>130.4</ele><time>2026-04-18T07:38:09Z</time></trkpt><trkpt lat="43.5496186" lon="10.721744"><ele>131.60000000000002</ele><time>2026-04-18T07:38:10Z</time></trkpt><trkpt lat="43.5496483" lon="10.7218554"><ele>132.8</ele><time>2026-04-18T07:38:11Z</time></trkpt><trkpt lat="43.549699" lon="10.7219914"><ele>134.0</ele><time>2026-04-18T07:38:11.999Z</time></trkpt><trkpt lat="43.5497504" lon="10.7221388"><ele>133.8</ele><time>2026-04-18T07:38:13Z</time></trkpt><trkpt lat="43.5497929" lon="10.7222855"><ele>133.60000000000002</ele><time>2026-04-18T07:38:13.999Z</time></trkpt><trkpt lat="43.5498199" lon="10.722437"><ele>133.4</ele><time>2026-04-18T07:38:15Z</time></trkpt><trkpt lat="43.5498339" lon="10.7225854"><ele>133.20000000000002</ele><time>2026-04-18T07:38:16Z</time></trkpt><trkpt lat="43.5498353" lon="10.7227236"><ele>133.0</ele><time>2026-04-18T07:38:17Z</time></trkpt><trkpt lat="43.549834" lon="10.7228598"><ele>133.0</ele><time>2026-04-18T07:38:18Z</time></trkpt><trkpt lat="43.5498491" lon="10.7230025"><ele>133.0</ele><time>2026-04-18T07:38:19Z</time></trkpt><trkpt lat="43.5498895" lon="10.7231252"><ele>133.0</ele><time>2026-04-18T07:38:19.999Z</time></trkpt><trkpt lat="43.5499451" lon="10.7232473"><ele>133.0</ele><time>2026-04-18T07:38:20.999Z</time></trkpt><trkpt lat="43.5499931" lon="10.7233897"><ele>133.0</ele><time>2026-04-18T07:38:22Z</time></trkpt><trkpt lat="43.5500243" lon="10.723537"><ele>130.25</ele><time>2026-04-18T07:38:23Z</time></trkpt><trkpt lat="43.5500583" lon="10.7236981"><ele>127.5</ele><time>2026-04-18T07:38:24Z</time></trkpt><trkpt lat="43.5501078" lon="10.7238407"><ele>124.75</ele><time>2026-04-18T07:38:24.999Z</time></trkpt><trkpt lat="43.5501801" lon="10.7239667"><ele>122.0</ele><time>2026-04-18T07:38:26Z</time></trkpt><trkpt lat="43.5502666" lon="10.7240753"><ele>122.0</ele><time>2026-04-18T07:38:27Z</time></trkpt><trkpt lat="43.5503459" lon="10.724158"><ele>121.99999999999999</ele><time>2026-04-18T07:38:28Z</time></trkpt><trkpt lat="43.5504253" lon="10.7242216"><ele>121.99999999999999</ele><time>2026-04-18T07:38:29Z</time></trkpt><trkpt lat="43.5505223" lon="10.7242563"><ele>122.0</ele><time>2026-04-18T07:38:29.999Z</time></trkpt><trkpt lat="43.5506132" lon="10.724276"><ele>122.0</ele><time>2026-04-18T07:38:31Z</time></trkpt><trkpt lat="43.5507458" lon="10.7243125"><ele>123.33333333333333</ele><time>2026-04-18T07:38:31.999Z</time></trkpt><trkpt lat="43.5509259" lon="10.7243568"><ele>124.66666666666666</ele><time>2026-04-18T07:38:33Z</time></trkpt><trkpt lat="43.5511193" lon="10.7244139"><ele>126.0</ele><time>2026-04-18T07:38:34Z</time></trkpt><trkpt lat="43.5513103" lon="10.7244631"><ele>117.66666666666666</ele><time>2026-04-18T07:38:34.999Z</time></trkpt><trkpt lat="43.5514815" lon="10.724522"><ele>109.33333333333333</ele><time>2026-04-18T07:38:36Z</time></trkpt><trkpt lat="43.5516373" lon="10.7245726"><ele>101.0</ele><time>2026-04-18T07:38:37Z</time></trkpt><trkpt lat="43.551809" lon="10.7245987"><ele>101.0</ele><time>2026-04-18T07:38:38Z</time></trkpt><trkpt lat="43.5519828" lon="10.7245989"><ele>101.0</ele><time>2026-04-18T07:38:39Z</time></trkpt><trkpt lat="43.5521558" lon="10.7245823"><ele>101.0</ele><time>2026-04-18T07:38:40Z</time></trkpt><trkpt lat="43.5523271" lon="10.7245601"><ele>99.0</ele><time>2026-04-18T07:38:41Z</time></trkpt><trkpt lat="43.5524918" lon="10.724554"><ele>97.0</ele><time>2026-04-18T07:38:42Z</time></trkpt><trkpt lat="43.5526705" lon="10.7245781"><ele>95.0</ele><time>2026-04-18T07:38:43Z</time></trkpt><trkpt lat="43.5528619" lon="10.7246119"><ele>92.0</ele><time>2026-04-18T07:38:44Z</time></trkpt><trkpt lat="43.5530742" lon="10.7246542"><ele>89.0</ele><time>2026-04-18T07:38:45Z</time></trkpt><trkpt lat="43.5532969" lon="10.7247077"><ele>86.0</ele><time>2026-04-18T07:38:46Z</time></trkpt><trkpt lat="43.5535266" lon="10.724764"><ele>83.5</ele><time>2026-04-18T07:38:47Z</time></trkpt><trkpt lat="43.5537546" lon="10.7248124"><ele>81.0</ele><time>2026-04-18T07:38:48Z</time></trkpt><trkpt lat="43.5539794" lon="10.7248618"><ele>81.0</ele><time>2026-04-18T07:38:48.999Z</time></trkpt><trkpt lat="43.5542078" lon="10.7248918"><ele>81.0</ele><time>2026-04-18T07:38:50Z</time></trkpt><trkpt lat="43.5544379" lon="10.724906"><ele>78.0</ele><time>2026-04-18T07:38:50.999Z</time></trkpt><trkpt lat="43.5546517" lon="10.7248988"><ele>75.0</ele><time>2026-04-18T07:38:52Z</time></trkpt><trkpt lat="43.5548558" lon="10.7248832"><ele>72.0</ele><time>2026-04-18T07:38:53Z</time></trkpt><trkpt lat="43.5550629" lon="10.7248781"><ele>72.0</ele><time>2026-04-18T07:38:54Z</time></trkpt><trkpt lat="43.5552739" lon="10.7248798"><ele>72.0</ele><time>2026-04-18T07:38:55Z</time></trkpt><trkpt lat="43.5554794" lon="10.7248752"><ele>72.0</ele><time>2026-04-18T07:38:56Z</time></trkpt><trkpt lat="43.5556804" lon="10.7248779"><ele>70.33333333333333</ele><time>2026-04-18T07:38:56.999Z</time></trkpt><trkpt lat="43.5558803" lon="10.7248992"><ele>68.66666666666666</ele><time>2026-04-18T07:38:57.999Z</time></trkpt><trkpt lat="43.5560917" lon="10.7249474"><ele>67.0</ele><time>2026-04-18T07:38:59Z</time></trkpt><trkpt lat="43.5562936" lon="10.7250153"><ele>66.33333333333333</ele><time>2026-04-18T07:39:00Z</time></trkpt><trkpt lat="43.5564914" lon="10.725094"><ele>65.66666666666667</ele><time>2026-04-18T07:39:01Z</time></trkpt><trkpt lat="43.5566742" lon="10.7251726"><ele>65.0</ele><time>2026-04-18T07:39:02Z</time></trkpt><trkpt lat="43.5568498" lon="10.7252418"><ele>60.66666666666667</ele><time>2026-04-18T07:39:03Z</time></trkpt><trkpt lat="43.5570102" lon="10.7253166"><ele>56.33333333333333</ele><time>2026-04-18T07:39:04Z</time></trkpt><trkpt lat="43.5571588" lon="10.7254077"><ele>52.0</ele><time>2026-04-18T07:39:05Z</time></trkpt><trkpt lat="43.5572934" lon="10.7255182"><ele>51.33333333333333</ele><time>2026-04-18T07:39:05.999Z</time></trkpt><trkpt lat="43.5574097" lon="10.7256555"><ele>50.66666666666667</ele><time>2026-04-18T07:39:06.999Z</time></trkpt><trkpt lat="43.5575193" lon="10.7258205"><ele>50.0</ele><time>2026-04-18T07:39:08Z</time></trkpt><trkpt lat="43.5576354" lon="10.7260029"><ele>49.333333333333336</ele><time>2026-04-18T07:39:09Z</time></trkpt><trkpt lat="43.5577663" lon="10.7262093"><ele>48.66666666666667</ele><time>2026-04-18T07:39:10Z</time></trkpt><trkpt lat="43.5579034" lon="10.7264331"><ele>48.0</ele><time>2026-04-18T07:39:11Z</time></trkpt><trkpt lat="43.5580473" lon="10.7266596"><ele>47.5</ele><time>2026-04-18T07:39:12Z</time></trkpt><trkpt lat="43.5582011" lon="10.7268996"><ele>47.0</ele><time>2026-04-18T07:39:13Z</time></trkpt><trkpt lat="43.5583563" lon="10.7271495"><ele>47.0</ele><time>2026-04-18T07:39:14Z</time></trkpt><trkpt lat="43.5585168" lon="10.7274031"><ele>47.0</ele><time>2026-04-18T07:39:15Z</time></trkpt><trkpt lat="43.5586777" lon="10.7276639"><ele>47.0</ele><time>2026-04-18T07:39:15.999Z</time></trkpt><trkpt lat="43.5588395" lon="10.7279256"><ele>47.0</ele><time>2026-04-18T07:39:17Z</time></trkpt><trkpt lat="43.5589996" lon="10.7281878"><ele>47.0</ele><time>2026-04-18T07:39:18Z</time></trkpt><trkpt lat="43.5591676" lon="10.7284497"><ele>47.0</ele><time>2026-04-18T07:39:19Z</time></trkpt><trkpt lat="43.5593381" lon="10.7287172"><ele>48.0</ele><time>2026-04-18T07:39:19.999Z</time></trkpt><trkpt lat="43.5595116" lon="10.7289923"><ele>49.0</ele><time>2026-04-18T07:39:21Z</time></trkpt><trkpt lat="43.5596851" lon="10.7292706"><ele>47.0</ele><time>2026-04-18T07:39:21.999Z</time></trkpt><trkpt lat="43.5598571" lon="10.7295513"><ele>45.0</ele><time>2026-04-18T07:39:23Z</time></trkpt><trkpt lat="43.5600327" lon="10.7298338"><ele>45.0</ele><time>2026-04-18T07:39:24Z</time></trkpt><trkpt lat="43.560214" lon="10.7301169"><ele>45.0</ele><time>2026-04-18T07:39:25Z</time></trkpt><trkpt lat="43.5603984" lon="10.7304046"><ele>45.0</ele><time>2026-04-18T07:39:26Z</time></trkpt><trkpt lat="43.5605796" lon="10.7306864"><ele>45.0</ele><time>2026-04-18T07:39:27Z</time></trkpt><trkpt lat="43.5607475" lon="10.7309546"><ele>46.0</ele><time>2026-04-18T07:39:28Z</time></trkpt><trkpt lat="43.560906" lon="10.7312112"><ele>47.0</ele><time>2026-04-18T07:39:28.999Z</time></trkpt><trkpt lat="43.5610558" lon="10.7314491"><ele>47.0</ele><time>2026-04-18T07:39:29.999Z</time></trkpt><trkpt lat="43.5611984" lon="10.7316748"><ele>47.0</ele><time>2026-04-18T07:39:30.999Z</time></trkpt><trkpt lat="43.5613374" lon="10.7318996"><ele>47.0</ele><time>2026-04-18T07:39:32Z</time></trkpt><trkpt lat="43.5614786" lon="10.7321187"><ele>46.666666666666664</ele><time>2026-04-18T07:39:33Z</time></trkpt><trkpt lat="43.5616197" lon="10.7323458"><ele>46.333333333333336</ele><time>2026-04-18T07:39:34Z</time></trkpt><trkpt lat="43.5617694" lon="10.7325862"><ele>46.0</ele><time>2026-04-18T07:39:35Z</time></trkpt><trkpt lat="43.561924" lon="10.7328336"><ele>46.5</ele><time>2026-04-18T07:39:35.999Z</time></trkpt><trkpt lat="43.5620813" lon="10.7330828"><ele>47.0</ele><time>2026-04-18T07:39:37Z</time></trkpt><trkpt lat="43.5622437" lon="10.7333399"><ele>47.0</ele><time>2026-04-18T07:39:38Z</time></trkpt><trkpt lat="43.5624063" lon="10.733593"><ele>47.0</ele><time>2026-04-18T07:39:39Z</time></trkpt><trkpt lat="43.5625596" lon="10.7338393"><ele>47.0</ele><time>2026-04-18T07:39:39.999Z</time></trkpt><trkpt lat="43.5627012" lon="10.7340696"><ele>47.0</ele><time>2026-04-18T07:39:40.999Z</time></trkpt><trkpt lat="43.5628338" lon="10.7342839"><ele>47.0</ele><time>2026-04-18T07:39:42Z</time></trkpt><trkpt lat="43.562954" lon="10.7344959"><ele>47.33333333333333</ele><time>2026-04-18T07:39:42.999Z</time></trkpt><trkpt lat="43.5630646" lon="10.7347026"><ele>47.666666666666664</ele><time>2026-04-18T07:39:44Z</time></trkpt><trkpt lat="43.563155" lon="10.7349115"><ele>48.0</ele><time>2026-04-18T07:39:45Z</time></trkpt><trkpt lat="43.5632433" lon="10.7351234"><ele>47.666666666666664</ele><time>2026-04-18T07:39:45.999Z</time></trkpt><trkpt lat="43.5633304" lon="10.7353342"><ele>47.33333333333333</ele><time>2026-04-18T07:39:47Z</time></trkpt><trkpt lat="43.5634263" lon="10.7355563"><ele>47.0</ele><time>2026-04-18T07:39:48Z</time></trkpt><trkpt lat="43.5635222" lon="10.7357781"><ele>47.0</ele><time>2026-04-18T07:39:49Z</time></trkpt><trkpt lat="43.5636159" lon="10.735991"><ele>47.0</ele><time>2026-04-18T07:39:50Z</time></trkpt><trkpt lat="43.5637106" lon="10.7362073"><ele>47.0</ele><time>2026-04-18T07:39:50.999Z</time></trkpt><trkpt lat="43.5637999" lon="10.7364178"><ele>47.33333333333333</ele><time>2026-04-18T07:39:52Z</time></trkpt><trkpt lat="43.5638932" lon="10.7366373"><ele>47.666666666666664</ele><time>2026-04-18T07:39:52.999Z</time></trkpt><trkpt lat="43.5639839" lon="10.7368621"><ele>48.0</ele><time>2026-04-18T07:39:53.999Z</time></trkpt><trkpt lat="43.5640794" lon="10.7370846"><ele>48.0</ele><time>2026-04-18T07:39:54.999Z</time></trkpt><trkpt lat="43.5641701" lon="10.737297"><ele>48.0</ele><time>2026-04-18T07:39:55.999Z</time></trkpt><trkpt lat="43.5642541" lon="10.7375009"><ele>48.0</ele><time>2026-04-18T07:39:57Z</time></trkpt><trkpt lat="43.5643383" lon="10.7377007"><ele>48.0</ele><time>2026-04-18T07:39:58Z</time></trkpt><trkpt lat="43.5644194" lon="10.7379066"><ele>48.0</ele><time>2026-04-18T07:39:59Z</time></trkpt><trkpt lat="43.5644982" lon="10.7381017"><ele>48.0</ele><time>2026-04-18T07:39:59.999Z</time></trkpt><trkpt lat="43.5645783" lon="10.7382896"><ele>48.25</ele><time>2026-04-18T07:40:01Z</time></trkpt><trkpt lat="43.5646621" lon="10.7384653"><ele>48.5</ele><time>2026-04-18T07:40:02Z</time></trkpt><trkpt lat="43.5647458" lon="10.7386244"><ele>48.75</ele><time>2026-04-18T07:40:02.999Z</time></trkpt><trkpt lat="43.5648272" lon="10.7387669"><ele>49.0</ele><time>2026-04-18T07:40:04Z</time></trkpt><trkpt lat="43.5649093" lon="10.7388946"><ele>49.400000000000006</ele><time>2026-04-18T07:40:05Z</time></trkpt><trkpt lat="43.5649846" lon="10.7390094"><ele>49.8</ele><time>2026-04-18T07:40:06Z</time></trkpt><trkpt lat="43.5650402" lon="10.7391166"><ele>50.2</ele><time>2026-04-18T07:40:07Z</time></trkpt><trkpt lat="43.5650651" lon="10.7392166"><ele>50.599999999999994</ele><time>2026-04-18T07:40:07.999Z</time></trkpt><trkpt lat="43.5650528" lon="10.7393989"><ele>51.0</ele><time>2026-04-18T07:40:09.999Z</time></trkpt><trkpt lat="43.5650161" lon="10.7395146"><ele>51.5</ele><time>2026-04-18T07:40:11Z</time></trkpt><trkpt lat="43.5649451" lon="10.7396407"><ele>52.0</ele><time>2026-04-18T07:40:12Z</time></trkpt><trkpt lat="43.5648637" lon="10.7397881"><ele>52.5</ele><time>2026-04-18T07:40:13Z</time></trkpt><trkpt lat="43.5647671" lon="10.739956"><ele>53.0</ele><time>2026-04-18T07:40:14Z</time></trkpt><trkpt lat="43.5646527" lon="10.7401452"><ele>53.0</ele><time>2026-04-18T07:40:15Z</time></trkpt><trkpt lat="43.5645389" lon="10.7403441"><ele>53.0</ele><time>2026-04-18T07:40:16Z</time></trkpt><trkpt lat="43.5644138" lon="10.7405571"><ele>53.0</ele><time>2026-04-18T07:40:17Z</time></trkpt><trkpt lat="43.5642853" lon="10.7407857"><ele>52.333333333333336</ele><time>2026-04-18T07:40:18Z</time></trkpt><trkpt lat="43.5641517" lon="10.7410174"><ele>51.66666666666667</ele><time>2026-04-18T07:40:19Z</time></trkpt><trkpt lat="43.5640118" lon="10.7412633"><ele>51.0</ele><time>2026-04-18T07:40:20Z</time></trkpt><trkpt lat="43.5638708" lon="10.7415169"><ele>53.0</ele><time>2026-04-18T07:40:21Z</time></trkpt><trkpt lat="43.5637223" lon="10.7417775"><ele>55.0</ele><time>2026-04-18T07:40:22Z</time></trkpt><trkpt lat="43.5635808" lon="10.7420381"><ele>55.0</ele><time>2026-04-18T07:40:22.999Z</time></trkpt><trkpt lat="43.5634482" lon="10.7422814"><ele>55.0</ele><time>2026-04-18T07:40:24Z</time></trkpt><trkpt lat="43.5633304" lon="10.7425018"><ele>55.0</ele><time>2026-04-18T07:40:24.999Z</time></trkpt><trkpt lat="43.5632147" lon="10.7427056"><ele>56.0</ele><time>2026-04-18T07:40:25.999Z</time></trkpt><trkpt lat="43.5630999" lon="10.7428999"><ele>57.0</ele><time>2026-04-18T07:40:27Z</time></trkpt><trkpt lat="43.562983" lon="10.7431014"><ele>58.0</ele><time>2026-04-18T07:40:28Z</time></trkpt><trkpt lat="43.5628727" lon="10.7432908"><ele>57.0</ele><time>2026-04-18T07:40:28.999Z</time></trkpt><trkpt lat="43.5627724" lon="10.7434767"><ele>56.0</ele><time>2026-04-18T07:40:29.999Z</time></trkpt><trkpt lat="43.5626706" lon="10.7436594"><ele>55.0</ele><time>2026-04-18T07:40:31Z</time></trkpt><trkpt lat="43.5625767" lon="10.7438405"><ele>55.0</ele><time>2026-04-18T07:40:32Z</time></trkpt><trkpt lat="43.5624862" lon="10.7440257"><ele>55.0</ele><time>2026-04-18T07:40:32.999Z</time></trkpt><trkpt lat="43.5624077" lon="10.7442159"><ele>55.0</ele><time>2026-04-18T07:40:34Z</time></trkpt><trkpt lat="43.5623394" lon="10.7444164"><ele>56.0</ele><time>2026-04-18T07:40:34.999Z</time></trkpt><trkpt lat="43.5622818" lon="10.7446339"><ele>57.0</ele><time>2026-04-18T07:40:36Z</time></trkpt><trkpt lat="43.5622301" lon="10.744851"><ele>58.0</ele><time>2026-04-18T07:40:37Z</time></trkpt><trkpt lat="43.5621969" lon="10.7450806"><ele>58.0</ele><time>2026-04-18T07:40:38Z</time></trkpt><trkpt lat="43.5621716" lon="10.7453188"><ele>58.0</ele><time>2026-04-18T07:40:39Z</time></trkpt><trkpt lat="43.5621534" lon="10.7455627"><ele>58.0</ele><time>2026-04-18T07:40:40Z</time></trkpt><trkpt lat="43.5621412" lon="10.7458134"><ele>56.666666666666664</ele><time>2026-04-18T07:40:41Z</time></trkpt><trkpt lat="43.5621444" lon="10.746075"><ele>55.33333333333333</ele><time>2026-04-18T07:40:42Z</time></trkpt><trkpt lat="43.5621537" lon="10.746335"><ele>54.0</ele><time>2026-04-18T07:40:42.999Z</time></trkpt><trkpt lat="43.562173" lon="10.7465918"><ele>54.0</ele><time>2026-04-18T07:40:44Z</time></trkpt><trkpt lat="43.562212" lon="10.7468342"><ele>54.0</ele><time>2026-04-18T07:40:45Z</time></trkpt><trkpt lat="43.5622595" lon="10.7470501"><ele>54.0</ele><time>2026-04-18T07:40:45.999Z</time></trkpt><trkpt lat="43.5623125" lon="10.7472418"><ele>53.75</ele><time>2026-04-18T07:40:47Z</time></trkpt><trkpt lat="43.5623738" lon="10.7474254"><ele>53.5</ele><time>2026-04-18T07:40:47.999Z</time></trkpt><trkpt lat="43.5624353" lon="10.7476134"><ele>53.25</ele><time>2026-04-18T07:40:49Z</time></trkpt><trkpt lat="43.5624968" lon="10.7477901"><ele>53.0</ele><time>2026-04-18T07:40:50Z</time></trkpt><trkpt lat="43.5625578" lon="10.7479729"><ele>53.0</ele><time>2026-04-18T07:40:51Z</time></trkpt><trkpt lat="43.5626144" lon="10.7481434"><ele>53.0</ele><time>2026-04-18T07:40:52Z</time></trkpt><trkpt lat="43.562669" lon="10.7483042"><ele>53.0</ele><time>2026-04-18T07:40:53Z</time></trkpt><trkpt lat="43.5627132" lon="10.7484413"><ele>53.0</ele><time>2026-04-18T07:40:54Z</time></trkpt><trkpt lat="43.5627384" lon="10.7485555"><ele>52.8</ele><time>2026-04-18T07:40:55Z</time></trkpt><trkpt lat="43.5626986" lon="10.7487189"><ele>52.599999999999994</ele><time>2026-04-18T07:40:57Z</time></trkpt><trkpt lat="43.5626528" lon="10.7487946"><ele>52.400000000000006</ele><time>2026-04-18T07:40:58Z</time></trkpt><trkpt lat="43.5625893" lon="10.7488689"><ele>52.2</ele><time>2026-04-18T07:40:59Z</time></trkpt><trkpt lat="43.5625043" lon="10.7489055"><ele>52.0</ele><time>2026-04-18T07:41:00Z</time></trkpt><trkpt lat="43.5623931" lon="10.7489245"><ele>52.0</ele><time>2026-04-18T07:41:01Z</time></trkpt><trkpt lat="43.562271" lon="10.74892"><ele>52.0</ele><time>2026-04-18T07:41:01.999Z</time></trkpt><trkpt lat="43.5621312" lon="10.7488983"><ele>52.0</ele><time>2026-04-18T07:41:03Z</time></trkpt><trkpt lat="43.561981" lon="10.7488679"><ele>52.0</ele><time>2026-04-18T07:41:04Z</time></trkpt><trkpt lat="43.5618062" lon="10.7488249"><ele>51.33333333333333</ele><time>2026-04-18T07:41:05Z</time></trkpt><trkpt lat="43.5616156" lon="10.7487907"><ele>50.66666666666667</ele><time>2026-04-18T07:41:06Z</time></trkpt><trkpt lat="43.5614339" lon="10.7487744"><ele>50.0</ele><time>2026-04-18T07:41:07Z</time></trkpt><trkpt lat="43.5612573" lon="10.7487889"><ele>50.66666666666667</ele><time>2026-04-18T07:41:08Z</time></trkpt><trkpt lat="43.5610717" lon="10.7488277"><ele>51.33333333333333</ele><time>2026-04-18T07:41:08.999Z</time></trkpt><trkpt lat="43.5608758" lon="10.7488738"><ele>52.0</ele><time>2026-04-18T07:41:10Z</time></trkpt><trkpt lat="43.5606677" lon="10.7489209"><ele>52.0</ele><time>2026-04-18T07:41:11Z</time></trkpt><trkpt lat="43.5604562" lon="10.7489722"><ele>52.0</ele><time>2026-04-18T07:41:12Z</time></trkpt><trkpt lat="43.5602476" lon="10.7490224"><ele>52.0</ele><time>2026-04-18T07:41:13Z</time></trkpt><trkpt lat="43.5600701" lon="10.7490793"><ele>51.666666666666664</ele><time>2026-04-18T07:41:14Z</time></trkpt><trkpt lat="43.5599113" lon="10.7491358"><ele>51.33333333333333</ele><time>2026-04-18T07:41:15Z</time></trkpt><trkpt lat="43.5597697" lon="10.7492012"><ele>51.0</ele><time>2026-04-18T07:41:16Z</time></trkpt><trkpt lat="43.5596521" lon="10.749297"><ele>51.0</ele><time>2026-04-18T07:41:17Z</time></trkpt><trkpt lat="43.5594561" lon="10.7495472"><ele>51.0</ele><time>2026-04-18T07:41:18.999Z</time></trkpt><trkpt lat="43.559374" lon="10.7496709"><ele>51.0</ele><time>2026-04-18T07:41:20Z</time></trkpt><trkpt lat="43.5592982" lon="10.7497921"><ele>51.0</ele><time>2026-04-18T07:41:21Z</time></trkpt><trkpt lat="43.5592222" lon="10.7499082"><ele>51.0</ele><time>2026-04-18T07:41:22Z</time></trkpt><trkpt lat="43.5591539" lon="10.7500119"><ele>51.0</ele><time>2026-04-18T07:41:23Z</time></trkpt><trkpt lat="43.5590233" lon="10.7501879"><ele>51.0</ele><time>2026-04-18T07:41:25Z</time></trkpt><trkpt lat="43.5589694" lon="10.7502543"><ele>56.0</ele><time>2026-04-18T07:41:25.999Z</time></trkpt><trkpt lat="43.5588861" lon="10.7503417"><ele>56.0</ele><time>2026-04-18T07:41:28Z</time></trkpt></trkseg></trk></gpx>